Wetterdaten: Mittwoch, 07.11.2018
Datum Zeit Temp. A. Pool Temp. Temp. 5cm Feuchte A. Luftdruck Regen Wind Richtung Richtung Sonnenschein ET UV Solar Taupunkt Windchill Windben Empfang
07.11.2018 00:00 8,3 C 10,6 C 4,4 C 90 % 1009,5 hPa 0,0 l/m 1,8 km/h (1 Bft) S-SW 194 0 min 0,000 mm 0,0 UV-I 0 W/m 6,8 C 8,3 C 3,2 km/h (1 Bft) 93,62 %
07.11.2018 00:02 8,4 C 10,6 C 4,4 C 90 % 1009,6 hPa 0,0 l/m 1,4 km/h (1 Bft) S-SW 194 0 min 0,000 mm 0,0 UV-I 0 W/m 6,9 C 8,4 C 3,2 km/h (1 Bft) 95,12 %
07.11.2018 00:04 8,3 C 10,6 C 4,4 C 90 % 1009,6 hPa 0,0 l/m 2,0 km/h (1 Bft) S-SW 194 0 min 0,000 mm 0,0 UV-I 0 W/m 6,8 C 8,3 C 3,2 km/h (1 Bft) 98,00 %
07.11.2018 00:06 8,3 C 10,6 C 4,4 C 90 % 1009,5 hPa 0,0 l/m 1,4 km/h (1 Bft) S-SW 194 0 min 0,000 mm 0,0 UV-I 0 W/m 6,8 C 8,3 C 1,6 km/h (1 Bft) 97,87 %
07.11.2018 00:08 8,2 C 10,6 C 4,4 C 90 % 1009,5 hPa 0,0 l/m 1,9 km/h (1 Bft) S-SW 194 0 min 0,000 mm 0,0 UV-I 0 W/m 6,7 C 8,2 C 3,2 km/h (1 Bft) 97,87 %
07.11.2018 00:10 8,2 C 10,6 C 4,4 C 91 % 1009,5 hPa 0,0 l/m 1,6 km/h (1 Bft) S-SW 194 0 min 0,000 mm 0,0 UV-I 0 W/m 6,8 C 8,2 C 3,2 km/h (1 Bft) 97,87 %
07.11.2018 00:12 8,2 C 10,6 C 4,4 C 91 % 1009,5 hPa 0,0 l/m 1,6 km/h (1 Bft) S-SW 194 0 min 0,000 mm 0,0 UV-I 0 W/m 6,8 C 8,2 C 3,2 km/h (1 Bft) 95,74 %
07.11.2018 00:14 8,1 C 10,6 C 5,0 C 90 % 1009,5 hPa 0,0 l/m 4,0 km/h (1 Bft) S-SW 194 0 min 0,000 mm 0,0 UV-I 0 W/m 6,6 C 8,1 C 4,8 km/h (1 Bft) 97,87 %
07.11.2018 00:16 7,9 C 10,0 C 5,0 C 91 % 1009,5 hPa 0,0 l/m 4,0 km/h (1 Bft) S-SW 193 0 min 0,000 mm 0,0 UV-I 0 W/m 6,5 C 7,9 C 4,8 km/h (1 Bft) 100,00 %
07.11.2018 00:18 7,8 C 10,0 C 5,0 C 90 % 1009,5 hPa 0,0 l/m 4,4 km/h (1 Bft) S 178 0 min 0,000 mm 0,0 UV-I 0 W/m 6,3 C 7,8 C 6,4 km/h (2 Bft) 100,00 %
07.11.2018 00:20 7,9 C 10,0 C 4,4 C 91 % 1009,5 hPa 0,0 l/m 2,8 km/h (1 Bft) S 178 0 min 0,000 mm 0,0 UV-I 0 W/m 6,5 C 7,9 C 4,8 km/h (1 Bft) 100,00 %
07.11.2018 00:22 8,4 C 10,0 C 4,4 C 93 % 1009,5 hPa 0,0 l/m 2,6 km/h (1 Bft) S 178 0 min 0,000 mm 0,0 UV-I 0 W/m 7,3 C 8,4 C 4,8 km/h (1 Bft) 97,87 %
07.11.2018 00:24 8,5 C 10,6 C 3,9 C 92 % 1009,5 hPa 0,0 l/m 0,5 km/h (0 Bft) S 178 0 min 0,000 mm 0,0 UV-I 0 W/m 7,3 C 8,5 C 1,6 km/h (1 Bft) 95,74 %
07.11.2018 00:26 8,3 C 10,0 C 3,9 C 91 % 1009,6 hPa 0,0 l/m 1,9 km/h (1 Bft) S 178 0 min 0,000 mm 0,0 UV-I 0 W/m 6,9 C 8,3 C 3,2 km/h (1 Bft) 97,92 %
07.11.2018 00:28 8,1 C 10,0 C 4,4 C 91 % 1009,6 hPa 0,0 l/m 1,8 km/h (1 Bft) S 178 0 min 0,000 mm 0,0 UV-I 0 W/m 6,7 C 8,1 C 3,2 km/h (1 Bft) 100,00 %
07.11.2018 00:30 7,9 C 10,0 C 4,4 C 91 % 1009,6 hPa 0,0 l/m 0,0 km/h (0 Bft) S 178 0 min 0,000 mm 0,0 UV-I 0 W/m 6,5 C 7,9 C 1,6 km/h (1 Bft) 100,00 %
07.11.2018 00:32 7,9 C 10,0 C 4,4 C 91 % 1009,7 hPa 0,0 l/m 0,0 km/h (0 Bft) S 178 0 min 0,000 mm 0,0 UV-I 0 W/m 6,5 C 7,9 C 0,0 km/h (0 Bft) 100,00 %
07.11.2018 00:34 7,8 C 10,0 C 4,4 C 91 % 1009,7 hPa 0,0 l/m 1,5 km/h (1 Bft) S 178 0 min 0,000 mm 0,0 UV-I 0 W/m 6,4 C 7,8 C 3,2 km/h (1 Bft) 100,00 %
07.11.2018 00:36 7,8 C 10,0 C 4,4 C 91 % 1009,7 hPa 0,0 l/m 2,1 km/h (1 Bft) S 179 0 min 0,000 mm 0,0 UV-I 0 W/m 6,4 C 7,8 C 3,2 km/h (1 Bft) 100,00 %
07.11.2018 00:38 7,6 C 10,0 C 4,4 C 91 % 1009,7 hPa 0,0 l/m 2,6 km/h (1 Bft) S 179 0 min 0,000 mm 0,0 UV-I 0 W/m 6,2 C 7,6 C 3,2 km/h (1 Bft) 97,87 %
07.11.2018 00:40 7,6 C 10,0 C 4,4 C 92 % 1009,6 hPa 0,0 l/m 3,3 km/h (1 Bft) S 179 0 min 0,000 mm 0,0 UV-I 0 W/m 6,4 C 7,6 C 4,8 km/h (1 Bft) 97,87 %
07.11.2018 00:42 7,4 C 10,0 C 4,4 C 91 % 1009,6 hPa 0,0 l/m 1,2 km/h (1 Bft) S 179 0 min 0,000 mm 0,0 UV-I 0 W/m 6,0 C 7,4 C 3,2 km/h (1 Bft) 100,00 %
07.11.2018 00:44 7,1 C 10,0 C 4,4 C 91 % 1009,6 hPa 0,0 l/m 1,8 km/h (1 Bft) S 179 0 min 0,000 mm 0,0 UV-I 0 W/m 5,7 C 7,1 C 3,2 km/h (1 Bft) 100,00 %
07.11.2018 00:46 7,1 C 10,0 C 4,4 C 92 % 1009,7 hPa 0,0 l/m 1,2 km/h (1 Bft) S 179 0 min 0,000 mm 0,0 UV-I 0 W/m 5,9 C 7,1 C 3,2 km/h (1 Bft) 100,00 %
07.11.2018 00:48 7,2 C 10,0 C 3,9 C 93 % 1009,7 hPa 0,0 l/m 1,2 km/h (1 Bft) S 179 0 min 0,000 mm 0,0 UV-I 0 W/m 6,1 C 7,2 C 1,6 km/h (1 Bft) 100,00 %
07.11.2018 00:50 7,5 C 10,0 C 3,9 C 93 % 1009,7 hPa 0,0 l/m 1,3 km/h (1 Bft) S 179 0 min 0,000 mm 0,0 UV-I 0 W/m 6,4 C 7,5 C 1,6 km/h (1 Bft) 95,74 %
07.11.2018 00:52 7,8 C 10,0 C 3,9 C 94 % 1009,7 hPa 0,0 l/m 1,0 km/h (0 Bft) S 179 0 min 0,000 mm 0,0 UV-I 0 W/m 6,9 C 7,8 C 1,6 km/h (1 Bft) 97,87 %
07.11.2018 00:54 7,8 C 10,0 C 3,3 C 93 % 1009,7 hPa 0,0 l/m 1,9 km/h (1 Bft) S 179 0 min 0,000 mm 0,0 UV-I 0 W/m 6,7 C 7,8 C 3,2 km/h (1 Bft) 97,87 %
07.11.2018 00:56 7,7 C 10,0 C 3,9 C 93 % 1009,7 hPa 0,0 l/m 1,4 km/h (1 Bft) S 179 0 min 0,000 mm 0,0 UV-I 0 W/m 6,6 C 7,7 C 3,2 km/h (1 Bft) 97,87 %
07.11.2018 00:58 7,4 C 10,0 C 4,4 C 92 % 1009,7 hPa 0,0 l/m 0,0 km/h (0 Bft) S 179 0 min 0,000 mm 0,0 UV-I 0 W/m 6,2 C 7,4 C 0,0 km/h (0 Bft) 98,00 %
07.11.2018 01:00 7,2 C 10,0 C 4,4 C 92 % 1009,7 hPa 0,0 l/m 0,4 km/h (0 Bft) S 179 0 min 0,000 mm 0,0 UV-I 0 W/m 6,0 C 7,2 C 3,2 km/h (1 Bft) 97,87 %
07.11.2018 01:02 7,0 C 10,0 C 3,9 C 92 % 1009,8 hPa 0,0 l/m 2,6 km/h (1 Bft) S 179 0 min 0,000 mm 0,0 UV-I 0 W/m 5,8 C 7,0 C 4,8 km/h (1 Bft) 97,87 %
07.11.2018 01:04 7,0 C 10,0 C 3,9 C 92 % 1009,8 hPa 0,0 l/m 2,8 km/h (1 Bft) S 179 0 min 0,000 mm 0,0 UV-I 0 W/m 5,8 C 7,0 C 4,8 km/h (1 Bft) 97,87 %
07.11.2018 01:06 7,3 C 10,0 C 3,9 C 94 % 1009,8 hPa 0,0 l/m 1,0 km/h (0 Bft) S 179 0 min 0,000 mm 0,0 UV-I 0 W/m 6,4 C 7,3 C 1,6 km/h (1 Bft) 97,44 %
07.11.2018 01:08 7,7 C 10,0 C 3,9 C 94 % 1009,8 hPa 0,0 l/m 1,4 km/h (1 Bft) S 179 0 min 0,000 mm 0,0 UV-I 0 W/m 6,8 C 7,7 C 1,6 km/h (1 Bft) 96,00 %
07.11.2018 01:10 7,8 C 10,0 C 4,4 C 93 % 1009,8 hPa 0,0 l/m 1,2 km/h (1 Bft) S 179 0 min 0,000 mm 0,0 UV-I 0 W/m 6,7 C 7,8 C 1,6 km/h (1 Bft) 98,00 %
07.11.2018 01:12 7,8 C 10,0 C 4,4 C 93 % 1009,8 hPa 0,0 l/m 0,2 km/h (0 Bft) S 179 0 min 0,000 mm 0,0 UV-I 0 W/m 6,7 C 7,8 C 1,6 km/h (1 Bft) 95,74 %
07.11.2018 01:14 7,7 C 10,0 C 4,4 C 92 % 1009,8 hPa 0,0 l/m 0,0 km/h (0 Bft) S 179 0 min 0,000 mm 0,0 UV-I 0 W/m 6,5 C 7,7 C 0,0 km/h (0 Bft) 94,74 %
07.11.2018 01:16 7,6 C 10,0 C 4,4 C 93 % 1009,8 hPa 0,0 l/m 0,3 km/h (0 Bft) S 179 0 min 0,000 mm 0,0 UV-I 0 W/m 6,5 C 7,6 C 1,6 km/h (1 Bft) 96,00 %
07.11.2018 01:18 7,3 C 10,0 C 4,4 C 92 % 1009,9 hPa 0,0 l/m 3,2 km/h (1 Bft) S 179 0 min 0,000 mm 0,0 UV-I 0 W/m 6,1 C 7,3 C 4,8 km/h (1 Bft) 93,62 %
07.11.2018 01:20 7,1 C 10,0 C 4,4 C 91 % 1009,9 hPa 0,0 l/m 2,3 km/h (1 Bft) S 178 0 min 0,000 mm 0,0 UV-I 0 W/m 5,7 C 7,1 C 3,2 km/h (1 Bft) 88,00 %
07.11.2018 01:22 7,1 C 10,0 C 4,4 C 93 % 1009,9 hPa 0,0 l/m 3,0 km/h (1 Bft) S 178 0 min 0,000 mm 0,0 UV-I 0 W/m 6,0 C 7,1 C 3,2 km/h (1 Bft) 91,49 %
07.11.2018 01:24 7,1 C 10,0 C 4,4 C 93 % 1009,8 hPa 0,0 l/m 1,8 km/h (1 Bft) S 178 0 min 0,000 mm 0,0 UV-I 0 W/m 6,0 C 7,1 C 3,2 km/h (1 Bft) 93,62 %
07.11.2018 01:26 7,1 C 10,0 C 4,4 C 93 % 1009,9 hPa 0,0 l/m 2,5 km/h (1 Bft) S-SW 202 0 min 0,000 mm 0,0 UV-I 0 W/m 6,0 C 7,1 C 4,8 km/h (1 Bft) 92,00 %
07.11.2018 01:28 6,9 C 10,0 C 4,4 C 92 % 1009,9 hPa 0,0 l/m 2,4 km/h (1 Bft) S-SW 202 0 min 0,000 mm 0,0 UV-I 0 W/m 5,7 C 6,9 C 3,2 km/h (1 Bft) 89,36 %
07.11.2018 01:30 6,8 C 10,0 C 4,4 C 93 % 1009,9 hPa 0,0 l/m 3,4 km/h (1 Bft) S-SW 202 0 min 0,000 mm 0,0 UV-I 0 W/m 5,7 C 6,8 C 4,8 km/h (1 Bft) 91,49 %
07.11.2018 01:32 6,8 C 10,0 C 4,4 C 93 % 1009,9 hPa 0,0 l/m 0,7 km/h (0 Bft) S-SW 202 0 min 0,000 mm 0,0 UV-I 0 W/m 5,7 C 6,8 C 1,6 km/h (1 Bft) 93,62 %
07.11.2018 01:34 6,9 C 10,0 C 4,4 C 93 % 1009,9 hPa 0,0 l/m 1,0 km/h (0 Bft) S-SW 202 0 min 0,000 mm 0,0 UV-I 0 W/m 5,8 C 6,9 C 3,2 km/h (1 Bft) 94,74 %
07.11.2018 01:36 6,8 C 10,0 C 4,4 C 93 % 1010,0 hPa 0,0 l/m 4,7 km/h (1 Bft) S-SW 205 0 min 0,000 mm 0,0 UV-I 0 W/m 5,7 C 6,8 C 6,4 km/h (2 Bft) 93,62 %
07.11.2018 01:38 6,8 C 10,0 C 3,9 C 93 % 1009,9 hPa 0,0 l/m 2,0 km/h (1 Bft) S-SW 205 0 min 0,000 mm 0,0 UV-I 0 W/m 5,7 C 6,8 C 3,2 km/h (1 Bft) 91,67 %
07.11.2018 01:40 6,8 C 10,0 C 3,9 C 93 % 1009,9 hPa 0,0 l/m 1,6 km/h (1 Bft) S-SW 205 0 min 0,000 mm 0,0 UV-I 0 W/m 5,7 C 6,8 C 3,2 km/h (1 Bft) 95,74 %
07.11.2018 01:42 6,9 C 10,0 C 3,9 C 94 % 1009,9 hPa 0,0 l/m 2,8 km/h (1 Bft) S-SW 205 0 min 0,000 mm 0,0 UV-I 0 W/m 6,0 C 6,9 C 4,8 km/h (1 Bft) 95,74 %
07.11.2018 01:44 7,1 C 10,0 C 4,4 C 94 % 1009,9 hPa 0,0 l/m 4,2 km/h (1 Bft) S-SW 205 0 min 0,000 mm 0,0 UV-I 0 W/m 6,2 C 7,1 C 6,4 km/h (2 Bft) 93,62 %
07.11.2018 01:46 7,1 C 10,0 C 5,0 C 94 % 1009,9 hPa 0,0 l/m 5,5 km/h (1 Bft) S-SW 205 0 min 0,000 mm 0,0 UV-I 0 W/m 6,2 C 7,1 C 6,4 km/h (2 Bft) 94,00 %
07.11.2018 01:48 6,9 C 10,0 C 5,0 C 93 % 1010,0 hPa 0,0 l/m 5,5 km/h (1 Bft) S-SW 205 0 min 0,000 mm 0,0 UV-I 0 W/m 5,8 C 6,9 C 6,4 km/h (2 Bft) 95,83 %
07.11.2018 01:50 6,9 C 10,0 C 4,4 C 93 % 1010,0 hPa 0,0 l/m 4,0 km/h (1 Bft) S-SW 205 0 min 0,000 mm 0,0 UV-I 0 W/m 5,8 C 6,9 C 4,8 km/h (1 Bft) 92,00 %
07.11.2018 01:52 7,1 C 10,0 C 4,4 C 94 % 1010,0 hPa 0,0 l/m 3,5 km/h (1 Bft) S-SW 205 0 min 0,000 mm 0,0 UV-I 0 W/m 6,2 C 7,1 C 4,8 km/h (1 Bft) 93,62 %
07.11.2018 01:54 7,1 C 10,0 C 3,9 C 94 % 1010,1 hPa 0,0 l/m 3,2 km/h (1 Bft) S-SW 205 0 min 0,000 mm 0,0 UV-I 0 W/m 6,2 C 7,1 C 4,8 km/h (1 Bft) 95,74 %
07.11.2018 01:56 7,1 C 10,0 C 3,9 C 94 % 1010,0 hPa 0,0 l/m 3,1 km/h (1 Bft) S-SW 205 0 min 0,000 mm 0,0 UV-I 0 W/m 6,2 C 7,1 C 4,8 km/h (1 Bft) 94,74 %
07.11.2018 01:58 7,1 C 10,0 C 3,9 C 94 % 1010,0 hPa 0,0 l/m 5,2 km/h (1 Bft) S-SW 205 0 min 0,000 mm 0,0 UV-I 0 W/m 6,2 C 7,1 C 6,4 km/h (2 Bft) 100,00 %
07.11.2018 02:00 6,9 C 10,0 C 4,4 C 93 % 1010,0 hPa 0,0 l/m 5,6 km/h (1 Bft) S-SW 205 0 min 0,000 mm 0,0 UV-I 0 W/m 5,8 C 6,9 C 6,4 km/h (2 Bft) 97,87 %
07.11.2018 02:02 6,8 C 10,0 C 4,4 C 93 % 1010,0 hPa 0,0 l/m 4,4 km/h (1 Bft) S-SW 205 0 min 0,000 mm 0,0 UV-I 0 W/m 5,7 C 6,8 C 4,8 km/h (1 Bft) 100,00 %
07.11.2018 02:04 6,7 C 10,0 C 3,9 C 93 % 1010,0 hPa 0,0 l/m 4,7 km/h (1 Bft) S-SW 205 0 min 0,000 mm 0,0 UV-I 0 W/m 5,6 C 6,7 C 6,4 km/h (2 Bft) 100,00 %
07.11.2018 02:06 6,7 C 10,0 C 3,9 C 94 % 1010,1 hPa 0,0 l/m 3,8 km/h (1 Bft) S-SW 205 0 min 0,000 mm 0,0 UV-I 0 W/m 5,8 C 6,7 C 4,8 km/h (1 Bft) 100,00 %
07.11.2018 02:08 6,7 C 10,0 C 3,9 C 94 % 1010,1 hPa 0,0 l/m 4,3 km/h (1 Bft) S-SW 205 0 min 0,000 mm 0,0 UV-I 0 W/m 5,8 C 6,7 C 4,8 km/h (1 Bft) 100,00 %
07.11.2018 02:10 6,7 C 10,0 C 3,9 C 94 % 1010,1 hPa 0,0 l/m 4,0 km/h (1 Bft) S-SW 205 0 min 0,000 mm 0,0 UV-I 0 W/m 5,8 C 6,7 C 4,8 km/h (1 Bft) 100,00 %
07.11.2018 02:12 6,8 C 10,0 C 3,9 C 94 % 1010,1 hPa 0,0 l/m 3,9 km/h (1 Bft) S-SW 205 0 min 0,000 mm 0,0 UV-I 0 W/m 5,9 C 6,8 C 6,4 km/h (2 Bft) 97,87 %
07.11.2018 02:14 6,8 C 10,0 C 3,9 C 94 % 1010,1 hPa 0,0 l/m 3,8 km/h (1 Bft) S-SW 205 0 min 0,000 mm 0,0 UV-I 0 W/m 5,9 C 6,8 C 6,4 km/h (2 Bft) 100,00 %
07.11.2018 02:16 7,0 C 10,0 C 3,3 C 94 % 1010,1 hPa 0,0 l/m 4,3 km/h (1 Bft) S-SW 205 0 min 0,000 mm 0,0 UV-I 0 W/m 6,1 C 7,0 C 4,8 km/h (1 Bft) 95,74 %
07.11.2018 02:18 7,1 C 10,0 C 3,9 C 94 % 1010,1 hPa 0,0 l/m 5,5 km/h (1 Bft) SW 217 0 min 0,000 mm 0,0 UV-I 0 W/m 6,2 C 7,1 C 6,4 km/h (2 Bft) 97,87 %
07.11.2018 02:20 6,8 C 10,0 C 4,4 C 93 % 1010,1 hPa 0,0 l/m 5,4 km/h (1 Bft) SW 217 0 min 0,000 mm 0,0 UV-I 0 W/m 5,7 C 6,8 C 6,4 km/h (2 Bft) 97,87 %
07.11.2018 02:22 6,7 C 10,0 C 3,9 C 94 % 1010,2 hPa 0,0 l/m 3,9 km/h (1 Bft) SW 217 0 min 0,000 mm 0,0 UV-I 0 W/m 5,8 C 6,7 C 4,8 km/h (1 Bft) 95,74 %
07.11.2018 02:24 6,7 C 10,0 C 3,9 C 94 % 1010,2 hPa 0,0 l/m 5,2 km/h (1 Bft) SW 217 0 min 0,000 mm 0,0 UV-I 0 W/m 5,8 C 6,7 C 6,4 km/h (2 Bft) 100,00 %
07.11.2018 02:26 6,6 C 10,0 C 4,4 C 94 % 1010,2 hPa 0,0 l/m 5,9 km/h (2 Bft) SW 217 0 min 0,000 mm 0,0 UV-I 0 W/m 5,7 C 6,6 C 6,4 km/h (2 Bft) 95,83 %
07.11.2018 02:28 6,4 C 10,0 C 4,4 C 94 % 1010,2 hPa 0,0 l/m 5,5 km/h (1 Bft) SW 217 0 min 0,000 mm 0,0 UV-I 0 W/m 5,5 C 6,4 C 6,4 km/h (2 Bft) 98,00 %
07.11.2018 02:30 6,3 C 10,0 C 4,4 C 94 % 1010,2 hPa 0,0 l/m 6,4 km/h (2 Bft) SW 217 0 min 0,000 mm 0,0 UV-I 0 W/m 5,4 C 6,3 C 8,0 km/h (2 Bft) 93,62 %
07.11.2018 02:32 6,4 C 10,0 C 5,0 C 94 % 1010,3 hPa 0,0 l/m 7,7 km/h (2 Bft) SW 219 0 min 0,000 mm 0,0 UV-I 0 W/m 5,5 C 5,3 C 9,7 km/h (2 Bft) 94,74 %
07.11.2018 02:34 6,4 C 10,0 C 5,0 C 94 % 1010,5 hPa 0,0 l/m 11,2 km/h (2 Bft) SW 232 0 min 0,000 mm 0,0 UV-I 0 W/m 5,5 C 2,8 C 14,5 km/h (3 Bft) 97,87 %
07.11.2018 02:36 6,4 C 10,0 C 5,0 C 94 % 1010,5 hPa 0,0 l/m 9,3 km/h (2 Bft) S-SW 197 0 min 0,000 mm 0,0 UV-I 0 W/m 5,5 C 4,1 C 14,5 km/h (3 Bft) 95,74 %
07.11.2018 02:38 6,2 C 10,0 C 5,0 C 94 % 1010,5 hPa 0,0 l/m 7,4 km/h (2 Bft) S-SW 209 0 min 0,000 mm 0,0 UV-I 0 W/m 5,3 C 5,4 C 9,7 km/h (2 Bft) 97,87 %
07.11.2018 02:40 6,3 C 10,0 C 5,0 C 94 % 1010,6 hPa 0,0 l/m 7,6 km/h (2 Bft) SW 214 0 min 0,000 mm 0,0 UV-I 0 W/m 5,4 C 5,3 C 9,7 km/h (2 Bft) 98,00 %
07.11.2018 02:42 6,5 C 10,0 C 5,0 C 94 % 1010,6 hPa 0,0 l/m 7,4 km/h (2 Bft) SW 215 0 min 0,000 mm 0,0 UV-I 0 W/m 5,6 C 5,7 C 9,7 km/h (2 Bft) 97,87 %
07.11.2018 02:44 6,6 C 10,0 C 5,6 C 95 % 1010,6 hPa 0,0 l/m 7,5 km/h (2 Bft) S-SW 198 0 min 0,000 mm 0,0 UV-I 0 W/m 5,9 C 5,7 C 11,3 km/h (2 Bft) 95,74 %
07.11.2018 02:46 6,7 C 10,0 C 5,6 C 95 % 1010,6 hPa 0,0 l/m 7,0 km/h (2 Bft) S-SW 194 0 min 0,000 mm 0,0 UV-I 0 W/m 6,0 C 6,2 C 9,7 km/h (2 Bft) 100,00 %
07.11.2018 02:48 6,7 C 10,0 C 5,6 C 95 % 1010,6 hPa 0,0 l/m 6,6 km/h (2 Bft) S-SW 198 0 min 0,000 mm 0,0 UV-I 0 W/m 6,0 C 6,6 C 9,7 km/h (2 Bft) 100,00 %
07.11.2018 02:50 6,8 C 10,0 C 5,6 C 95 % 1010,6 hPa 0,0 l/m 7,3 km/h (2 Bft) S-SW 202 0 min 0,000 mm 0,0 UV-I 0 W/m 6,1 C 6,1 C 9,7 km/h (2 Bft) 97,73 %
07.11.2018 02:52 6,9 C 10,0 C 5,6 C 95 % 1010,6 hPa 0,0 l/m 7,6 km/h (2 Bft) S-SW 213 0 min 0,000 mm 0,0 UV-I 0 W/m 6,2 C 5,9 C 9,7 km/h (2 Bft) 100,00 %
07.11.2018 02:54 6,9 C 10,0 C 5,6 C 95 % 1010,6 hPa 0,0 l/m 8,5 km/h (2 Bft) SW 214 0 min 0,000 mm 0,0 UV-I 0 W/m 6,2 C 5,2 C 9,7 km/h (2 Bft) 100,00 %
07.11.2018 02:56 6,9 C 10,0 C 5,6 C 95 % 1010,6 hPa 0,0 l/m 8,3 km/h (2 Bft) S-SW 210 0 min 0,000 mm 0,0 UV-I 0 W/m 6,2 C 5,4 C 11,3 km/h (2 Bft) 96,00 %
07.11.2018 02:58 6,9 C 10,0 C 5,6 C 94 % 1010,6 hPa 0,0 l/m 5,7 km/h (1 Bft) S 185 0 min 0,000 mm 0,0 UV-I 0 W/m 6,0 C 6,9 C 8,0 km/h (2 Bft) 100,00 %
07.11.2018 03:00 6,9 C 10,0 C 5,6 C 94 % 1010,6 hPa 0,0 l/m 6,2 km/h (2 Bft) S 180 0 min 0,000 mm 0,0 UV-I 0 W/m 6,0 C 6,9 C 8,0 km/h (2 Bft) 100,00 %
07.11.2018 03:02 6,9 C 10,0 C 5,6 C 94 % 1010,5 hPa 0,0 l/m 4,8 km/h (1 Bft) SO 131 0 min 0,000 mm 0,0 UV-I 0 W/m 6,0 C 6,9 C 8,0 km/h (2 Bft) 100,00 %
07.11.2018 03:04 6,8 C 10,0 C 5,0 C 94 % 1010,4 hPa 0,0 l/m 5,3 km/h (1 Bft) O-SO 119 0 min 0,000 mm 0,0 UV-I 0 W/m 5,9 C 6,8 C 8,0 km/h (2 Bft) 100,00 %
07.11.2018 03:06 7,1 C 10,0 C 5,6 C 95 % 1010,6 hPa 0,0 l/m 5,2 km/h (1 Bft) W-SW 242 0 min 0,000 mm 0,0 UV-I 0 W/m 6,4 C 7,1 C 19,3 km/h (3 Bft) 97,87 %
07.11.2018 03:08 7,0 C 10,0 C 5,6 C 94 % 1010,7 hPa 0,0 l/m 12,9 km/h (3 Bft) S-SW 205 0 min 0,000 mm 0,0 UV-I 0 W/m 6,1 C 2,6 C 22,5 km/h (4 Bft) 100,00 %
07.11.2018 03:10 6,8 C 10,0 C 5,6 C 94 % 1010,6 hPa 0,0 l/m 8,0 km/h (2 Bft) S-SW 199 0 min 0,000 mm 0,0 UV-I 0 W/m 5,9 C 5,5 C 11,3 km/h (2 Bft) 97,87 %
07.11.2018 03:12 6,7 C 10,0 C 5,6 C 94 % 1010,6 hPa 0,0 l/m 7,0 km/h (2 Bft) S-SW 201 0 min 0,000 mm 0,0 UV-I 0 W/m 5,8 C 6,2 C 9,7 km/h (2 Bft) 100,00 %
07.11.2018 03:14 6,7 C 10,0 C 5,6 C 94 % 1010,6 hPa 0,0 l/m 6,3 km/h (2 Bft) S-SW 196 0 min 0,000 mm 0,0 UV-I 0 W/m 5,8 C 6,7 C 9,7 km/h (2 Bft) 95,74 %
07.11.2018 03:16 6,8 C 10,0 C 5,6 C 94 % 1010,7 hPa 0,0 l/m 5,3 km/h (1 Bft) SW 220 0 min 0,000 mm 0,0 UV-I 0 W/m 5,9 C 6,8 C 6,4 km/h (2 Bft) 97,87 %
07.11.2018 03:18 6,8 C 10,0 C 5,6 C 94 % 1010,7 hPa 0,0 l/m 4,9 km/h (1 Bft) SW 215 0 min 0,000 mm 0,0 UV-I 0 W/m 5,9 C 6,8 C 6,4 km/h (2 Bft) 97,87 %
07.11.2018 03:20 6,8 C 10,0 C 5,0 C 94 % 1010,7 hPa 0,0 l/m 4,0 km/h (1 Bft) SW 214 0 min 0,000 mm 0,0 UV-I 0 W/m 5,9 C 6,8 C 6,4 km/h (2 Bft) 97,87 %
07.11.2018 03:22 6,8 C 10,0 C 5,0 C 94 % 1010,7 hPa 0,0 l/m 5,9 km/h (2 Bft) S-SW 203 0 min 0,000 mm 0,0 UV-I 0 W/m 5,9 C 6,8 C 8,0 km/h (2 Bft) 97,87 %
07.11.2018 03:24 6,9 C 10,0 C 5,6 C 95 % 1010,8 hPa 0,0 l/m 7,8 km/h (2 Bft) SW 217 0 min 0,000 mm 0,0 UV-I 0 W/m 6,2 C 5,8 C 9,7 km/h (2 Bft) 100,00 %
07.11.2018 03:26 6,9 C 10,0 C 5,6 C 95 % 1010,8 hPa 0,0 l/m 7,0 km/h (2 Bft) SW 215 0 min 0,000 mm 0,0 UV-I 0 W/m 6,2 C 6,4 C 9,7 km/h (2 Bft) 100,00 %
07.11.2018 03:28 6,9 C 10,0 C 5,6 C 95 % 1010,8 hPa 0,0 l/m 6,7 km/h (2 Bft) S 185 0 min 0,000 mm 0,0 UV-I 0 W/m 6,2 C 6,7 C 9,7 km/h (2 Bft) 97,87 %
07.11.2018 03:30 6,8 C 10,0 C 5,6 C 94 % 1010,7 hPa 0,0 l/m 7,8 km/h (2 Bft) S 171 0 min 0,000 mm 0,0 UV-I 0 W/m 5,9 C 5,6 C 9,7 km/h (2 Bft) 100,00 %
07.11.2018 03:32 6,9 C 10,0 C 5,6 C 94 % 1010,8 hPa 0,0 l/m 7,7 km/h (2 Bft) S-SW 209 0 min 0,000 mm 0,0 UV-I 0 W/m 6,0 C 5,8 C 9,7 km/h (2 Bft) 100,00 %
07.11.2018 03:34 6,9 C 10,0 C 5,6 C 94 % 1010,8 hPa 0,0 l/m 7,5 km/h (2 Bft) S 181 0 min 0,000 mm 0,0 UV-I 0 W/m 6,0 C 6,0 C 9,7 km/h (2 Bft) 100,00 %
07.11.2018 03:36 7,0 C 10,0 C 5,6 C 95 % 1010,8 hPa 0,0 l/m 6,0 km/h (2 Bft) S-SW 210 0 min 0,000 mm 0,0 UV-I 0 W/m 6,3 C 7,0 C 9,7 km/h (2 Bft) 100,00 %
07.11.2018 03:38 7,1 C 10,0 C 5,6 C 94 % 1010,9 hPa 0,0 l/m 6,2 km/h (2 Bft) SW 227 0 min 0,000 mm 0,0 UV-I 0 W/m 6,2 C 7,1 C 8,0 km/h (2 Bft) 97,87 %
07.11.2018 03:40 7,1 C 10,0 C 5,6 C 94 % 1010,9 hPa 0,0 l/m 5,3 km/h (1 Bft) SW 217 0 min 0,000 mm 0,0 UV-I 0 W/m 6,2 C 7,1 C 8,0 km/h (2 Bft) 97,87 %
07.11.2018 03:42 7,1 C 10,0 C 5,6 C 94 % 1010,9 hPa 0,0 l/m 5,6 km/h (1 Bft) S-SW 209 0 min 0,000 mm 0,0 UV-I 0 W/m 6,2 C 7,1 C 8,0 km/h (2 Bft) 97,87 %
07.11.2018 03:44 6,9 C 10,0 C 5,6 C 94 % 1010,9 hPa 0,0 l/m 6,2 km/h (2 Bft) S-SW 209 0 min 0,000 mm 0,0 UV-I 0 W/m 6,0 C 6,9 C 8,0 km/h (2 Bft) 95,83 %
07.11.2018 03:46 6,8 C 10,0 C 5,6 C 94 % 1010,8 hPa 0,0 l/m 6,9 km/h (2 Bft) S-SW 211 0 min 0,000 mm 0,0 UV-I 0 W/m 5,9 C 6,4 C 8,0 km/h (2 Bft) 94,74 %
07.11.2018 03:48 6,8 C 10,0 C 5,6 C 94 % 1010,8 hPa 0,0 l/m 6,5 km/h (2 Bft) SW 224 0 min 0,000 mm 0,0 UV-I 0 W/m 5,9 C 6,7 C 8,0 km/h (2 Bft) 96,00 %
07.11.2018 03:50 6,8 C 10,0 C 5,6 C 94 % 1010,8 hPa 0,0 l/m 6,5 km/h (2 Bft) SW 223 0 min 0,000 mm 0,0 UV-I 0 W/m 5,9 C 6,7 C 9,7 km/h (2 Bft) 95,74 %
07.11.2018 03:52 6,9 C 10,0 C 5,6 C 95 % 1010,8 hPa 0,0 l/m 5,6 km/h (1 Bft) SW 227 0 min 0,000 mm 0,0 UV-I 0 W/m 6,2 C 6,9 C 8,0 km/h (2 Bft) 95,74 %
07.11.2018 03:54 6,9 C 10,0 C 5,0 C 95 % 1010,9 hPa 0,0 l/m 5,5 km/h (1 Bft) S-SW 210 0 min 0,000 mm 0,0 UV-I 0 W/m 6,2 C 6,9 C 8,0 km/h (2 Bft) 95,74 %
07.11.2018 03:56 6,9 C 10,0 C 5,0 C 95 % 1010,9 hPa 0,0 l/m 2,9 km/h (1 Bft) S-SW 210 0 min 0,000 mm 0,0 UV-I 0 W/m 6,2 C 6,9 C 4,8 km/h (1 Bft) 93,62 %
07.11.2018 03:58 6,9 C 10,0 C 5,0 C 94 % 1010,9 hPa 0,0 l/m 4,3 km/h (1 Bft) S-SW 201 0 min 0,000 mm 0,0 UV-I 0 W/m 6,0 C 6,9 C 6,4 km/h (2 Bft) 93,62 %
07.11.2018 04:00 6,9 C 10,0 C 4,4 C 94 % 1010,9 hPa 0,0 l/m 2,1 km/h (1 Bft) S-SW 201 0 min 0,000 mm 0,0 UV-I 0 W/m 6,0 C 6,9 C 4,8 km/h (1 Bft) 95,74 %
07.11.2018 04:02 7,1 C 10,0 C 4,4 C 95 % 1010,9 hPa 0,0 l/m 3,7 km/h (1 Bft) S-SW 207 0 min 0,000 mm 0,0 UV-I 0 W/m 6,4 C 7,1 C 6,4 km/h (2 Bft) 97,44 %
07.11.2018 04:04 7,2 C 10,0 C 5,0 C 95 % 1010,8 hPa 0,0 l/m 6,5 km/h (2 Bft) S-SW 202 0 min 0,000 mm 0,0 UV-I 0 W/m 6,5 C 7,1 C 9,7 km/h (2 Bft) 97,87 %
07.11.2018 04:06 7,2 C 10,0 C 5,6 C 95 % 1010,8 hPa 0,0 l/m 6,4 km/h (2 Bft) S-SW 208 0 min 0,000 mm 0,0 UV-I 0 W/m 6,5 C 7,2 C 8,0 km/h (2 Bft) 97,87 %
07.11.2018 04:08 7,2 C 10,0 C 5,6 C 94 % 1010,8 hPa 0,0 l/m 5,9 km/h (2 Bft) S-SW 204 0 min 0,000 mm 0,0 UV-I 0 W/m 6,3 C 7,2 C 8,0 km/h (2 Bft) 96,00 %
07.11.2018 04:10 7,2 C 10,0 C 5,6 C 94 % 1010,9 hPa 0,0 l/m 5,4 km/h (1 Bft) S-SW 210 0 min 0,000 mm 0,0 UV-I 0 W/m 6,3 C 7,2 C 6,4 km/h (2 Bft) 97,87 %
07.11.2018 04:12 7,2 C 10,0 C 5,0 C 94 % 1010,9 hPa 0,0 l/m 5,2 km/h (1 Bft) S-SW 213 0 min 0,000 mm 0,0 UV-I 0 W/m 6,3 C 7,2 C 6,4 km/h (2 Bft) 95,74 %
07.11.2018 04:14 7,1 C 10,0 C 5,0 C 94 % 1010,9 hPa 0,0 l/m 5,5 km/h (1 Bft) SW 225 0 min 0,000 mm 0,0 UV-I 0 W/m 6,2 C 7,1 C 6,4 km/h (2 Bft) 100,00 %
07.11.2018 04:16 7,1 C 10,0 C 5,0 C 94 % 1010,9 hPa 0,0 l/m 6,2 km/h (2 Bft) S-SW 211 0 min 0,000 mm 0,0 UV-I 0 W/m 6,2 C 7,1 C 8,0 km/h (2 Bft) 100,00 %
07.11.2018 04:18 6,9 C 10,0 C 5,0 C 94 % 1010,9 hPa 0,0 l/m 6,6 km/h (2 Bft) S-SW 210 0 min 0,000 mm 0,0 UV-I 0 W/m 6,0 C 6,8 C 8,0 km/h (2 Bft) 97,87 %
07.11.2018 04:20 6,8 C 10,0 C 5,0 C 94 % 1010,9 hPa 0,0 l/m 6,7 km/h (2 Bft) S-SW 209 0 min 0,000 mm 0,0 UV-I 0 W/m 5,9 C 6,6 C 8,0 km/h (2 Bft) 96,00 %
07.11.2018 04:22 6,8 C 10,0 C 5,0 C 94 % 1010,9 hPa 0,0 l/m 6,8 km/h (2 Bft) S-SW 209 0 min 0,000 mm 0,0 UV-I 0 W/m 5,9 C 6,5 C 8,0 km/h (2 Bft) 97,87 %
07.11.2018 04:24 6,9 C 10,0 C 5,6 C 95 % 1011,0 hPa 0,0 l/m 6,0 km/h (2 Bft) S-SW 208 0 min 0,000 mm 0,0 UV-I 0 W/m 6,2 C 6,9 C 8,0 km/h (2 Bft) 97,87 %
07.11.2018 04:26 7,0 C 10,0 C 5,0 C 95 % 1011,0 hPa 0,0 l/m 6,5 km/h (2 Bft) SW 216 0 min 0,000 mm 0,0 UV-I 0 W/m 6,3 C 6,9 C 9,7 km/h (2 Bft) 100,00 %
07.11.2018 04:28 7,1 C 10,0 C 5,0 C 95 % 1011,0 hPa 0,0 l/m 6,6 km/h (2 Bft) S-SW 213 0 min 0,000 mm 0,0 UV-I 0 W/m 6,4 C 7,0 C 9,7 km/h (2 Bft) 95,74 %
07.11.2018 04:30 7,2 C 10,0 C 5,0 C 95 % 1011,1 hPa 0,0 l/m 5,8 km/h (2 Bft) SW 219 0 min 0,000 mm 0,0 UV-I 0 W/m 6,5 C 7,2 C 8,0 km/h (2 Bft) 100,00 %
07.11.2018 04:32 7,3 C 10,0 C 5,6 C 95 % 1011,1 hPa 0,0 l/m 5,5 km/h (1 Bft) SW 219 0 min 0,000 mm 0,0 UV-I 0 W/m 6,6 C 7,3 C 8,0 km/h (2 Bft) 93,88 %
07.11.2018 04:34 7,4 C 10,0 C 5,6 C 95 % 1011,1 hPa 0,0 l/m 5,9 km/h (2 Bft) S-SW 211 0 min 0,000 mm 0,0 UV-I 0 W/m 6,7 C 7,4 C 6,4 km/h (2 Bft) 97,87 %
07.11.2018 04:36 7,5 C 10,0 C 5,6 C 95 % 1011,1 hPa 0,0 l/m 5,2 km/h (1 Bft) SW 224 0 min 0,000 mm 0,0 UV-I 0 W/m 6,8 C 7,5 C 8,0 km/h (2 Bft) 95,74 %
07.11.2018 04:38 7,5 C 10,0 C 5,6 C 94 % 1011,1 hPa 0,0 l/m 6,2 km/h (2 Bft) SW 217 0 min 0,000 mm 0,0 UV-I 0 W/m 6,6 C 7,5 C 8,0 km/h (2 Bft) 100,00 %
07.11.2018 04:40 7,6 C 10,0 C 5,6 C 94 % 1011,0 hPa 0,0 l/m 6,8 km/h (2 Bft) S-SW 202 0 min 0,000 mm 0,0 UV-I 0 W/m 6,7 C 7,3 C 8,0 km/h (2 Bft) 100,00 %
07.11.2018 04:42 7,5 C 10,0 C 5,6 C 94 % 1011,1 hPa 0,0 l/m 7,0 km/h (2 Bft) S-SW 210 0 min 0,000 mm 0,0 UV-I 0 W/m 6,6 C 7,0 C 9,7 km/h (2 Bft) 100,00 %
07.11.2018 04:44 7,6 C 10,0 C 5,6 C 94 % 1011,0 hPa 0,0 l/m 5,1 km/h (1 Bft) SW 217 0 min 0,000 mm 0,0 UV-I 0 W/m 6,7 C 7,6 C 6,4 km/h (2 Bft) 100,00 %
07.11.2018 04:46 7,6 C 10,0 C 5,6 C 94 % 1011,1 hPa 0,0 l/m 6,0 km/h (2 Bft) S-SW 204 0 min 0,000 mm 0,0 UV-I 0 W/m 6,7 C 7,6 C 9,7 km/h (2 Bft) 97,87 %
07.11.2018 04:48 7,6 C 10,0 C 6,1 C 94 % 1011,1 hPa 0,0 l/m 6,7 km/h (2 Bft) S-SW 196 0 min 0,000 mm 0,0 UV-I 0 W/m 6,7 C 7,4 C 9,7 km/h (2 Bft) 100,00 %
07.11.2018 04:50 7,6 C 10,0 C 6,1 C 94 % 1011,1 hPa 0,0 l/m 5,5 km/h (1 Bft) S-SW 193 0 min 0,000 mm 0,0 UV-I 0 W/m 6,7 C 7,6 C 8,0 km/h (2 Bft) 95,74 %
07.11.2018 04:52 7,6 C 10,0 C 5,6 C 94 % 1011,2 hPa 0,0 l/m 4,7 km/h (1 Bft) S-SW 206 0 min 0,000 mm 0,0 UV-I 0 W/m 6,7 C 7,6 C 6,4 km/h (2 Bft) 97,87 %
07.11.2018 04:54 7,7 C 10,0 C 5,6 C 94 % 1011,2 hPa 0,0 l/m 5,2 km/h (1 Bft) S-SW 199 0 min 0,000 mm 0,0 UV-I 0 W/m 6,8 C 7,7 C 6,4 km/h (2 Bft) 97,22 %
07.11.2018 04:56 7,6 C 10,0 C 5,6 C 93 % 1011,2 hPa 0,0 l/m 4,6 km/h (1 Bft) S-SW 198 0 min 0,000 mm 0,0 UV-I 0 W/m 6,5 C 7,6 C 6,4 km/h (2 Bft) 98,00 %
07.11.2018 04:58 7,4 C 10,0 C 5,0 C 93 % 1011,2 hPa 0,0 l/m 4,4 km/h (1 Bft) S-SW 198 0 min 0,000 mm 0,0 UV-I 0 W/m 6,3 C 7,4 C 4,8 km/h (1 Bft) 97,87 %
07.11.2018 05:00 7,4 C 10,0 C 4,4 C 93 % 1011,3 hPa 0,0 l/m 3,5 km/h (1 Bft) S-SW 198 0 min 0,000 mm 0,0 UV-I 0 W/m 6,3 C 7,4 C 4,8 km/h (1 Bft) 94,00 %
07.11.2018 05:02 7,4 C 10,0 C 4,4 C 93 % 1011,2 hPa 0,0 l/m 2,9 km/h (1 Bft) S-SW 198 0 min 0,000 mm 0,0 UV-I 0 W/m 6,3 C 7,4 C 3,2 km/h (1 Bft) 93,62 %
07.11.2018 05:04 7,3 C 10,0 C 3,9 C 94 % 1011,2 hPa 0,0 l/m 4,0 km/h (1 Bft) S-SW 198 0 min 0,000 mm 0,0 UV-I 0 W/m 6,4 C 7,3 C 4,8 km/h (1 Bft) 91,49 %
07.11.2018 05:06 7,3 C 10,0 C 3,9 C 94 % 1011,1 hPa 0,0 l/m 4,3 km/h (1 Bft) SW 216 0 min 0,000 mm 0,0 UV-I 0 W/m 6,4 C 7,3 C 6,4 km/h (2 Bft) 95,74 %
07.11.2018 05:08 7,3 C 10,0 C 3,9 C 94 % 1011,1 hPa 0,0 l/m 5,3 km/h (1 Bft) SW 216 0 min 0,000 mm 0,0 UV-I 0 W/m 6,4 C 7,3 C 6,4 km/h (2 Bft) 95,74 %
07.11.2018 05:10 7,2 C 10,0 C 4,4 C 93 % 1011,1 hPa 0,0 l/m 3,9 km/h (1 Bft) SW 216 0 min 0,000 mm 0,0 UV-I 0 W/m 6,1 C 7,2 C 6,4 km/h (2 Bft) 95,74 %
07.11.2018 05:12 7,0 C 10,0 C 3,9 C 93 % 1011,2 hPa 0,0 l/m 2,2 km/h (1 Bft) SW 216 0 min 0,000 mm 0,0 UV-I 0 W/m 5,9 C 7,0 C 3,2 km/h (1 Bft) 95,74 %
07.11.2018 05:14 6,9 C 10,0 C 3,3 C 94 % 1011,2 hPa 0,0 l/m 2,3 km/h (1 Bft) SW 216 0 min 0,000 mm 0,0 UV-I 0 W/m 6,0 C 6,9 C 3,2 km/h (1 Bft) 95,74 %
07.11.2018 05:16 6,9 C 10,0 C 3,9 C 94 % 1011,2 hPa 0,0 l/m 3,9 km/h (1 Bft) SW 215 0 min 0,000 mm 0,0 UV-I 0 W/m 6,0 C 6,9 C 4,8 km/h (1 Bft) 96,15 %
07.11.2018 05:18 6,8 C 10,0 C 4,4 C 94 % 1011,2 hPa 0,0 l/m 5,2 km/h (1 Bft) SW 215 0 min 0,000 mm 0,0 UV-I 0 W/m 5,9 C 6,8 C 6,4 km/h (2 Bft) 94,59 %
07.11.2018 05:20 6,7 C 10,0 C 3,9 C 94 % 1011,2 hPa 0,0 l/m 4,6 km/h (1 Bft) SW 215 0 min 0,000 mm 0,0 UV-I 0 W/m 5,8 C 6,7 C 6,4 km/h (2 Bft) 97,87 %
07.11.2018 05:22 6,7 C 10,0 C 3,9 C 94 % 1011,1 hPa 0,0 l/m 4,9 km/h (1 Bft) SW 215 0 min 0,000 mm 0,0 UV-I 0 W/m 5,8 C 6,7 C 6,4 km/h (2 Bft) 93,62 %
07.11.2018 05:24 6,8 C 10,0 C 3,3 C 94 % 1011,2 hPa 0,0 l/m 3,6 km/h (1 Bft) SW 215 0 min 0,000 mm 0,0 UV-I 0 W/m 5,9 C 6,8 C 4,8 km/h (1 Bft) 97,87 %
07.11.2018 05:26 6,7 C 10,0 C 3,3 C 94 % 1011,2 hPa 0,0 l/m 2,6 km/h (1 Bft) SW 215 0 min 0,000 mm 0,0 UV-I 0 W/m 5,8 C 6,7 C 4,8 km/h (1 Bft) 97,87 %
07.11.2018 05:28 6,7 C 10,0 C 3,3 C 94 % 1011,2 hPa 0,0 l/m 2,6 km/h (1 Bft) SW 215 0 min 0,000 mm 0,0 UV-I 0 W/m 5,8 C 6,7 C 3,2 km/h (1 Bft) 95,74 %
07.11.2018 05:30 6,9 C 10,0 C 2,8 C 95 % 1011,2 hPa 0,0 l/m 3,2 km/h (1 Bft) SW 215 0 min 0,000 mm 0,0 UV-I 0 W/m 6,2 C 6,9 C 4,8 km/h (1 Bft) 97,87 %
07.11.2018 05:32 7,0 C 10,0 C 2,8 C 95 % 1011,2 hPa 0,0 l/m 3,8 km/h (1 Bft) SW 215 0 min 0,000 mm 0,0 UV-I 0 W/m 6,3 C 7,0 C 4,8 km/h (1 Bft) 93,75 %
07.11.2018 05:34 7,2 C 10,0 C 2,8 C 95 % 1011,2 hPa 0,0 l/m 3,7 km/h (1 Bft) SW 215 0 min 0,000 mm 0,0 UV-I 0 W/m 6,5 C 7,2 C 4,8 km/h (1 Bft) 97,87 %
07.11.2018 05:36 7,2 C 10,0 C 3,3 C 95 % 1011,2 hPa 0,0 l/m 3,8 km/h (1 Bft) SW 214 0 min 0,000 mm 0,0 UV-I 0 W/m 6,5 C 7,2 C 4,8 km/h (1 Bft) 97,87 %
07.11.2018 05:38 7,3 C 10,0 C 3,3 C 95 % 1011,3 hPa 0,0 l/m 3,8 km/h (1 Bft) S 175 0 min 0,000 mm 0,0 UV-I 0 W/m 6,6 C 7,3 C 4,8 km/h (1 Bft) 98,00 %
07.11.2018 05:40 7,2 C 10,0 C 3,3 C 95 % 1011,3 hPa 0,0 l/m 5,1 km/h (1 Bft) S 190 0 min 0,000 mm 0,0 UV-I 0 W/m 6,5 C 7,2 C 6,4 km/h (2 Bft) 95,74 %
07.11.2018 05:42 7,1 C 10,0 C 2,8 C 94 % 1011,3 hPa 0,0 l/m 5,3 km/h (1 Bft) S-SW 207 0 min 0,000 mm 0,0 UV-I 0 W/m 6,2 C 7,1 C 6,4 km/h (2 Bft) 97,87 %
07.11.2018 05:44 6,9 C 10,0 C 2,8 C 94 % 1011,3 hPa 0,0 l/m 5,2 km/h (1 Bft) S-SW 205 0 min 0,000 mm 0,0 UV-I 0 W/m 6,0 C 6,9 C 6,4 km/h (2 Bft) 95,74 %
07.11.2018 05:46 6,8 C 10,0 C 2,8 C 94 % 1011,3 hPa 0,0 l/m 3,5 km/h (1 Bft) S-SW 205 0 min 0,000 mm 0,0 UV-I 0 W/m 5,9 C 6,8 C 4,8 km/h (1 Bft) 94,00 %
07.11.2018 05:48 6,8 C 10,0 C 2,8 C 94 % 1011,3 hPa 0,0 l/m 3,1 km/h (1 Bft) S-SW 205 0 min 0,000 mm 0,0 UV-I 0 W/m 5,9 C 6,8 C 4,8 km/h (1 Bft) 97,37 %
07.11.2018 05:50 6,6 C 10,0 C 2,8 C 94 % 1011,3 hPa 0,0 l/m 5,5 km/h (1 Bft) S-SW 198 0 min 0,000 mm 0,0 UV-I 0 W/m 5,7 C 6,6 C 6,4 km/h (2 Bft) 97,87 %
07.11.2018 05:52 6,6 C 10,0 C 3,3 C 94 % 1011,3 hPa 0,0 l/m 6,5 km/h (2 Bft) S-SW 198 0 min 0,000 mm 0,0 UV-I 0 W/m 5,7 C 6,5 C 8,0 km/h (2 Bft) 94,00 %
07.11.2018 05:54 6,6 C 10,0 C 3,3 C 94 % 1011,3 hPa 0,0 l/m 5,8 km/h (2 Bft) S-SW 197 0 min 0,000 mm 0,0 UV-I 0 W/m 5,7 C 6,6 C 8,0 km/h (2 Bft) 96,00 %
07.11.2018 05:56 6,8 C 10,0 C 3,3 C 95 % 1011,3 hPa 0,0 l/m 5,7 km/h (1 Bft) S-SW 196 0 min 0,000 mm 0,0 UV-I 0 W/m 6,1 C 6,8 C 6,4 km/h (2 Bft) 95,74 %
07.11.2018 05:58 6,8 C 10,0 C 3,3 C 95 % 1011,3 hPa 0,0 l/m 3,9 km/h (1 Bft) S-SW 195 0 min 0,000 mm 0,0 UV-I 0 W/m 6,1 C 6,8 C 4,8 km/h (1 Bft) 97,87 %
07.11.2018 06:00 7,0 C 10,0 C 3,3 C 95 % 1011,3 hPa 0,0 l/m 3,1 km/h (1 Bft) S-SW 195 0 min 0,000 mm 0,0 UV-I 0 W/m 6,3 C 7,0 C 4,8 km/h (1 Bft) 97,87 %
07.11.2018 06:02 6,9 C 10,0 C 2,8 C 95 % 1011,3 hPa 0,0 l/m 3,6 km/h (1 Bft) S-SW 195 0 min 0,000 mm 0,0 UV-I 0 W/m 6,2 C 6,9 C 4,8 km/h (1 Bft) 95,74 %
07.11.2018 06:04 6,9 C 10,0 C 2,8 C 95 % 1011,3 hPa 0,0 l/m 3,4 km/h (1 Bft) S-SW 195 0 min 0,000 mm 0,0 UV-I 0 W/m 6,2 C 6,9 C 4,8 km/h (1 Bft) 95,74 %
07.11.2018 06:06 6,8 C 10,0 C 3,3 C 94 % 1011,3 hPa 0,0 l/m 3,3 km/h (1 Bft) S-SW 195 0 min 0,000 mm 0,0 UV-I 0 W/m 5,9 C 6,8 C 4,8 km/h (1 Bft) 97,37 %
07.11.2018 06:08 6,7 C 10,0 C 3,3 C 94 % 1011,3 hPa 0,0 l/m 4,4 km/h (1 Bft) S-SW 195 0 min 0,000 mm 0,0 UV-I 0 W/m 5,8 C 6,7 C 6,4 km/h (2 Bft) 97,92 %
07.11.2018 06:10 6,4 C 10,0 C 3,3 C 94 % 1011,3 hPa 0,0 l/m 3,7 km/h (1 Bft) S-SW 195 0 min 0,000 mm 0,0 UV-I 0 W/m 5,5 C 6,4 C 4,8 km/h (1 Bft) 97,87 %
07.11.2018 06:12 6,5 C 10,0 C 3,3 C 94 % 1011,3 hPa 0,0 l/m 2,5 km/h (1 Bft) S-SW 195 0 min 0,000 mm 0,0 UV-I 0 W/m 5,6 C 6,5 C 3,2 km/h (1 Bft) 97,96 %
07.11.2018 06:14 6,5 C 10,0 C 3,3 C 95 % 1011,3 hPa 0,0 l/m 2,8 km/h (1 Bft) S-SW 195 0 min 0,000 mm 0,0 UV-I 0 W/m 5,8 C 6,5 C 3,2 km/h (1 Bft) 97,87 %
07.11.2018 06:16 6,4 C 10,0 C 3,3 C 94 % 1011,4 hPa 0,0 l/m 3,3 km/h (1 Bft) S-SW 195 0 min 0,000 mm 0,0 UV-I 0 W/m 5,5 C 6,4 C 4,8 km/h (1 Bft) 93,62 %
07.11.2018 06:18 6,3 C 10,0 C 3,9 C 94 % 1011,4 hPa 0,0 l/m 3,7 km/h (1 Bft) S-SW 200 0 min 0,000 mm 0,0 UV-I 0 W/m 5,4 C 6,3 C 4,8 km/h (1 Bft) 95,92 %
07.11.2018 06:20 6,1 C 10,0 C 3,3 C 94 % 1011,4 hPa 0,0 l/m 3,3 km/h (1 Bft) S-SW 200 0 min 0,000 mm 0,0 UV-I 0 W/m 5,2 C 6,1 C 4,8 km/h (1 Bft) 91,49 %
07.11.2018 06:22 6,0 C 10,0 C 2,8 C 94 % 1011,4 hPa 0,0 l/m 1,9 km/h (1 Bft) S-SW 200 0 min 0,000 mm 0,0 UV-I 0 W/m 5,1 C 6,0 C 3,2 km/h (1 Bft) 95,74 %
07.11.2018 06:24 5,9 C 10,0 C 2,8 C 94 % 1011,5 hPa 0,0 l/m 0,9 km/h (0 Bft) S-SW 200 0 min 0,000 mm 0,0 UV-I 0 W/m 5,0 C 5,9 C 1,6 km/h (1 Bft) 96,00 %
07.11.2018 06:26 5,9 C 10,0 C 2,8 C 95 % 1011,5 hPa 0,0 l/m 2,1 km/h (1 Bft) S-SW 200 0 min 0,000 mm 0,0 UV-I 0 W/m 5,2 C 5,9 C 3,2 km/h (1 Bft) 95,74 %
07.11.2018 06:28 6,1 C 10,0 C 2,2 C 95 % 1011,5 hPa 0,0 l/m 1,8 km/h (1 Bft) S-SW 200 0 min 0,000 mm 0,0 UV-I 0 W/m 5,4 C 6,1 C 3,2 km/h (1 Bft) 95,92 %
07.11.2018 06:31 6,2 C 10,0 C 2,2 C 95 % 1011,5 hPa 0,0 l/m 1,5 km/h (1 Bft) S-SW 200 0 min 0,000 mm 0,0 UV-I 0 W/m 5,5 C 6,2 C 3,2 km/h (1 Bft) 95,45 %
07.11.2018 06:32 6,2 C 10,0 C 2,8 C 95 % 1011,5 hPa 0,0 l/m 3,7 km/h (1 Bft) S-SW 200 0 min 0,000 mm 0,0 UV-I 0 W/m 5,5 C 6,2 C 4,8 km/h (1 Bft) 91,67 %
07.11.2018 06:34 6,2 C 10,0 C 3,3 C 95 % 1011,5 hPa 0,0 l/m 4,7 km/h (1 Bft) S-SW 200 0 min 0,000 mm 0,0 UV-I 0 W/m 5,5 C 6,2 C 6,4 km/h (2 Bft) 97,87 %
07.11.2018 06:36 5,9 C 10,0 C 3,3 C 95 % 1011,6 hPa 0,0 l/m 4,0 km/h (1 Bft) S-SW 200 0 min 0,000 mm 0,0 UV-I 0 W/m 5,2 C 5,9 C 6,4 km/h (2 Bft) 100,00 %
07.11.2018 06:38 5,7 C 10,0 C 3,3 C 94 % 1011,6 hPa 0,0 l/m 3,4 km/h (1 Bft) S-SW 200 0 min 0,000 mm 0,0 UV-I 0 W/m 4,8 C 5,7 C 4,8 km/h (1 Bft) 100,00 %
07.11.2018 06:40 5,5 C 10,0 C 2,8 C 95 % 1011,6 hPa 0,0 l/m 2,6 km/h (1 Bft) S-SW 200 0 min 0,000 mm 0,0 UV-I 0 W/m 4,8 C 5,5 C 3,2 km/h (1 Bft) 100,00 %
07.11.2018 06:42 5,6 C 10,0 C 2,8 C 95 % 1011,6 hPa 0,0 l/m 3,6 km/h (1 Bft) S-SW 200 0 min 0,000 mm 0,0 UV-I 3 W/m 4,9 C 5,6 C 4,8 km/h (1 Bft) 100,00 %
07.11.2018 06:45 5,8 C 10,0 C 3,3 C 95 % 1011,6 hPa 0,0 l/m 5,0 km/h (1 Bft) S-SW 200 0 min 0,000 mm 0,0 UV-I 5 W/m 5,1 C 5,8 C 6,4 km/h (2 Bft) 100,00 %
07.11.2018 06:46 5,8 C 10,0 C 3,3 C 95 % 1011,6 hPa 0,0 l/m 6,2 km/h (2 Bft) S-SW 198 0 min 0,000 mm 0,0 UV-I 7 W/m 5,1 C 5,8 C 6,4 km/h (2 Bft) 95,65 %
07.11.2018 06:48 5,9 C 10,0 C 3,9 C 95 % 1011,6 hPa 0,0 l/m 5,6 km/h (1 Bft) S 186 0 min 0,000 mm 0,0 UV-I 7 W/m 5,2 C 5,9 C 6,4 km/h (2 Bft) 95,74 %
07.11.2018 06:50 5,8 C 10,0 C 3,9 C 95 % 1011,6 hPa 0,0 l/m 5,9 km/h (2 Bft) S 186 0 min 0,000 mm 0,0 UV-I 7 W/m 5,1 C 5,8 C 8,0 km/h (2 Bft) 97,87 %
07.11.2018 06:52 5,9 C 10,0 C 3,3 C 95 % 1011,6 hPa 0,0 l/m 5,7 km/h (1 Bft) S-SW 195 0 min 0,000 mm 0,0 UV-I 7 W/m 5,2 C 5,9 C 6,4 km/h (2 Bft) 100,00 %
07.11.2018 06:54 5,9 C 10,0 C 3,3 C 95 % 1011,6 hPa 0,0 l/m 4,7 km/h (1 Bft) S-SW 195 0 min 0,000 mm 0,0 UV-I 7 W/m 5,2 C 5,9 C 6,4 km/h (2 Bft) 100,00 %
07.11.2018 06:56 6,0 C 10,0 C 3,3 C 95 % 1011,6 hPa 0,0 l/m 4,6 km/h (1 Bft) S-SW 194 0 min 0,000 mm 0,0 UV-I 9 W/m 5,3 C 6,0 C 6,4 km/h (2 Bft) 97,87 %
07.11.2018 06:58 6,1 C 10,0 C 2,8 C 96 % 1011,6 hPa 0,0 l/m 4,6 km/h (1 Bft) S-SW 194 0 min 0,000 mm 0,0 UV-I 9 W/m 5,5 C 6,1 C 4,8 km/h (1 Bft) 100,00 %
07.11.2018 07:00 6,3 C 10,0 C 2,8 C 96 % 1011,6 hPa 0,0 l/m 4,5 km/h (1 Bft) S-SW 194 0 min 0,000 mm 0,0 UV-I 10 W/m 5,7 C 6,3 C 4,8 km/h (1 Bft) 100,00 %
07.11.2018 07:02 6,3 C 10,0 C 2,8 C 96 % 1011,7 hPa 0,0 l/m 3,7 km/h (1 Bft) S-SW 194 0 min 0,000 mm 0,0 UV-I 11 W/m 5,7 C 6,3 C 4,8 km/h (1 Bft) 100,00 %
07.11.2018 07:04 6,3 C 10,0 C 2,8 C 96 % 1011,8 hPa 0,0 l/m 2,9 km/h (1 Bft) S-SW 194 0 min 0,000 mm 0,0 UV-I 11 W/m 5,7 C 6,3 C 4,8 km/h (1 Bft) 100,00 %
07.11.2018 07:06 6,2 C 10,0 C 2,8 C 96 % 1011,8 hPa 0,0 l/m 2,3 km/h (1 Bft) S-SW 194 0 min 0,000 mm 0,0 UV-I 13 W/m 5,6 C 6,2 C 3,2 km/h (1 Bft) 98,00 %
07.11.2018 07:08 6,2 C 10,0 C 2,8 C 95 % 1011,8 hPa 0,0 l/m 1,9 km/h (1 Bft) S-SW 194 0 min 0,000 mm 0,0 UV-I 15 W/m 5,5 C 6,2 C 3,2 km/h (1 Bft) 100,00 %
07.11.2018 07:10 6,2 C 10,0 C 2,8 C 96 % 1011,8 hPa 0,0 l/m 0,8 km/h (0 Bft) S-SW 194 2 min 0,000 mm 0,0 UV-I 17 W/m 5,6 C 6,2 C 1,6 km/h (1 Bft) 97,87 %
07.11.2018 07:12 6,2 C 10,0 C 2,8 C 96 % 1011,9 hPa 0,0 l/m 1,6 km/h (1 Bft) S-SW 194 2 min 0,000 mm 0,0 UV-I 19 W/m 5,6 C 6,2 C 3,2 km/h (1 Bft) 95,74 %
07.11.2018 07:14 6,2 C 10,0 C 2,8 C 96 % 1011,9 hPa 0,0 l/m 3,0 km/h (1 Bft) S-SW 194 2 min 0,000 mm 0,0 UV-I 21 W/m 5,6 C 6,2 C 4,8 km/h (1 Bft) 100,00 %
07.11.2018 07:16 6,1 C 10,0 C 2,8 C 95 % 1011,9 hPa 0,0 l/m 3,1 km/h (1 Bft) S-SW 194 2 min 0,000 mm 0,0 UV-I 23 W/m 5,4 C 6,1 C 3,2 km/h (1 Bft) 96,00 %
07.11.2018 07:18 5,9 C 10,0 C 2,8 C 95 % 1011,9 hPa 0,0 l/m 1,4 km/h (1 Bft) S-SW 194 2 min 0,000 mm 0,0 UV-I 25 W/m 5,2 C 5,9 C 3,2 km/h (1 Bft) 96,00 %
07.11.2018 07:20 6,1 C 10,0 C 2,8 C 95 % 1011,9 hPa 0,0 l/m 0,3 km/h (0 Bft) S-SW 194 2 min 0,000 mm 0,0 UV-I 25 W/m 5,4 C 6,1 C 1,6 km/h (1 Bft) 100,00 %
07.11.2018 07:22 6,2 C 10,0 C 2,8 C 96 % 1011,9 hPa 0,0 l/m 0,0 km/h (0 Bft) S-SW 194 0 min 0,000 mm 0,0 UV-I 27 W/m 5,6 C 6,2 C 1,6 km/h (1 Bft) 100,00 %
07.11.2018 07:24 6,3 C 10,0 C 2,8 C 96 % 1011,9 hPa 0,0 l/m 0,6 km/h (0 Bft) S-SW 194 0 min 0,000 mm 0,0 UV-I 28 W/m 5,7 C 6,3 C 1,6 km/h (1 Bft) 97,37 %
07.11.2018 07:26 6,4 C 10,0 C 2,8 C 96 % 1011,9 hPa 0,0 l/m 2,0 km/h (1 Bft) S-SW 194 0 min 0,000 mm 0,0 UV-I 31 W/m 5,8 C 6,4 C 3,2 km/h (1 Bft) 100,00 %
07.11.2018 07:28 6,5 C 10,0 C 3,3 C 96 % 1011,9 hPa 0,0 l/m 2,3 km/h (1 Bft) S-SW 194 2 min 0,000 mm 0,0 UV-I 38 W/m 5,9 C 6,5 C 3,2 km/h (1 Bft) 97,87 %
07.11.2018 07:30 6,5 C 10,0 C 2,8 C 96 % 1011,9 hPa 0,0 l/m 2,2 km/h (1 Bft) S-SW 194 2 min 0,000 mm 0,0 UV-I 40 W/m 5,9 C 6,5 C 3,2 km/h (1 Bft) 97,87 %
07.11.2018 07:32 6,3 C 10,0 C 3,3 C 95 % 1011,9 hPa 0,0 l/m 1,8 km/h (1 Bft) S-SW 194 2 min 0,000 mm 0,0 UV-I 48 W/m 5,6 C 6,3 C 3,2 km/h (1 Bft) 97,87 %
07.11.2018 07:34 6,2 C 10,0 C 3,3 C 95 % 1011,9 hPa 0,0 l/m 0,0 km/h (0 Bft) S-SW 194 2 min 0,000 mm 0,0 UV-I 50 W/m 5,5 C 6,2 C 0,0 km/h (0 Bft) 97,87 %
07.11.2018 07:36 6,1 C 10,0 C 3,3 C 95 % 1011,9 hPa 0,0 l/m 0,0 km/h (0 Bft) S-SW 194 2 min 0,000 mm 0,0 UV-I 50 W/m 5,4 C 6,1 C 0,0 km/h (0 Bft) 95,74 %
07.11.2018 07:38 6,2 C 10,0 C 3,3 C 96 % 1011,9 hPa 0,0 l/m 0,0 km/h (0 Bft) S-SW 194 2 min 0,000 mm 0,0 UV-I 54 W/m 5,6 C 6,2 C 0,0 km/h (0 Bft) 97,87 %
07.11.2018 07:40 6,4 C 10,0 C 3,3 C 96 % 1011,9 hPa 0,0 l/m 1,3 km/h (1 Bft) S-SW 194 2 min 0,000 mm 0,0 UV-I 57 W/m 5,8 C 6,4 C 3,2 km/h (1 Bft) 97,87 %
07.11.2018 07:42 6,7 C 10,0 C 3,3 C 96 % 1011,9 hPa 0,0 l/m 1,8 km/h (1 Bft) S-SW 194 0 min 0,000 mm 0,0 UV-I 55 W/m 6,1 C 6,7 C 3,2 km/h (1 Bft) 96,23 %
07.11.2018 07:44 6,7 C 10,0 C 3,9 C 96 % 1011,9 hPa 0,0 l/m 1,2 km/h (1 Bft) S-SW 194 0 min 0,000 mm 0,0 UV-I 53 W/m 6,1 C 6,7 C 1,6 km/h (1 Bft) 97,87 %
07.11.2018 07:46 6,6 C 10,0 C 4,4 C 96 % 1011,9 hPa 0,0 l/m 2,7 km/h (1 Bft) S-SW 194 0 min 0,000 mm 0,0 UV-I 53 W/m 6,0 C 6,6 C 3,2 km/h (1 Bft) 96,00 %
07.11.2018 07:48 6,6 C 10,0 C 4,4 C 96 % 1011,9 hPa 0,0 l/m 1,6 km/h (1 Bft) S-SW 194 0 min 0,000 mm 0,0 UV-I 52 W/m 6,0 C 6,6 C 3,2 km/h (1 Bft) 97,87 %
07.11.2018 07:50 6,6 C 10,0 C 3,9 C 96 % 1011,9 hPa 0,0 l/m 0,3 km/h (0 Bft) S-SW 194 0 min 0,000 mm 0,0 UV-I 45 W/m 6,0 C 6,6 C 1,6 km/h (1 Bft) 100,00 %
07.11.2018 07:52 6,7 C 10,0 C 3,9 C 96 % 1011,9 hPa 0,0 l/m 0,7 km/h (0 Bft) S-SW 195 0 min 0,000 mm 0,0 UV-I 44 W/m 6,1 C 6,7 C 3,2 km/h (1 Bft) 97,87 %
07.11.2018 07:54 6,7 C 10,0 C 4,4 C 96 % 1011,9 hPa 0,0 l/m 2,4 km/h (1 Bft) S-SW 194 0 min 0,000 mm 0,0 UV-I 58 W/m 6,1 C 6,7 C 3,2 km/h (1 Bft) 100,00 %
07.11.2018 07:56 6,7 C 10,0 C 4,4 C 96 % 1012,0 hPa 0,0 l/m 1,1 km/h (1 Bft) S-SW 194 0 min 0,000 mm 0,0 UV-I 69 W/m 6,1 C 6,7 C 1,6 km/h (1 Bft) 100,00 %
07.11.2018 07:58 6,8 C 10,0 C 4,4 C 96 % 1012,0 hPa 0,0 l/m 1,8 km/h (1 Bft) S-SW 194 2 min 0,000 mm 0,0 UV-I 88 W/m 6,2 C 6,8 C 3,2 km/h (1 Bft) 100,00 %
07.11.2018 08:00 6,8 C 10,0 C 4,4 C 96 % 1011,9 hPa 0,0 l/m 2,9 km/h (1 Bft) S-SW 194 2 min 0,025 mm 0,0 UV-I 103 W/m 6,2 C 6,8 C 4,8 km/h (1 Bft) 98,00 %
07.11.2018 08:02 7,0 C 10,0 C 5,0 C 96 % 1012,0 hPa 0,0 l/m 3,0 km/h (1 Bft) S-SW 194 2 min 0,000 mm 0,0 UV-I 103 W/m 6,4 C 7,0 C 4,8 km/h (1 Bft) 97,87 %
07.11.2018 08:04 7,2 C 10,0 C 5,0 C 96 % 1012,0 hPa 0,0 l/m 2,0 km/h (1 Bft) S-SW 194 2 min 0,000 mm 0,0 UV-I 107 W/m 6,6 C 7,2 C 3,2 km/h (1 Bft) 97,92 %
07.11.2018 08:06 7,4 C 10,0 C 5,0 C 96 % 1011,9 hPa 0,0 l/m 1,2 km/h (1 Bft) S-SW 194 2 min 0,000 mm 0,0 UV-I 107 W/m 6,8 C 7,4 C 3,2 km/h (1 Bft) 97,87 %
07.11.2018 08:08 7,6 C 10,0 C 5,6 C 96 % 1012,0 hPa 0,0 l/m 2,2 km/h (1 Bft) S-SW 194 2 min 0,000 mm 0,0 UV-I 91 W/m 7,0 C 7,6 C 3,2 km/h (1 Bft) 98,00 %
07.11.2018 08:10 7,4 C 10,0 C 5,6 C 96 % 1011,9 hPa 0,0 l/m 0,2 km/h (0 Bft) S-SW 194 2 min 0,000 mm 0,0 UV-I 96 W/m 6,8 C 7,4 C 1,6 km/h (1 Bft) 95,74 %
07.11.2018 08:12 7,3 C 10,0 C 6,1 C 95 % 1011,9 hPa 0,0 l/m 0,0 km/h (0 Bft) S-SW 194 2 min 0,000 mm 0,0 UV-I 117 W/m 6,6 C 7,3 C 0,0 km/h (0 Bft) 100,00 %
07.11.2018 08:14 7,3 C 10,0 C 6,1 C 95 % 1011,9 hPa 0,0 l/m 0,0 km/h (0 Bft) S-SW 194 2 min 0,000 mm 0,0 UV-I 127 W/m 6,6 C 7,3 C 0,0 km/h (0 Bft) 100,00 %
07.11.2018 08:16 7,4 C 10,0 C 6,7 C 95 % 1011,8 hPa 0,0 l/m 0,5 km/h (0 Bft) S-SW 194 2 min 0,000 mm 0,0 UV-I 116 W/m 6,7 C 7,4 C 1,6 km/h (1 Bft) 97,87 %
07.11.2018 08:18 7,4 C 10,0 C 6,1 C 95 % 1011,8 hPa 0,0 l/m 0,8 km/h (0 Bft) S-SW 194 0 min 0,000 mm 0,0 UV-I 101 W/m 6,7 C 7,4 C 1,6 km/h (1 Bft) 97,87 %
07.11.2018 08:20 7,7 C 10,0 C 6,1 C 95 % 1011,8 hPa 0,0 l/m 1,2 km/h (1 Bft) S-SW 194 2 min 0,000 mm 0,0 UV-I 118 W/m 7,0 C 7,7 C 1,6 km/h (1 Bft) 97,87 %
07.11.2018 08:22 7,7 C 10,0 C 6,7 C 95 % 1011,8 hPa 0,0 l/m 0,5 km/h (0 Bft) S-SW 194 2 min 0,000 mm 0,0 UV-I 145 W/m 7,0 C 7,7 C 1,6 km/h (1 Bft) 94,29 %
07.11.2018 08:24 7,7 C 10,0 C 6,7 C 95 % 1011,8 hPa 0,0 l/m 1,0 km/h (0 Bft) S-SW 194 2 min 0,000 mm 0,0 UV-I 140 W/m 7,0 C 7,7 C 3,2 km/h (1 Bft) 98,11 %
07.11.2018 08:26 7,7 C 10,0 C 7,2 C 94 % 1011,8 hPa 0,0 l/m 3,2 km/h (1 Bft) S-SW 194 2 min 0,000 mm 0,0 UV-I 148 W/m 6,8 C 7,7 C 4,8 km/h (1 Bft) 97,87 %
07.11.2018 08:28 7,8 C 10,0 C 7,2 C 94 % 1011,8 hPa 0,0 l/m 3,7 km/h (1 Bft) NO 35 2 min 0,000 mm 0,0 UV-I 153 W/m 6,9 C 7,8 C 4,8 km/h (1 Bft) 95,74 %
07.11.2018 08:30 7,9 C 10,0 C 7,2 C 95 % 1011,7 hPa 0,0 l/m 4,4 km/h (1 Bft) O 87 2 min 0,000 mm 0,0 UV-I 164 W/m 7,1 C 7,9 C 6,4 km/h (2 Bft) 97,87 %
07.11.2018 08:32 8,4 C 10,0 C 7,8 C 95 % 1011,7 hPa 0,0 l/m 6,2 km/h (2 Bft) O-SO 102 2 min 0,000 mm 0,0 UV-I 173 W/m 7,6 C 8,4 C 9,7 km/h (2 Bft) 98,00 %
07.11.2018 08:34 8,8 C 10,0 C 8,3 C 95 % 1011,7 hPa 0,0 l/m 6,4 km/h (2 Bft) O 96 2 min 0,000 mm 0,0 UV-I 194 W/m 8,0 C 8,8 C 9,7 km/h (2 Bft) 97,87 %
07.11.2018 08:36 9,2 C 10,0 C 8,3 C 95 % 1011,6 hPa 0,0 l/m 4,2 km/h (1 Bft) O 97 2 min 0,000 mm 0,0 UV-I 202 W/m 8,4 C 9,2 C 6,4 km/h (2 Bft) 95,74 %
07.11.2018 08:38 9,4 C 10,0 C 8,3 C 94 % 1011,6 hPa 0,0 l/m 2,9 km/h (1 Bft) O 96 2 min 0,000 mm 0,0 UV-I 207 W/m 8,5 C 9,4 C 4,8 km/h (1 Bft) 95,12 %
07.11.2018 08:40 9,6 C 10,0 C 8,9 C 93 % 1011,6 hPa 0,0 l/m 2,6 km/h (1 Bft) O 96 2 min 0,000 mm 0,0 UV-I 215 W/m 8,5 C 9,6 C 3,2 km/h (1 Bft) 97,87 %
07.11.2018 08:42 9,6 C 10,0 C 8,9 C 93 % 1011,6 hPa 0,0 l/m 2,9 km/h (1 Bft) O 96 2 min 0,000 mm 0,0 UV-I 220 W/m 8,5 C 9,6 C 4,8 km/h (1 Bft) 95,83 %
07.11.2018 08:45 9,8 C 10,0 C 8,9 C 92 % 1011,7 hPa 0,0 l/m 2,8 km/h (1 Bft) O 96 3 min 0,000 mm 0,0 UV-I 216 W/m 8,6 C 9,8 C 6,4 km/h (2 Bft) 94,52 %
07.11.2018 08:46 9,8 C 10,0 C 8,9 C 92 % 1011,7 hPa 0,0 l/m 5,4 km/h (1 Bft) O-NO 69 1 min 0,000 mm 0,0 UV-I 220 W/m 8,6 C 9,8 C 6,4 km/h (2 Bft) 96,30 %
07.11.2018 08:48 9,9 C 10,0 C 9,4 C 91 % 1011,7 hPa 0,0 l/m 3,5 km/h (1 Bft) O-NO 71 2 min 0,000 mm 0,0 UV-I 225 W/m 8,5 C 9,9 C 4,8 km/h (1 Bft) 100,00 %
07.11.2018 08:50 10,0 C 10,0 C 9,4 C 91 % 1011,7 hPa 0,0 l/m 4,5 km/h (1 Bft) O-NO 63 2 min 0,000 mm 0,0 UV-I 236 W/m 8,6 C 10,0 C 6,4 km/h (2 Bft) 98,00 %
07.11.2018 08:52 10,1 C 10,0 C 9,4 C 91 % 1011,6 hPa 0,0 l/m 4,4 km/h (1 Bft) O-NO 61 2 min 0,000 mm 0,0 UV-I 239 W/m 8,7 C 10,1 C 6,4 km/h (2 Bft) 97,37 %
07.11.2018 08:54 10,0 C 10,0 C 9,4 C 90 % 1011,7 hPa 0,0 l/m 4,0 km/h (1 Bft) O-NO 61 2 min 0,000 mm 0,0 UV-I 237 W/m 8,4 C 10,0 C 4,8 km/h (1 Bft) 97,87 %
07.11.2018 08:56 9,9 C 10,0 C 9,4 C 90 % 1011,6 hPa 0,0 l/m 4,3 km/h (1 Bft) NO 43 2 min 0,000 mm 0,0 UV-I 231 W/m 8,3 C 9,9 C 6,4 km/h (2 Bft) 96,23 %
07.11.2018 08:58 9,9 C 10,0 C 9,4 C 91 % 1011,6 hPa 0,0 l/m 5,3 km/h (1 Bft) NO 43 2 min 0,000 mm 0,0 UV-I 230 W/m 8,5 C 9,9 C 6,4 km/h (2 Bft) 100,00 %
07.11.2018 09:00 9,8 C 10,0 C 9,4 C 91 % 1011,6 hPa 0,0 l/m 4,3 km/h (1 Bft) NO 43 2 min 0,077 mm 0,0 UV-I 220 W/m 8,4 C 9,8 C 6,4 km/h (2 Bft) 97,87 %
07.11.2018 09:02 9,8 C 10,0 C 9,4 C 91 % 1011,7 hPa 0,0 l/m 4,0 km/h (1 Bft) NO 43 2 min 0,000 mm 0,0 UV-I 243 W/m 8,4 C 9,8 C 4,8 km/h (1 Bft) 100,00 %
07.11.2018 09:04 9,9 C 10,0 C 9,4 C 90 % 1011,6 hPa 0,0 l/m 3,1 km/h (1 Bft) NO 43 2 min 0,000 mm 0,0 UV-I 234 W/m 8,3 C 9,9 C 4,8 km/h (1 Bft) 100,00 %
07.11.2018 09:06 10,1 C 10,0 C 9,4 C 90 % 1011,6 hPa 0,0 l/m 2,1 km/h (1 Bft) NO 43 2 min 0,000 mm 0,0 UV-I 240 W/m 8,5 C 10,1 C 4,8 km/h (1 Bft) 97,87 %
07.11.2018 09:08 10,2 C 10,0 C 9,4 C 90 % 1011,6 hPa 0,0 l/m 2,9 km/h (1 Bft) NO 43 2 min 0,000 mm 0,0 UV-I 256 W/m 8,6 C 10,2 C 4,8 km/h (1 Bft) 100,00 %
07.11.2018 09:10 10,3 C 10,0 C 10,0 C 89 % 1011,6 hPa 0,0 l/m 3,1 km/h (1 Bft) NO 43 2 min 0,000 mm 0,0 UV-I 242 W/m 8,6 C 10,3 C 4,8 km/h (1 Bft) 100,00 %
07.11.2018 09:12 10,3 C 10,0 C 10,0 C 89 % 1011,6 hPa 0,0 l/m 3,4 km/h (1 Bft) NO 43 2 min 0,000 mm 0,0 UV-I 267 W/m 8,6 C 10,3 C 4,8 km/h (1 Bft) 100,00 %
07.11.2018 09:14 10,3 C 10,0 C 10,0 C 89 % 1011,6 hPa 0,0 l/m 4,7 km/h (1 Bft) O-NO 63 2 min 0,000 mm 0,0 UV-I 283 W/m 8,6 C 10,3 C 6,4 km/h (2 Bft) 100,00 %
07.11.2018 09:16 10,4 C 10,0 C 10,0 C 89 % 1011,4 hPa 0,0 l/m 4,6 km/h (1 Bft) O-NO 67 2 min 0,000 mm 0,0 UV-I 283 W/m 8,7 C 10,4 C 6,4 km/h (2 Bft) 98,00 %
07.11.2018 09:18 10,5 C 10,0 C 10,6 C 90 % 1011,5 hPa 0,0 l/m 4,5 km/h (1 Bft) O-NO 71 2 min 0,000 mm 0,2 UV-I 272 W/m 8,9 C 10,5 C 6,4 km/h (2 Bft) 100,00 %
07.11.2018 09:20 10,7 C 10,0 C 10,6 C 89 % 1011,4 hPa 0,0 l/m 4,4 km/h (1 Bft) O-NO 71 2 min 0,000 mm 0,5 UV-I 288 W/m 9,0 C 10,7 C 4,8 km/h (1 Bft) 100,00 %
07.11.2018 09:22 10,8 C 10,0 C 10,6 C 90 % 1011,4 hPa 0,0 l/m 4,3 km/h (1 Bft) O-NO 69 2 min 0,000 mm 0,5 UV-I 279 W/m 9,2 C 10,8 C 6,4 km/h (2 Bft) 100,00 %
07.11.2018 09:24 10,9 C 10,0 C 10,6 C 89 % 1011,5 hPa 0,0 l/m 5,9 km/h (2 Bft) O-NO 57 2 min 0,000 mm 0,5 UV-I 255 W/m 9,2 C 10,9 C 8,0 km/h (2 Bft) 97,73 %
07.11.2018 09:26 10,9 C 10,0 C 10,6 C 89 % 1011,4 hPa 0,0 l/m 6,0 km/h (2 Bft) O-NO 62 2 min 0,000 mm 0,5 UV-I 251 W/m 9,2 C 10,9 C 8,0 km/h (2 Bft) 100,00 %
07.11.2018 09:28 11,1 C 10,0 C 10,6 C 88 % 1011,4 hPa 0,0 l/m 5,2 km/h (1 Bft) NO 53 2 min 0,000 mm 0,5 UV-I 273 W/m 9,2 C 11,1 C 8,0 km/h (2 Bft) 100,00 %
07.11.2018 09:30 11,2 C 10,0 C 10,6 C 89 % 1011,4 hPa 0,0 l/m 3,8 km/h (1 Bft) NO 50 2 min 0,000 mm 0,5 UV-I 281 W/m 9,5 C 11,2 C 4,8 km/h (1 Bft) 100,00 %
07.11.2018 09:32 11,3 C 10,0 C 10,6 C 89 % 1011,4 hPa 0,0 l/m 3,7 km/h (1 Bft) O-NO 68 2 min 0,000 mm 0,5 UV-I 272 W/m 9,6 C 11,3 C 6,4 km/h (2 Bft) 98,00 %
07.11.2018 09:34 11,4 C 10,0 C 11,1 C 87 % 1011,5 hPa 0,0 l/m 3,9 km/h (1 Bft) NO 40 2 min 0,000 mm 0,5 UV-I 283 W/m 9,3 C 11,4 C 4,8 km/h (1 Bft) 100,00 %
07.11.2018 09:36 11,6 C 10,0 C 11,1 C 87 % 1011,5 hPa 0,0 l/m 3,6 km/h (1 Bft) NO 47 2 min 0,000 mm 0,5 UV-I 291 W/m 9,5 C 11,6 C 6,4 km/h (2 Bft) 100,00 %
07.11.2018 09:38 11,7 C 10,0 C 11,1 C 87 % 1011,6 hPa 0,0 l/m 5,2 km/h (1 Bft) NO 42 2 min 0,000 mm 0,5 UV-I 289 W/m 9,6 C 11,7 C 6,4 km/h (2 Bft) 100,00 %
07.11.2018 09:40 11,8 C 10,0 C 11,1 C 87 % 1011,6 hPa 0,0 l/m 4,9 km/h (1 Bft) NO 43 2 min 0,000 mm 0,6 UV-I 293 W/m 9,7 C 11,8 C 8,0 km/h (2 Bft) 100,00 %
07.11.2018 09:42 11,8 C 10,0 C 11,1 C 87 % 1011,6 hPa 0,0 l/m 5,2 km/h (1 Bft) NO 51 2 min 0,000 mm 0,6 UV-I 276 W/m 9,7 C 11,8 C 8,0 km/h (2 Bft) 100,00 %
07.11.2018 09:44 11,7 C 10,0 C 11,1 C 86 % 1011,6 hPa 0,0 l/m 6,5 km/h (2 Bft) NO 39 2 min 0,000 mm 0,6 UV-I 277 W/m 9,4 C 11,7 C 8,0 km/h (2 Bft) 100,00 %
07.11.2018 09:46 11,7 C 10,0 C 11,1 C 86 % 1011,6 hPa 0,0 l/m 6,2 km/h (2 Bft) NO 51 2 min 0,000 mm 0,6 UV-I 290 W/m 9,4 C 11,7 C 8,0 km/h (2 Bft) 100,00 %
07.11.2018 09:48 11,6 C 10,0 C 11,1 C 86 % 1011,5 hPa 0,0 l/m 5,3 km/h (1 Bft) O-NO 57 2 min 0,000 mm 0,6 UV-I 275 W/m 9,3 C 11,6 C 6,4 km/h (2 Bft) 100,00 %
07.11.2018 09:50 11,7 C 10,0 C 11,1 C 86 % 1011,5 hPa 0,0 l/m 6,0 km/h (2 Bft) NO 36 2 min 0,000 mm 0,6 UV-I 291 W/m 9,4 C 11,7 C 8,0 km/h (2 Bft) 97,73 %
07.11.2018 09:52 11,7 C 10,0 C 11,7 C 87 % 1011,4 hPa 0,0 l/m 6,9 km/h (2 Bft) NO 49 2 min 0,000 mm 0,6 UV-I 283 W/m 9,6 C 11,4 C 12,9 km/h (3 Bft) 95,45 %
07.11.2018 09:54 11,8 C 10,0 C 11,7 C 85 % 1011,5 hPa 0,0 l/m 11,1 km/h (2 Bft) O-NO 71 2 min 0,000 mm 0,6 UV-I 307 W/m 9,4 C 9,0 C 14,5 km/h (3 Bft) 94,64 %
07.11.2018 09:56 11,8 C 10,0 C 11,7 C 85 % 1011,5 hPa 0,0 l/m 12,2 km/h (2 Bft) O-NO 67 2 min 0,000 mm 0,6 UV-I 293 W/m 9,4 C 8,5 C 16,1 km/h (3 Bft) 97,56 %
07.11.2018 09:58 11,8 C 10,0 C 11,7 C 85 % 1011,4 hPa 0,0 l/m 12,9 km/h (3 Bft) O-NO 65 2 min 0,000 mm 0,7 UV-I 319 W/m 9,4 C 8,2 C 17,7 km/h (3 Bft) 92,45 %
07.11.2018 10:00 11,9 C 10,0 C 11,7 C 85 % 1011,5 hPa 0,0 l/m 11,7 km/h (2 Bft) O-NO 74 2 min 0,000 mm 0,6 UV-I 302 W/m 9,5 C 8,8 C 17,7 km/h (3 Bft) 95,74 %
07.11.2018 10:02 11,9 C 10,0 C 12,2 C 84 % 1011,4 hPa 0,0 l/m 11,4 km/h (2 Bft) O-NO 71 2 min 0,127 mm 0,7 UV-I 327 W/m 9,3 C 9,0 C 16,1 km/h (3 Bft) 97,37 %
07.11.2018 10:04 11,9 C 10,0 C 12,8 C 84 % 1011,4 hPa 0,0 l/m 12,5 km/h (3 Bft) O-NO 65 2 min 0,000 mm 0,7 UV-I 346 W/m 9,3 C 8,5 C 16,1 km/h (3 Bft) 96,00 %
07.11.2018 10:06 11,9 C 10,0 C 12,8 C 85 % 1011,4 hPa 0,0 l/m 11,9 km/h (2 Bft) O-NO 64 2 min 0,000 mm 0,7 UV-I 288 W/m 9,5 C 8,7 C 16,1 km/h (3 Bft) 94,34 %
07.11.2018 10:08 12,1 C 10,0 C 13,3 C 85 % 1011,4 hPa 0,0 l/m 10,3 km/h (2 Bft) O-NO 74 2 min 0,000 mm 0,7 UV-I 304 W/m 9,7 C 9,8 C 17,7 km/h (3 Bft) 94,74 %
07.11.2018 10:10 12,1 C 10,0 C 13,9 C 84 % 1011,3 hPa 0,0 l/m 13,4 km/h (3 Bft) O-NO 78 2 min 0,000 mm 0,7 UV-I 335 W/m 9,5 C 8,3 C 17,7 km/h (3 Bft) 97,56 %
07.11.2018 10:12 12,1 C 10,0 C 13,9 C 84 % 1011,4 hPa 0,0 l/m 13,3 km/h (3 Bft) O-NO 64 2 min 0,000 mm 0,7 UV-I 344 W/m 9,5 C 8,4 C 17,7 km/h (3 Bft) 98,11 %
07.11.2018 10:14 12,1 C 10,0 C 15,0 C 84 % 1011,4 hPa 0,0 l/m 13,1 km/h (3 Bft) O 87 2 min 0,000 mm 0,7 UV-I 351 W/m 9,5 C 8,4 C 17,7 km/h (3 Bft) 97,87 %
07.11.2018 10:16 12,1 C 10,0 C 15,6 C 84 % 1011,4 hPa 0,0 l/m 11,1 km/h (2 Bft) NO 35 2 min 0,000 mm 0,7 UV-I 350 W/m 9,5 C 9,4 C 17,7 km/h (3 Bft) 100,00 %
07.11.2018 10:18 12,2 C 10,0 C 15,6 C 84 % 1011,4 hPa 0,0 l/m 12,1 km/h (2 Bft) O-NO 64 2 min 0,000 mm 0,7 UV-I 349 W/m 9,6 C 9,0 C 17,7 km/h (3 Bft) 100,00 %
07.11.2018 10:20 12,2 C 10,0 C 15,6 C 84 % 1011,5 hPa 0,0 l/m 12,8 km/h (3 Bft) O 88 2 min 0,000 mm 0,7 UV-I 341 W/m 9,6 C 8,7 C 19,3 km/h (3 Bft) 100,00 %
07.11.2018 10:22 12,1 C 10,0 C 15,6 C 84 % 1011,4 hPa 0,0 l/m 9,7 km/h (2 Bft) O-NO 65 2 min 0,000 mm 0,8 UV-I 347 W/m 9,5 C 10,1 C 12,9 km/h (3 Bft) 100,00 %
07.11.2018 10:24 12,2 C 10,0 C 15,6 C 84 % 1011,4 hPa 0,0 l/m 10,5 km/h (2 Bft) O 85 2 min 0,000 mm 0,8 UV-I 346 W/m 9,6 C 9,8 C 16,1 km/h (3 Bft) 100,00 %
07.11.2018 10:26 12,3 C 10,0 C 15,0 C 84 % 1011,4 hPa 0,0 l/m 12,2 km/h (2 Bft) O-NO 68 2 min 0,000 mm 0,8 UV-I 336 W/m 9,7 C 9,1 C 16,1 km/h (3 Bft) 100,00 %
07.11.2018 10:28 12,3 C 10,0 C 14,4 C 83 % 1011,3 hPa 0,0 l/m 16,5 km/h (3 Bft) O-NO 69 2 min 0,000 mm 0,8 UV-I 347 W/m 9,5 C 7,4 C 19,3 km/h (3 Bft) 100,00 %
07.11.2018 10:30 12,3 C 10,0 C 14,4 C 84 % 1011,3 hPa 0,0 l/m 15,2 km/h (3 Bft) O-NO 69 2 min 0,000 mm 0,8 UV-I 357 W/m 9,7 C 7,8 C 20,9 km/h (4 Bft) 100,00 %
07.11.2018 10:32 12,3 C 10,0 C 13,9 C 83 % 1011,2 hPa 0,0 l/m 16,5 km/h (3 Bft) O 91 2 min 0,000 mm 0,8 UV-I 353 W/m 9,5 C 7,4 C 22,5 km/h (4 Bft) 100,00 %
07.11.2018 10:34 12,3 C 10,0 C 13,9 C 83 % 1011,3 hPa 0,0 l/m 16,9 km/h (3 Bft) O-NO 61 2 min 0,000 mm 0,8 UV-I 350 W/m 9,5 C 7,2 C 24,1 km/h (4 Bft) 100,00 %
07.11.2018 10:36 12,3 C 10,0 C 13,9 C 84 % 1011,2 hPa 0,0 l/m 14,3 km/h (3 Bft) O-NO 57 2 min 0,000 mm 0,8 UV-I 301 W/m 9,7 C 8,2 C 20,9 km/h (4 Bft) 97,73 %
07.11.2018 10:38 12,3 C 10,0 C 14,4 C 84 % 1011,2 hPa 0,0 l/m 18,6 km/h (3 Bft) O-NO 67 2 min 0,000 mm 0,8 UV-I 309 W/m 9,7 C 6,7 C 24,1 km/h (4 Bft) 100,00 %
07.11.2018 10:40 12,3 C 10,0 C 14,4 C 83 % 1011,2 hPa 0,0 l/m 14,2 km/h (3 Bft) NO 53 2 min 0,000 mm 0,8 UV-I 359 W/m 9,5 C 8,2 C 19,3 km/h (3 Bft) 100,00 %
07.11.2018 10:42 12,4 C 10,0 C 14,4 C 83 % 1011,1 hPa 0,0 l/m 12,4 km/h (3 Bft) O-NO 67 2 min 0,000 mm 0,8 UV-I 362 W/m 9,6 C 9,1 C 16,1 km/h (3 Bft) 100,00 %
07.11.2018 10:44 12,3 C 10,0 C 13,9 C 83 % 1011,1 hPa 0,0 l/m 17,7 km/h (3 Bft) O-NO 75 2 min 0,000 mm 0,8 UV-I 356 W/m 9,5 C 7,0 C 20,9 km/h (4 Bft) 98,11 %
07.11.2018 10:46 12,3 C 10,0 C 13,9 C 83 % 1011,1 hPa 0,0 l/m 14,9 km/h (3 Bft) O-NO 63 2 min 0,000 mm 0,8 UV-I 325 W/m 9,5 C 8,0 C 20,9 km/h (4 Bft) 100,00 %
07.11.2018 10:48 12,3 C 10,0 C 13,9 C 83 % 1011,1 hPa 0,0 l/m 11,6 km/h (2 Bft) O 90 2 min 0,000 mm 0,8 UV-I 336 W/m 9,5 C 9,3 C 17,7 km/h (3 Bft) 100,00 %
07.11.2018 10:50 12,4 C 10,0 C 13,9 C 83 % 1011,1 hPa 0,0 l/m 10,8 km/h (2 Bft) O-NO 60 2 min 0,000 mm 0,8 UV-I 367 W/m 9,6 C 9,8 C 16,1 km/h (3 Bft) 100,00 %
07.11.2018 10:52 12,4 C 10,0 C 13,9 C 83 % 1011,2 hPa 0,0 l/m 10,8 km/h (2 Bft) O 87 2 min 0,000 mm 0,8 UV-I 338 W/m 9,6 C 9,8 C 14,5 km/h (3 Bft) 100,00 %
07.11.2018 10:54 12,5 C 10,0 C 13,9 C 82 % 1011,3 hPa 0,0 l/m 7,6 km/h (2 Bft) NO 49 2 min 0,000 mm 0,9 UV-I 364 W/m 9,5 C 11,7 C 11,3 km/h (2 Bft) 100,00 %
07.11.2018 10:56 12,6 C 10,0 C 13,9 C 83 % 1011,4 hPa 0,0 l/m 6,6 km/h (2 Bft) O-SO 103 2 min 0,000 mm 0,8 UV-I 363 W/m 9,8 C 12,5 C 12,9 km/h (3 Bft) 100,00 %
07.11.2018 10:58 12,7 C 10,0 C 13,9 C 82 % 1011,4 hPa 0,0 l/m 8,3 km/h (2 Bft) O-SO 107 2 min 0,000 mm 0,8 UV-I 325 W/m 9,7 C 11,5 C 12,9 km/h (3 Bft) 100,00 %
07.11.2018 11:00 12,6 C 10,0 C 13,9 C 82 % 1011,3 hPa 0,0 l/m 9,1 km/h (2 Bft) O-NO 74 2 min 0,177 mm 0,9 UV-I 331 W/m 9,6 C 10,9 C 11,3 km/h (2 Bft) 98,00 %
07.11.2018 11:02 12,7 C 10,0 C 13,9 C 82 % 1011,2 hPa 0,0 l/m 9,8 km/h (2 Bft) O-SO 103 2 min 0,000 mm 0,9 UV-I 359 W/m 9,7 C 10,7 C 12,9 km/h (3 Bft) 97,22 %
07.11.2018 11:04 12,8 C 10,0 C 13,9 C 82 % 1011,1 hPa 0,0 l/m 7,3 km/h (2 Bft) NO 38 2 min 0,000 mm 0,8 UV-I 320 W/m 9,8 C 12,2 C 11,3 km/h (2 Bft) 98,00 %
07.11.2018 11:06 12,9 C 10,0 C 13,9 C 83 % 1011,1 hPa 0,0 l/m 8,0 km/h (2 Bft) O-NO 69 2 min 0,000 mm 0,9 UV-I 336 W/m 10,1 C 11,9 C 11,3 km/h (2 Bft) 100,00 %
07.11.2018 11:08 12,9 C 10,0 C 13,9 C 81 % 1011,1 hPa 0,0 l/m 9,3 km/h (2 Bft) O-NO 67 2 min 0,000 mm 0,9 UV-I 337 W/m 9,7 C 11,2 C 12,9 km/h (3 Bft) 98,00 %
07.11.2018 11:10 12,9 C 10,0 C 13,9 C 81 % 1011,1 hPa 0,0 l/m 10,8 km/h (2 Bft) O 94 2 min 0,000 mm 0,9 UV-I 345 W/m 9,7 C 10,4 C 16,1 km/h (3 Bft) 97,87 %
07.11.2018 11:12 12,9 C 10,0 C 13,9 C 81 % 1011,1 hPa 0,0 l/m 11,4 km/h (2 Bft) O-SO 113 2 min 0,000 mm 0,9 UV-I 389 W/m 9,7 C 10,1 C 17,7 km/h (3 Bft) 94,74 %
07.11.2018 11:14 13,0 C 10,0 C 14,4 C 81 % 1011,1 hPa 0,0 l/m 9,4 km/h (2 Bft) O-NO 63 2 min 0,000 mm 0,9 UV-I 383 W/m 9,8 C 11,2 C 14,5 km/h (3 Bft) 98,00 %
07.11.2018 11:16 13,2 C 10,0 C 14,4 C 82 % 1011,1 hPa 0,0 l/m 10,0 km/h (2 Bft) O 95 2 min 0,000 mm 0,9 UV-I 346 W/m 10,2 C 11,1 C 14,5 km/h (3 Bft) 96,23 %
07.11.2018 11:18 13,2 C 10,0 C 14,4 C 81 % 1011,0 hPa 0,0 l/m 9,5 km/h (2 Bft) O 82 2 min 0,000 mm 0,9 UV-I 319 W/m 10,0 C 11,4 C 14,5 km/h (3 Bft) 97,14 %
07.11.2018 11:20 13,2 C 10,0 C 14,4 C 81 % 1011,0 hPa 0,0 l/m 8,0 km/h (2 Bft) O-NO 74 2 min 0,000 mm 0,9 UV-I 339 W/m 10,0 C 12,2 C 12,9 km/h (3 Bft) 96,61 %
07.11.2018 11:22 13,3 C 10,0 C 15,0 C 81 % 1011,0 hPa 0,0 l/m 7,7 km/h (2 Bft) O-NO 78 2 min 0,000 mm 0,9 UV-I 353 W/m 10,1 C 12,5 C 11,3 km/h (2 Bft) 100,00 %
07.11.2018 11:24 13,4 C 10,0 C 15,0 C 82 % 1011,0 hPa 0,0 l/m 8,2 km/h (2 Bft) O 100 2 min 0,000 mm 0,9 UV-I 374 W/m 10,4 C 12,3 C 12,9 km/h (3 Bft) 96,00 %
07.11.2018 11:26 13,4 C 10,0 C 15,0 C 80 % 1010,9 hPa 0,0 l/m 9,5 km/h (2 Bft) O-NO 74 2 min 0,000 mm 0,9 UV-I 345 W/m 10,0 C 11,6 C 12,9 km/h (3 Bft) 94,34 %
07.11.2018 11:28 13,4 C 10,0 C 15,0 C 80 % 1010,8 hPa 0,0 l/m 10,5 km/h (2 Bft) O-NO 70 2 min 0,000 mm 0,9 UV-I 310 W/m 10,0 C 11,1 C 14,5 km/h (3 Bft) 95,12 %
07.11.2018 11:30 13,4 C 10,0 C 15,0 C 80 % 1010,9 hPa 0,0 l/m 7,7 km/h (2 Bft) O-NO 67 2 min 0,000 mm 0,9 UV-I 336 W/m 10,0 C 12,6 C 11,3 km/h (2 Bft) 96,00 %
07.11.2018 11:32 13,4 C 10,0 C 15,6 C 80 % 1010,8 hPa 0,0 l/m 8,6 km/h (2 Bft) O 81 2 min 0,000 mm 0,9 UV-I 404 W/m 10,0 C 12,1 C 12,9 km/h (3 Bft) 98,00 %
07.11.2018 11:34 13,5 C 10,0 C 15,6 C 81 % 1010,9 hPa 0,0 l/m 6,9 km/h (2 Bft) O-NO 63 2 min 0,000 mm 1,0 UV-I 429 W/m 10,3 C 13,2 C 12,9 km/h (3 Bft) 95,12 %
07.11.2018 11:36 13,7 C 10,0 C 15,6 C 80 % 1010,9 hPa 0,0 l/m 9,6 km/h (2 Bft) NO 36 2 min 0,000 mm 0,9 UV-I 399 W/m 10,3 C 11,9 C 14,5 km/h (3 Bft) 97,87 %
07.11.2018 11:38 13,8 C 10,0 C 15,6 C 81 % 1010,8 hPa 0,0 l/m 8,5 km/h (2 Bft) NO 46 2 min 0,000 mm 0,9 UV-I 347 W/m 10,6 C 12,6 C 11,3 km/h (2 Bft) 97,87 %
07.11.2018 11:40 13,9 C 10,0 C 15,6 C 79 % 1010,7 hPa 0,0 l/m 11,7 km/h (2 Bft) NO 40 2 min 0,000 mm 0,9 UV-I 288 W/m 10,3 C 11,1 C 16,1 km/h (3 Bft) 97,78 %
07.11.2018 11:42 13,9 C 10,0 C 15,0 C 80 % 1010,7 hPa 0,0 l/m 12,9 km/h (3 Bft) O 89 2 min 0,000 mm 0,9 UV-I 328 W/m 10,5 C 10,6 C 16,1 km/h (3 Bft) 97,56 %
07.11.2018 11:44 13,9 C 10,0 C 15,6 C 79 % 1010,7 hPa 0,0 l/m 8,4 km/h (2 Bft) O-NO 68 2 min 0,000 mm 0,9 UV-I 317 W/m 10,3 C 12,7 C 14,5 km/h (3 Bft) 98,00 %
07.11.2018 11:46 13,9 C 10,0 C 15,0 C 79 % 1010,7 hPa 0,0 l/m 8,0 km/h (2 Bft) N-NO 30 2 min 0,000 mm 0,9 UV-I 315 W/m 10,3 C 12,9 C 12,9 km/h (3 Bft) 93,62 %
07.11.2018 11:48 13,9 C 10,0 C 15,0 C 79 % 1010,7 hPa 0,0 l/m 9,6 km/h (2 Bft) N-NO 30 2 min 0,000 mm 0,9 UV-I 303 W/m 10,3 C 12,1 C 14,5 km/h (3 Bft) 96,23 %
07.11.2018 11:50 13,9 C 10,0 C 15,0 C 80 % 1010,7 hPa 0,0 l/m 8,8 km/h (2 Bft) O-NO 58 2 min 0,000 mm 0,9 UV-I 318 W/m 10,5 C 12,5 C 12,9 km/h (3 Bft) 98,00 %
07.11.2018 11:52 13,9 C 10,0 C 15,0 C 79 % 1010,7 hPa 0,0 l/m 9,7 km/h (2 Bft) NO 55 2 min 0,000 mm 0,9 UV-I 361 W/m 10,3 C 12,0 C 14,5 km/h (3 Bft) 97,37 %
07.11.2018 11:54 14,0 C 10,0 C 15,6 C 79 % 1010,7 hPa 0,0 l/m 11,3 km/h (2 Bft) O 84 2 min 0,000 mm 0,9 UV-I 407 W/m 10,4 C 11,4 C 16,1 km/h (3 Bft) 98,11 %
07.11.2018 11:56 14,1 C 10,0 C 15,6 C 79 % 1010,7 hPa 0,0 l/m 8,5 km/h (2 Bft) O-SO 109 2 min 0,000 mm 1,0 UV-I 417 W/m 10,5 C 12,9 C 11,3 km/h (2 Bft) 97,87 %
07.11.2018 11:58 14,2 C 10,0 C 15,6 C 78 % 1010,6 hPa 0,0 l/m 7,2 km/h (2 Bft) O-NO 76 2 min 0,000 mm 1,0 UV-I 427 W/m 10,4 C 13,7 C 11,3 km/h (2 Bft) 97,87 %
07.11.2018 12:00 14,3 C 10,0 C 16,1 C 78 % 1010,7 hPa 0,0 l/m 6,5 km/h (2 Bft) O-NO 69 2 min 0,204 mm 1,0 UV-I 414 W/m 10,5 C 14,3 C 9,7 km/h (2 Bft) 100,00 %
07.11.2018 12:02 14,3 C 10,0 C 16,1 C 77 % 1010,7 hPa 0,0 l/m 6,8 km/h (2 Bft) O-SO 109 2 min 0,000 mm 0,9 UV-I 360 W/m 10,3 C 14,1 C 11,3 km/h (2 Bft) 97,56 %
07.11.2018 12:04 14,3 C 10,0 C 16,1 C 77 % 1010,7 hPa 0,0 l/m 6,0 km/h (2 Bft) O-NO 76 2 min 0,000 mm 0,9 UV-I 332 W/m 10,3 C 14,3 C 11,3 km/h (2 Bft) 100,00 %
07.11.2018 12:06 14,3 C 10,0 C 16,1 C 78 % 1010,7 hPa 0,0 l/m 5,4 km/h (1 Bft) O 91 2 min 0,000 mm 0,9 UV-I 308 W/m 10,5 C 14,3 C 8,0 km/h (2 Bft) 100,00 %
07.11.2018 12:08 14,3 C 10,0 C 16,1 C 77 % 1010,7 hPa 0,0 l/m 6,5 km/h (2 Bft) O 100 2 min 0,000 mm 0,9 UV-I 335 W/m 10,3 C 14,3 C 11,3 km/h (2 Bft) 98,11 %
07.11.2018 12:10 14,3 C 10,0 C 16,1 C 77 % 1010,7 hPa 0,0 l/m 5,7 km/h (1 Bft) O 100 2 min 0,000 mm 0,9 UV-I 354 W/m 10,3 C 14,3 C 9,7 km/h (2 Bft) 100,00 %
07.11.2018 12:12 14,3 C 10,0 C 16,1 C 77 % 1010,7 hPa 0,0 l/m 6,2 km/h (2 Bft) O 99 2 min 0,000 mm 0,9 UV-I 380 W/m 10,3 C 14,3 C 11,3 km/h (2 Bft) 100,00 %
07.11.2018 12:14 14,4 C 10,0 C 16,1 C 77 % 1010,7 hPa 0,0 l/m 7,8 km/h (2 Bft) O-SO 111 2 min 0,000 mm 0,9 UV-I 328 W/m 10,4 C 13,6 C 11,3 km/h (2 Bft) 100,00 %
07.11.2018 12:16 14,6 C 10,0 C 16,7 C 77 % 1010,7 hPa 0,0 l/m 4,6 km/h (1 Bft) O-SO 107 2 min 0,000 mm 0,9 UV-I 370 W/m 10,6 C 14,6 C 9,7 km/h (2 Bft) 100,00 %
07.11.2018 12:18 14,6 C 10,0 C 16,1 C 76 % 1010,7 hPa 0,0 l/m 3,6 km/h (1 Bft) O-SO 109 2 min 0,000 mm 0,9 UV-I 353 W/m 10,4 C 14,6 C 4,8 km/h (1 Bft) 100,00 %
07.11.2018 12:20 14,4 C 10,0 C 16,1 C 76 % 1010,7 hPa 0,0 l/m 3,7 km/h (1 Bft) O-SO 115 2 min 0,000 mm 0,9 UV-I 324 W/m 10,2 C 14,4 C 6,4 km/h (2 Bft) 97,87 %
07.11.2018 12:22 14,3 C 10,0 C 16,1 C 76 % 1010,8 hPa 0,0 l/m 3,5 km/h (1 Bft) O-NO 78 2 min 0,000 mm 0,9 UV-I 312 W/m 10,1 C 14,3 C 6,4 km/h (2 Bft) 100,00 %
07.11.2018 12:24 14,3 C 10,0 C 16,1 C 78 % 1010,8 hPa 0,0 l/m 3,0 km/h (1 Bft) O-NO 77 2 min 0,000 mm 0,8 UV-I 272 W/m 10,5 C 14,3 C 4,8 km/h (1 Bft) 100,00 %
07.11.2018 12:26 14,4 C 10,0 C 16,1 C 78 % 1010,8 hPa 0,0 l/m 3,4 km/h (1 Bft) O 81 2 min 0,000 mm 0,8 UV-I 269 W/m 10,6 C 14,4 C 6,4 km/h (2 Bft) 100,00 %
07.11.2018 12:28 14,3 C 10,0 C 16,1 C 77 % 1010,8 hPa 0,0 l/m 2,2 km/h (1 Bft) SO 126 2 min 0,000 mm 0,8 UV-I 301 W/m 10,3 C 14,3 C 4,8 km/h (1 Bft) 97,56 %
07.11.2018 12:30 14,3 C 10,0 C 16,1 C 76 % 1010,8 hPa 0,0 l/m 4,0 km/h (1 Bft) SO 126 2 min 0,000 mm 0,8 UV-I 302 W/m 10,1 C 14,3 C 6,4 km/h (2 Bft) 97,87 %
07.11.2018 12:32 14,3 C 10,0 C 16,1 C 77 % 1010,7 hPa 0,0 l/m 3,0 km/h (1 Bft) SO 125 2 min 0,000 mm 0,8 UV-I 297 W/m 10,3 C 14,3 C 6,4 km/h (2 Bft) 94,00 %
07.11.2018 12:34 14,4 C 10,0 C 16,7 C 77 % 1010,7 hPa 0,0 l/m 2,4 km/h (1 Bft) SO 125 2 min 0,000 mm 0,8 UV-I 289 W/m 10,4 C 14,4 C 4,8 km/h (1 Bft) 98,00 %
07.11.2018 12:36 14,5 C 10,0 C 16,7 C 77 % 1010,7 hPa 0,0 l/m 3,5 km/h (1 Bft) SO 125 2 min 0,000 mm 0,8 UV-I 306 W/m 10,5 C 14,5 C 4,8 km/h (1 Bft) 97,37 %
07.11.2018 12:38 14,7 C 10,0 C 16,7 C 77 % 1010,7 hPa 0,0 l/m 3,5 km/h (1 Bft) O 92 2 min 0,000 mm 0,8 UV-I 297 W/m 10,7 C 14,7 C 6,4 km/h (2 Bft) 98,00 %
07.11.2018 12:40 14,7 C 10,0 C 16,7 C 76 % 1010,7 hPa 0,0 l/m 3,9 km/h (1 Bft) O-SO 120 2 min 0,000 mm 0,8 UV-I 330 W/m 10,5 C 14,7 C 6,4 km/h (2 Bft) 97,87 %
07.11.2018 12:42 14,8 C 10,0 C 16,7 C 76 % 1010,6 hPa 0,0 l/m 2,8 km/h (1 Bft) O-SO 120 2 min 0,000 mm 0,8 UV-I 327 W/m 10,6 C 14,8 C 4,8 km/h (1 Bft) 97,87 %
07.11.2018 12:44 14,9 C 10,0 C 16,7 C 75 % 1010,7 hPa 0,0 l/m 1,2 km/h (1 Bft) O-SO 121 2 min 0,000 mm 0,8 UV-I 278 W/m 10,5 C 14,9 C 3,2 km/h (1 Bft) 95,74 %
07.11.2018 12:46 14,9 C 10,0 C 16,7 C 75 % 1010,6 hPa 0,0 l/m 1,0 km/h (0 Bft) O-SO 121 2 min 0,000 mm 0,8 UV-I 251 W/m 10,5 C 14,9 C 3,2 km/h (1 Bft) 97,87 %
07.11.2018 12:48 14,9 C 10,0 C 16,7 C 76 % 1010,6 hPa 0,0 l/m 2,9 km/h (1 Bft) O-NO 75 2 min 0,000 mm 0,8 UV-I 232 W/m 10,7 C 14,9 C 4,8 km/h (1 Bft) 97,87 %
07.11.2018 12:50 14,8 C 10,0 C 16,7 C 75 % 1010,6 hPa 0,0 l/m 1,8 km/h (1 Bft) O-NO 75 0 min 0,000 mm 0,7 UV-I 217 W/m 10,4 C 14,8 C 3,2 km/h (1 Bft) 98,11 %
07.11.2018 12:52 14,8 C 10,0 C 16,1 C 76 % 1010,6 hPa 0,0 l/m 2,3 km/h (1 Bft) O-NO 65 2 min 0,000 mm 0,7 UV-I 250 W/m 10,6 C 14,8 C 4,8 km/h (1 Bft) 95,12 %
07.11.2018 12:54 14,8 C 10,0 C 16,1 C 75 % 1010,6 hPa 0,0 l/m 3,0 km/h (1 Bft) O-NO 65 2 min 0,000 mm 0,8 UV-I 287 W/m 10,4 C 14,8 C 4,8 km/h (1 Bft) 100,00 %
07.11.2018 12:56 15,0 C 10,0 C 16,7 C 76 % 1010,6 hPa 0,0 l/m 4,4 km/h (1 Bft) O-NO 64 2 min 0,000 mm 0,8 UV-I 306 W/m 10,8 C 15,0 C 6,4 km/h (2 Bft) 100,00 %
07.11.2018 12:58 15,1 C 10,0 C 16,7 C 77 % 1010,6 hPa 0,0 l/m 4,1 km/h (1 Bft) O-NO 65 2 min 0,000 mm 0,8 UV-I 335 W/m 11,1 C 15,1 C 6,4 km/h (2 Bft) 100,00 %
07.11.2018 13:00 15,2 C 10,0 C 16,7 C 74 % 1010,6 hPa 0,0 l/m 3,6 km/h (1 Bft) O 84 2 min 0,000 mm 0,8 UV-I 318 W/m 10,6 C 15,2 C 6,4 km/h (2 Bft) 97,87 %
07.11.2018 13:02 15,2 C 10,0 C 16,7 C 74 % 1010,6 hPa 0,0 l/m 2,0 km/h (1 Bft) O 84 2 min 0,177 mm 0,8 UV-I 314 W/m 10,6 C 15,2 C 4,8 km/h (1 Bft) 100,00 %
07.11.2018 13:04 15,2 C 10,0 C 16,7 C 74 % 1010,6 hPa 0,0 l/m 2,4 km/h (1 Bft) O 98 2 min 0,000 mm 0,8 UV-I 325 W/m 10,6 C 15,2 C 4,8 km/h (1 Bft) 100,00 %
07.11.2018 13:06 15,1 C 10,0 C 16,7 C 75 % 1010,6 hPa 0,0 l/m 3,1 km/h (1 Bft) O-SO 123 2 min 0,000 mm 0,8 UV-I 313 W/m 10,7 C 15,1 C 4,8 km/h (1 Bft) 100,00 %
07.11.2018 13:08 15,2 C 10,0 C 17,2 C 74 % 1010,5 hPa 0,0 l/m 3,6 km/h (1 Bft) O-SO 122 2 min 0,000 mm 0,8 UV-I 308 W/m 10,6 C 15,2 C 6,4 km/h (2 Bft) 98,11 %
07.11.2018 13:10 15,2 C 10,0 C 17,2 C 75 % 1010,6 hPa 0,0 l/m 1,5 km/h (1 Bft) O-SO 122 2 min 0,000 mm 0,8 UV-I 308 W/m 10,8 C 15,2 C 3,2 km/h (1 Bft) 95,74 %
07.11.2018 13:12 15,3 C 10,0 C 17,2 C 75 % 1010,6 hPa 0,0 l/m 2,1 km/h (1 Bft) O-SO 122 2 min 0,000 mm 0,8 UV-I 310 W/m 10,9 C 15,3 C 4,8 km/h (1 Bft) 97,37 %
07.11.2018 13:14 15,3 C 10,0 C 17,2 C 75 % 1010,6 hPa 0,0 l/m 3,2 km/h (1 Bft) O-SO 121 2 min 0,000 mm 0,8 UV-I 278 W/m 10,9 C 15,3 C 4,8 km/h (1 Bft) 98,00 %
07.11.2018 13:16 15,3 C 10,0 C 16,7 C 73 % 1010,6 hPa 0,0 l/m 3,0 km/h (1 Bft) O-SO 111 2 min 0,000 mm 0,7 UV-I 278 W/m 10,5 C 15,3 C 4,8 km/h (1 Bft) 98,00 %
07.11.2018 13:18 15,3 C 10,0 C 16,7 C 73 % 1010,6 hPa 0,0 l/m 1,5 km/h (1 Bft) O-SO 111 2 min 0,000 mm 0,7 UV-I 279 W/m 10,5 C 15,3 C 3,2 km/h (1 Bft) 95,74 %
07.11.2018 13:20 15,3 C 10,0 C 16,7 C 74 % 1010,6 hPa 0,0 l/m 0,8 km/h (0 Bft) O-SO 111 2 min 0,000 mm 0,7 UV-I 265 W/m 10,7 C 15,3 C 1,6 km/h (1 Bft) 97,56 %
07.11.2018 13:22 15,3 C 10,0 C 16,7 C 73 % 1010,6 hPa 0,0 l/m 2,9 km/h (1 Bft) O-SO 111 2 min 0,000 mm 0,7 UV-I 287 W/m 10,5 C 15,3 C 4,8 km/h (1 Bft) 98,00 %
07.11.2018 13:24 15,3 C 10,0 C 16,7 C 74 % 1010,6 hPa 0,0 l/m 0,9 km/h (0 Bft) O-SO 111 2 min 0,000 mm 0,7 UV-I 292 W/m 10,7 C 15,3 C 3,2 km/h (1 Bft) 97,87 %
07.11.2018 13:26 15,3 C 10,0 C 17,2 C 73 % 1010,5 hPa 0,0 l/m 0,6 km/h (0 Bft) O-SO 111 2 min 0,000 mm 0,7 UV-I 268 W/m 10,5 C 15,3 C 1,6 km/h (1 Bft) 97,73 %
07.11.2018 13:28 15,4 C 10,0 C 16,7 C 74 % 1010,5 hPa 0,0 l/m 3,2 km/h (1 Bft) O 90 2 min 0,000 mm 0,7 UV-I 277 W/m 10,8 C 15,4 C 4,8 km/h (1 Bft) 96,23 %
07.11.2018 13:30 15,5 C 10,0 C 16,7 C 74 % 1010,6 hPa 0,0 l/m 3,4 km/h (1 Bft) O 90 2 min 0,000 mm 0,7 UV-I 284 W/m 10,9 C 15,5 C 4,8 km/h (1 Bft) 97,44 %
07.11.2018 13:32 15,5 C 10,0 C 16,7 C 73 % 1010,6 hPa 0,0 l/m 0,5 km/h (0 Bft) O 90 2 min 0,000 mm 0,7 UV-I 287 W/m 10,7 C 15,5 C 1,6 km/h (1 Bft) 98,00 %
07.11.2018 13:34 15,4 C 10,0 C 16,7 C 73 % 1010,6 hPa 0,0 l/m 3,3 km/h (1 Bft) O 90 2 min 0,000 mm 0,6 UV-I 250 W/m 10,6 C 15,4 C 4,8 km/h (1 Bft) 97,56 %
07.11.2018 13:36 15,4 C 10,0 C 16,7 C 73 % 1010,6 hPa 0,0 l/m 2,1 km/h (1 Bft) O 90 2 min 0,000 mm 0,6 UV-I 265 W/m 10,6 C 15,4 C 3,2 km/h (1 Bft) 98,11 %
07.11.2018 13:38 15,5 C 10,0 C 16,7 C 74 % 1010,6 hPa 0,0 l/m 2,2 km/h (1 Bft) O 90 2 min 0,000 mm 0,6 UV-I 286 W/m 10,9 C 15,5 C 4,8 km/h (1 Bft) 98,00 %
07.11.2018 13:40 15,6 C 10,0 C 16,7 C 73 % 1010,6 hPa 0,0 l/m 0,8 km/h (0 Bft) O 90 2 min 0,000 mm 0,6 UV-I 267 W/m 10,8 C 15,6 C 3,2 km/h (1 Bft) 100,00 %
07.11.2018 13:42 15,5 C 10,0 C 16,7 C 73 % 1010,6 hPa 0,0 l/m 3,5 km/h (1 Bft) O 90 2 min 0,000 mm 0,6 UV-I 256 W/m 10,7 C 15,5 C 4,8 km/h (1 Bft) 100,00 %
07.11.2018 13:44 15,6 C 10,0 C 16,7 C 74 % 1010,5 hPa 0,0 l/m 3,1 km/h (1 Bft) O 90 2 min 0,000 mm 0,6 UV-I 274 W/m 11,0 C 15,6 C 4,8 km/h (1 Bft) 100,00 %
07.11.2018 13:46 15,7 C 10,0 C 16,7 C 74 % 1010,6 hPa 0,0 l/m 3,9 km/h (1 Bft) O 92 2 min 0,000 mm 0,6 UV-I 269 W/m 11,1 C 15,7 C 6,4 km/h (2 Bft) 96,00 %
07.11.2018 13:48 15,7 C 10,0 C 16,7 C 73 % 1010,6 hPa 0,0 l/m 3,0 km/h (1 Bft) O 92 2 min 0,000 mm 0,6 UV-I 211 W/m 10,9 C 15,7 C 4,8 km/h (1 Bft) 100,00 %
07.11.2018 13:50 15,7 C 10,0 C 16,7 C 73 % 1010,6 hPa 0,0 l/m 1,9 km/h (1 Bft) O 92 2 min 0,000 mm 0,6 UV-I 200 W/m 10,9 C 15,7 C 3,2 km/h (1 Bft) 100,00 %
07.11.2018 13:52 15,6 C 10,0 C 16,7 C 73 % 1010,6 hPa 0,0 l/m 2,4 km/h (1 Bft) O 92 0 min 0,000 mm 0,5 UV-I 173 W/m 10,8 C 15,6 C 4,8 km/h (1 Bft) 97,37 %
07.11.2018 13:54 15,6 C 10,0 C 16,1 C 74 % 1010,5 hPa 0,0 l/m 2,9 km/h (1 Bft) O 92 0 min 0,000 mm 0,5 UV-I 184 W/m 11,0 C 15,6 C 3,2 km/h (1 Bft) 100,00 %
07.11.2018 13:56 15,5 C 10,0 C 16,1 C 73 % 1010,5 hPa 0,0 l/m 3,1 km/h (1 Bft) O 92 0 min 0,000 mm 0,5 UV-I 185 W/m 10,7 C 15,5 C 4,8 km/h (1 Bft) 100,00 %
07.11.2018 13:58 15,6 C 10,0 C 16,1 C 74 % 1010,5 hPa 0,0 l/m 3,9 km/h (1 Bft) O 92 2 min 0,000 mm 0,5 UV-I 194 W/m 11,0 C 15,6 C 4,8 km/h (1 Bft) 98,21 %
07.11.2018 14:00 15,6 C 10,0 C 16,1 C 74 % 1010,6 hPa 0,0 l/m 2,6 km/h (1 Bft) O 92 2 min 0,000 mm 0,5 UV-I 196 W/m 11,0 C 15,6 C 3,2 km/h (1 Bft) 96,00 %
07.11.2018 14:02 15,6 C 10,0 C 16,1 C 74 % 1010,6 hPa 0,0 l/m 2,8 km/h (1 Bft) O 93 2 min 0,153 mm 0,5 UV-I 206 W/m 11,0 C 15,6 C 4,8 km/h (1 Bft) 94,74 %
07.11.2018 14:04 15,6 C 10,0 C 16,7 C 73 % 1010,6 hPa 0,0 l/m 2,7 km/h (1 Bft) O 93 2 min 0,000 mm 0,5 UV-I 225 W/m 10,8 C 15,6 C 4,8 km/h (1 Bft) 96,43 %
07.11.2018 14:06 15,7 C 10,0 C 16,7 C 73 % 1010,6 hPa 0,0 l/m 2,8 km/h (1 Bft) O 94 2 min 0,000 mm 0,5 UV-I 239 W/m 10,9 C 15,7 C 4,8 km/h (1 Bft) 100,00 %
07.11.2018 14:08 15,7 C 10,0 C 16,7 C 74 % 1010,6 hPa 0,0 l/m 2,7 km/h (1 Bft) O 96 2 min 0,000 mm 0,5 UV-I 237 W/m 11,1 C 15,7 C 4,8 km/h (1 Bft) 94,34 %
07.11.2018 14:10 15,7 C 10,0 C 16,7 C 73 % 1010,6 hPa 0,0 l/m 2,9 km/h (1 Bft) O 95 2 min 0,000 mm 0,5 UV-I 228 W/m 10,9 C 15,7 C 4,8 km/h (1 Bft) 97,73 %
07.11.2018 14:12 15,7 C 10,0 C 16,7 C 74 % 1010,6 hPa 0,0 l/m 3,4 km/h (1 Bft) O-NO 76 2 min 0,000 mm 0,5 UV-I 246 W/m 11,1 C 15,7 C 4,8 km/h (1 Bft) 97,44 %
07.11.2018 14:14 15,7 C 10,0 C 16,7 C 74 % 1010,6 hPa 0,0 l/m 3,3 km/h (1 Bft) O-NO 76 2 min 0,000 mm 0,5 UV-I 222 W/m 11,1 C 15,7 C 4,8 km/h (1 Bft) 98,00 %
07.11.2018 14:16 15,7 C 10,0 C 16,7 C 73 % 1010,6 hPa 0,0 l/m 3,0 km/h (1 Bft) O-NO 77 2 min 0,000 mm 0,5 UV-I 239 W/m 10,9 C 15,7 C 4,8 km/h (1 Bft) 95,74 %
07.11.2018 14:18 15,7 C 10,0 C 16,7 C 74 % 1010,6 hPa 0,0 l/m 1,1 km/h (1 Bft) O-NO 77 2 min 0,000 mm 0,5 UV-I 248 W/m 11,1 C 15,7 C 3,2 km/h (1 Bft) 96,00 %
07.11.2018 14:20 15,7 C 10,0 C 16,7 C 74 % 1010,6 hPa 0,0 l/m 2,3 km/h (1 Bft) O-NO 77 2 min 0,000 mm 0,4 UV-I 237 W/m 11,1 C 15,7 C 3,2 km/h (1 Bft) 96,00 %
07.11.2018 14:22 15,7 C 10,0 C 16,1 C 74 % 1010,6 hPa 0,0 l/m 3,1 km/h (1 Bft) O-NO 77 2 min 0,000 mm 0,0 UV-I 203 W/m 11,1 C 15,7 C 4,8 km/h (1 Bft) 97,56 %
07.11.2018 14:24 15,6 C 10,0 C 15,6 C 74 % 1010,6 hPa 0,0 l/m 3,8 km/h (1 Bft) O-NO 76 2 min 0,000 mm 0,0 UV-I 210 W/m 11,0 C 15,6 C 4,8 km/h (1 Bft) 100,00 %
07.11.2018 14:26 15,6 C 10,0 C 15,6 C 74 % 1010,7 hPa 0,0 l/m 1,2 km/h (1 Bft) O-NO 76 2 min 0,000 mm 0,0 UV-I 205 W/m 11,0 C 15,6 C 3,2 km/h (1 Bft) 100,00 %
07.11.2018 14:28 15,6 C 10,0 C 15,6 C 74 % 1010,7 hPa 0,0 l/m 1,4 km/h (1 Bft) O-NO 76 2 min 0,000 mm 0,0 UV-I 200 W/m 11,0 C 15,6 C 3,2 km/h (1 Bft) 100,00 %
07.11.2018 14:30 15,7 C 10,0 C 15,6 C 74 % 1010,7 hPa 0,0 l/m 2,4 km/h (1 Bft) O-NO 76 2 min 0,000 mm 0,0 UV-I 204 W/m 11,1 C 15,7 C 3,2 km/h (1 Bft) 100,00 %
07.11.2018 14:32 15,7 C 10,0 C 15,6 C 74 % 1010,7 hPa 0,0 l/m 1,4 km/h (1 Bft) O-NO 76 2 min 0,000 mm 0,0 UV-I 218 W/m 11,1 C 15,7 C 3,2 km/h (1 Bft) 100,00 %
07.11.2018 14:34 15,7 C 10,0 C 15,6 C 74 % 1010,8 hPa 0,0 l/m 1,8 km/h (1 Bft) O-NO 76 2 min 0,000 mm 0,0 UV-I 214 W/m 11,1 C 15,7 C 3,2 km/h (1 Bft) 100,00 %
07.11.2018 14:36 15,7 C 10,0 C 15,6 C 74 % 1010,7 hPa 0,0 l/m 2,0 km/h (1 Bft) O-NO 76 2 min 0,000 mm 0,0 UV-I 216 W/m 11,1 C 15,7 C 4,8 km/h (1 Bft) 100,00 %
07.11.2018 14:38 15,7 C 10,0 C 15,6 C 75 % 1010,7 hPa 0,0 l/m 4,1 km/h (1 Bft) O-NO 73 2 min 0,000 mm 0,0 UV-I 230 W/m 11,3 C 15,7 C 4,8 km/h (1 Bft) 97,73 %
07.11.2018 14:40 15,7 C 10,0 C 15,6 C 75 % 1010,7 hPa 0,0 l/m 3,7 km/h (1 Bft) O-NO 73 2 min 0,000 mm 0,0 UV-I 214 W/m 11,3 C 15,7 C 4,8 km/h (1 Bft) 100,00 %
07.11.2018 14:42 15,7 C 10,0 C 15,6 C 75 % 1010,7 hPa 0,0 l/m 2,3 km/h (1 Bft) O-NO 73 2 min 0,000 mm 0,0 UV-I 201 W/m 11,3 C 15,7 C 3,2 km/h (1 Bft) 97,87 %
07.11.2018 14:44 15,6 C 10,0 C 15,0 C 75 % 1010,7 hPa 0,0 l/m 3,0 km/h (1 Bft) O-NO 71 2 min 0,000 mm 0,0 UV-I 175 W/m 11,2 C 15,6 C 4,8 km/h (1 Bft) 97,73 %
07.11.2018 14:46 15,6 C 10,0 C 15,0 C 75 % 1010,8 hPa 0,0 l/m 1,9 km/h (1 Bft) O-NO 71 2 min 0,000 mm 0,0 UV-I 182 W/m 11,2 C 15,6 C 3,2 km/h (1 Bft) 97,78 %
07.11.2018 14:48 15,6 C 10,0 C 15,0 C 75 % 1010,8 hPa 0,0 l/m 2,7 km/h (1 Bft) O-NO 71 2 min 0,000 mm 0,0 UV-I 201 W/m 11,2 C 15,6 C 4,8 km/h (1 Bft) 95,92 %
07.11.2018 14:50 15,6 C 10,0 C 15,0 C 75 % 1010,8 hPa 0,0 l/m 1,5 km/h (1 Bft) O-NO 71 2 min 0,000 mm 0,0 UV-I 198 W/m 11,2 C 15,6 C 3,2 km/h (1 Bft) 97,44 %
07.11.2018 14:52 15,6 C 10,0 C 15,0 C 76 % 1010,8 hPa 0,0 l/m 2,3 km/h (1 Bft) O-NO 71 2 min 0,000 mm 0,0 UV-I 183 W/m 11,4 C 15,6 C 3,2 km/h (1 Bft) 96,23 %
07.11.2018 14:54 15,6 C 10,0 C 14,4 C 75 % 1010,8 hPa 0,0 l/m 3,3 km/h (1 Bft) O-NO 71 2 min 0,000 mm 0,0 UV-I 168 W/m 11,2 C 15,6 C 4,8 km/h (1 Bft) 97,87 %
07.11.2018 14:56 15,6 C 10,0 C 14,4 C 75 % 1010,8 hPa 0,0 l/m 2,7 km/h (1 Bft) O-NO 71 2 min 0,000 mm 0,0 UV-I 150 W/m 11,2 C 15,6 C 3,2 km/h (1 Bft) 94,29 %
07.11.2018 14:58 15,6 C 10,0 C 14,4 C 75 % 1010,8 hPa 0,0 l/m 1,9 km/h (1 Bft) O-NO 71 2 min 0,000 mm 0,0 UV-I 138 W/m 11,2 C 15,6 C 3,2 km/h (1 Bft) 94,64 %
07.11.2018 15:00 15,6 C 10,0 C 14,4 C 76 % 1010,8 hPa 0,0 l/m 2,8 km/h (1 Bft) O-NO 71 2 min 0,127 mm 0,0 UV-I 140 W/m 11,4 C 15,6 C 4,8 km/h (1 Bft) 96,23 %
07.11.2018 15:02 15,5 C 10,0 C 14,4 C 75 % 1010,8 hPa 0,0 l/m 3,5 km/h (1 Bft) O-NO 72 2 min 0,000 mm 0,0 UV-I 140 W/m 11,1 C 15,5 C 4,8 km/h (1 Bft) 97,87 %
07.11.2018 15:04 15,5 C 10,0 C 14,4 C 75 % 1010,9 hPa 0,0 l/m 2,7 km/h (1 Bft) O-NO 72 2 min 0,000 mm 0,0 UV-I 144 W/m 11,1 C 15,5 C 4,8 km/h (1 Bft) 96,00 %
07.11.2018 15:06 15,4 C 10,0 C 13,9 C 75 % 1010,9 hPa 0,0 l/m 2,4 km/h (1 Bft) O-NO 71 2 min 0,000 mm 0,0 UV-I 134 W/m 11,0 C 15,4 C 4,8 km/h (1 Bft) 95,74 %
07.11.2018 15:08 15,4 C 10,0 C 13,9 C 76 % 1010,9 hPa 0,0 l/m 3,4 km/h (1 Bft) O-NO 71 2 min 0,000 mm 0,0 UV-I 125 W/m 11,2 C 15,4 C 4,8 km/h (1 Bft) 94,29 %
07.11.2018 15:10 15,4 C 10,0 C 13,9 C 77 % 1010,9 hPa 0,0 l/m 3,0 km/h (1 Bft) O-NO 71 2 min 0,000 mm 0,0 UV-I 121 W/m 11,4 C 15,4 C 4,8 km/h (1 Bft) 92,86 %
07.11.2018 15:12 15,3 C 10,0 C 13,9 C 76 % 1010,9 hPa 0,0 l/m 2,2 km/h (1 Bft) O-NO 71 2 min 0,000 mm 0,0 UV-I 108 W/m 11,1 C 15,3 C 3,2 km/h (1 Bft) 96,00 %
07.11.2018 15:14 15,3 C 10,0 C 13,9 C 76 % 1010,9 hPa 0,0 l/m 1,9 km/h (1 Bft) O-NO 71 0 min 0,000 mm 0,0 UV-I 89 W/m 11,1 C 15,3 C 3,2 km/h (1 Bft) 94,29 %
07.11.2018 15:16 15,3 C 10,0 C 13,3 C 76 % 1010,9 hPa 0,0 l/m 1,4 km/h (1 Bft) O-NO 71 0 min 0,000 mm 0,0 UV-I 76 W/m 11,1 C 15,3 C 3,2 km/h (1 Bft) 95,74 %
07.11.2018 15:18 15,3 C 10,0 C 13,3 C 76 % 1011,0 hPa 0,0 l/m 0,5 km/h (0 Bft) O-NO 71 0 min 0,000 mm 0,0 UV-I 66 W/m 11,1 C 15,3 C 1,6 km/h (1 Bft) 93,62 %
07.11.2018 15:20 15,3 C 10,0 C 12,8 C 76 % 1011,0 hPa 0,0 l/m 1,0 km/h (0 Bft) O-NO 71 0 min 0,000 mm 0,0 UV-I 63 W/m 11,1 C 15,3 C 1,6 km/h (1 Bft) 95,74 %
07.11.2018 15:22 15,3 C 10,0 C 12,2 C 76 % 1011,0 hPa 0,0 l/m 1,2 km/h (1 Bft) O-NO 71 0 min 0,000 mm 0,0 UV-I 63 W/m 11,1 C 15,3 C 1,6 km/h (1 Bft) 93,75 %
07.11.2018 15:24 15,3 C 10,0 C 12,2 C 76 % 1011,0 hPa 0,0 l/m 0,7 km/h (0 Bft) O-NO 71 0 min 0,000 mm 0,0 UV-I 66 W/m 11,1 C 15,3 C 1,6 km/h (1 Bft) 90,00 %
07.11.2018 15:26 15,3 C 10,0 C 12,2 C 76 % 1011,0 hPa 0,0 l/m 0,0 km/h (0 Bft) O-NO 71 0 min 0,000 mm 0,0 UV-I 71 W/m 11,1 C 15,3 C 0,0 km/h (0 Bft) 93,62 %
07.11.2018 15:28 15,3 C 10,0 C 11,7 C 76 % 1011,0 hPa 0,0 l/m 1,0 km/h (0 Bft) O-NO 71 0 min 0,000 mm 0,0 UV-I 76 W/m 11,1 C 15,3 C 3,2 km/h (1 Bft) 90,00 %
07.11.2018 15:30 15,2 C 10,0 C 11,7 C 76 % 1011,0 hPa 0,0 l/m 0,9 km/h (0 Bft) O-NO 71 0 min 0,000 mm 0,0 UV-I 77 W/m 11,0 C 15,2 C 1,6 km/h (1 Bft) 94,00 %
07.11.2018 15:32 15,2 C 10,0 C 11,7 C 77 % 1011,0 hPa 0,0 l/m 1,5 km/h (1 Bft) O-NO 71 0 min 0,000 mm 0,0 UV-I 74 W/m 11,2 C 15,2 C 3,2 km/h (1 Bft) 92,11 %
07.11.2018 15:34 15,1 C 10,0 C 11,7 C 78 % 1011,0 hPa 0,0 l/m 1,6 km/h (1 Bft) O-NO 71 0 min 0,000 mm 0,0 UV-I 69 W/m 11,3 C 15,1 C 3,2 km/h (1 Bft) 94,00 %
07.11.2018 15:36 15,1 C 10,0 C 11,7 C 79 % 1011,0 hPa 0,0 l/m 1,1 km/h (1 Bft) O-NO 71 0 min 0,000 mm 0,0 UV-I 65 W/m 11,5 C 15,1 C 1,6 km/h (1 Bft) 94,00 %
07.11.2018 15:38 14,9 C 10,0 C 11,7 C 80 % 1011,0 hPa 0,0 l/m 0,0 km/h (0 Bft) O-NO 71 0 min 0,000 mm 0,0 UV-I 63 W/m 11,5 C 14,9 C 0,0 km/h (0 Bft) 89,36 %
07.11.2018 15:40 14,8 C 10,0 C 11,7 C 80 % 1011,0 hPa 0,0 l/m 0,0 km/h (0 Bft) O-NO 71 0 min 0,000 mm 0,0 UV-I 61 W/m 11,4 C 14,8 C 0,0 km/h (0 Bft) 89,47 %
07.11.2018 15:42 14,7 C 10,0 C 11,7 C 81 % 1011,0 hPa 0,0 l/m 0,0 km/h (0 Bft) O-NO 71 0 min 0,000 mm 0,0 UV-I 60 W/m 11,5 C 14,7 C 1,6 km/h (1 Bft) 91,07 %
07.11.2018 15:44 14,5 C 10,0 C 12,2 C 81 % 1011,0 hPa 0,0 l/m 1,2 km/h (1 Bft) O-NO 71 0 min 0,000 mm 0,0 UV-I 60 W/m 11,3 C 14,5 C 1,6 km/h (1 Bft) 95,74 %
07.11.2018 15:46 14,4 C 10,0 C 12,2 C 81 % 1011,1 hPa 0,0 l/m 1,4 km/h (1 Bft) O-NO 71 0 min 0,000 mm 0,0 UV-I 60 W/m 11,2 C 14,4 C 3,2 km/h (1 Bft) 97,56 %
07.11.2018 15:48 14,3 C 10,0 C 12,2 C 82 % 1011,0 hPa 0,0 l/m 1,6 km/h (1 Bft) O-NO 71 0 min 0,000 mm 0,0 UV-I 57 W/m 11,3 C 14,3 C 3,2 km/h (1 Bft) 98,11 %
07.11.2018 15:50 14,2 C 10,0 C 12,2 C 82 % 1011,0 hPa 0,0 l/m 1,4 km/h (1 Bft) O-NO 71 0 min 0,000 mm 0,0 UV-I 56 W/m 11,2 C 14,2 C 1,6 km/h (1 Bft) 97,37 %
07.11.2018 15:52 14,1 C 10,0 C 11,7 C 83 % 1011,1 hPa 0,0 l/m 1,6 km/h (1 Bft) O-NO 71 0 min 0,000 mm 0,0 UV-I 54 W/m 11,3 C 14,1 C 3,2 km/h (1 Bft) 95,74 %
07.11.2018 15:54 14,0 C 10,0 C 11,7 C 83 % 1011,1 hPa 0,0 l/m 1,5 km/h (1 Bft) O-NO 71 2 min 0,000 mm 0,0 UV-I 53 W/m 11,2 C 14,0 C 1,6 km/h (1 Bft) 98,00 %
07.11.2018 15:56 13,9 C 10,0 C 11,1 C 83 % 1011,1 hPa 0,0 l/m 1,5 km/h (1 Bft) O-NO 71 2 min 0,000 mm 0,0 UV-I 51 W/m 11,1 C 13,9 C 3,2 km/h (1 Bft) 96,00 %
07.11.2018 15:58 13,8 C 10,0 C 11,1 C 84 % 1011,1 hPa 0,0 l/m 1,7 km/h (1 Bft) O-NO 71 2 min 0,000 mm 0,0 UV-I 50 W/m 11,1 C 13,8 C 3,2 km/h (1 Bft) 98,00 %
07.11.2018 16:00 13,8 C 10,0 C 11,1 C 84 % 1011,0 hPa 0,0 l/m 1,7 km/h (1 Bft) O-NO 71 2 min 0,000 mm 0,0 UV-I 46 W/m 11,1 C 13,8 C 3,2 km/h (1 Bft) 100,00 %
07.11.2018 16:02 13,8 C 10,0 C 10,6 C 84 % 1011,0 hPa 0,0 l/m 2,0 km/h (1 Bft) O-NO 71 2 min 0,051 mm 0,0 UV-I 44 W/m 11,1 C 13,8 C 3,2 km/h (1 Bft) 100,00 %
07.11.2018 16:04 13,7 C 10,0 C 10,6 C 84 % 1011,0 hPa 0,0 l/m 1,8 km/h (1 Bft) O-NO 71 2 min 0,000 mm 0,0 UV-I 43 W/m 11,0 C 13,7 C 3,2 km/h (1 Bft) 98,00 %
07.11.2018 16:06 13,7 C 10,0 C 10,6 C 85 % 1011,0 hPa 0,0 l/m 2,1 km/h (1 Bft) O-NO 71 2 min 0,000 mm 0,0 UV-I 41 W/m 11,2 C 13,7 C 3,2 km/h (1 Bft) 100,00 %
07.11.2018 16:08 13,7 C 10,0 C 10,0 C 85 % 1011,0 hPa 0,0 l/m 2,0 km/h (1 Bft) O-NO 71 2 min 0,000 mm 0,0 UV-I 40 W/m 11,2 C 13,7 C 3,2 km/h (1 Bft) 100,00 %
07.11.2018 16:10 13,6 C 10,0 C 10,0 C 85 % 1011,1 hPa 0,0 l/m 3,0 km/h (1 Bft) O-SO 102 2 min 0,000 mm 0,0 UV-I 38 W/m 11,1 C 13,6 C 4,8 km/h (1 Bft) 100,00 %
07.11.2018 16:12 13,4 C 10,0 C 10,0 C 85 % 1011,0 hPa 0,0 l/m 3,0 km/h (1 Bft) O-SO 102 2 min 0,000 mm 0,0 UV-I 36 W/m 10,9 C 13,4 C 4,8 km/h (1 Bft) 100,00 %
07.11.2018 16:14 13,3 C 10,0 C 10,0 C 85 % 1011,1 hPa 0,0 l/m 2,2 km/h (1 Bft) O-SO 102 2 min 0,000 mm 0,0 UV-I 34 W/m 10,8 C 13,3 C 3,2 km/h (1 Bft) 96,00 %
07.11.2018 16:16 13,3 C 10,0 C 10,0 C 86 % 1011,1 hPa 0,0 l/m 1,2 km/h (1 Bft) O-SO 102 2 min 0,000 mm 0,0 UV-I 32 W/m 11,0 C 13,3 C 1,6 km/h (1 Bft) 100,00 %
07.11.2018 16:18 13,4 C 10,0 C 9,4 C 85 % 1011,1 hPa 0,0 l/m 0,8 km/h (0 Bft) O-SO 102 2 min 0,000 mm 0,0 UV-I 31 W/m 10,9 C 13,4 C 1,6 km/h (1 Bft) 100,00 %
07.11.2018 16:20 13,5 C 10,0 C 9,4 C 85 % 1011,1 hPa 0,0 l/m 0,8 km/h (0 Bft) O-SO 102 2 min 0,000 mm 0,0 UV-I 28 W/m 11,0 C 13,5 C 1,6 km/h (1 Bft) 97,87 %
07.11.2018 16:22 13,5 C 10,0 C 8,9 C 85 % 1011,1 hPa 0,0 l/m 0,2 km/h (0 Bft) O-SO 102 2 min 0,000 mm 0,0 UV-I 28 W/m 11,0 C 13,5 C 1,6 km/h (1 Bft) 100,00 %
07.11.2018 16:24 13,4 C 10,0 C 8,9 C 84 % 1011,1 hPa 0,0 l/m 0,4 km/h (0 Bft) O-SO 102 2 min 0,000 mm 0,0 UV-I 24 W/m 10,8 C 13,4 C 1,6 km/h (1 Bft) 98,00 %
07.11.2018 16:26 13,4 C 10,0 C 8,3 C 85 % 1011,1 hPa 0,0 l/m 1,4 km/h (1 Bft) O-SO 102 0 min 0,000 mm 0,0 UV-I 19 W/m 10,9 C 13,4 C 1,6 km/h (1 Bft) 100,00 %
07.11.2018 16:28 13,4 C 10,0 C 8,3 C 85 % 1011,1 hPa 0,0 l/m 1,4 km/h (1 Bft) O-SO 102 0 min 0,000 mm 0,0 UV-I 17 W/m 10,9 C 13,4 C 1,6 km/h (1 Bft) 98,00 %
07.11.2018 16:30 13,5 C 10,0 C 7,8 C 84 % 1011,2 hPa 0,0 l/m 1,1 km/h (1 Bft) O-SO 102 0 min 0,000 mm 0,0 UV-I 16 W/m 10,8 C 13,5 C 1,6 km/h (1 Bft) 100,00 %
07.11.2018 16:32 13,3 C 10,0 C 7,8 C 84 % 1011,2 hPa 0,0 l/m 0,6 km/h (0 Bft) O-SO 102 0 min 0,000 mm 0,0 UV-I 13 W/m 10,7 C 13,3 C 1,6 km/h (1 Bft) 98,21 %
07.11.2018 16:34 12,9 C 10,0 C 7,8 C 84 % 1011,2 hPa 0,0 l/m 1,6 km/h (1 Bft) O-SO 102 0 min 0,000 mm 0,0 UV-I 12 W/m 10,3 C 12,9 C 3,2 km/h (1 Bft) 100,00 %
07.11.2018 16:36 12,6 C 10,0 C 7,8 C 86 % 1011,1 hPa 0,0 l/m 2,1 km/h (1 Bft) O-SO 102 0 min 0,000 mm 0,0 UV-I 11 W/m 10,3 C 12,6 C 3,2 km/h (1 Bft) 100,00 %
07.11.2018 16:38 12,4 C 10,0 C 7,8 C 87 % 1011,1 hPa 0,0 l/m 2,5 km/h (1 Bft) O-SO 102 0 min 0,000 mm 0,0 UV-I 9 W/m 10,3 C 12,4 C 3,2 km/h (1 Bft) 100,00 %
07.11.2018 16:40 12,4 C 10,0 C 7,2 C 87 % 1011,1 hPa 0,0 l/m 2,9 km/h (1 Bft) O-SO 102 0 min 0,000 mm 0,0 UV-I 7 W/m 10,3 C 12,4 C 3,2 km/h (1 Bft) 100,00 %
07.11.2018 16:42 12,2 C 10,0 C 7,8 C 87 % 1011,2 hPa 0,0 l/m 2,1 km/h (1 Bft) O-SO 102 0 min 0,000 mm 0,0 UV-I 9 W/m 10,1 C 12,2 C 3,2 km/h (1 Bft) 100,00 %
07.11.2018 16:44 12,1 C 10,0 C 7,8 C 88 % 1011,3 hPa 0,0 l/m 1,3 km/h (1 Bft) O-SO 102 0 min 0,000 mm 0,0 UV-I 7 W/m 10,2 C 12,1 C 1,6 km/h (1 Bft) 97,78 %
07.11.2018 16:46 12,1 C 10,0 C 7,2 C 88 % 1011,3 hPa 0,0 l/m 0,2 km/h (0 Bft) O-SO 102 0 min 0,000 mm 0,0 UV-I 5 W/m 10,2 C 12,1 C 1,6 km/h (1 Bft) 98,00 %
07.11.2018 16:48 12,0 C 10,0 C 7,2 C 89 % 1011,3 hPa 0,0 l/m 0,1 km/h (0 Bft) O-SO 102 0 min 0,000 mm 0,0 UV-I 5 W/m 10,2 C 12,0 C 1,6 km/h (1 Bft) 95,74 %
07.11.2018 16:50 12,1 C 10,0 C 7,2 C 89 % 1011,4 hPa 0,0 l/m 0,9 km/h (0 Bft) O-SO 102 0 min 0,000 mm 0,0 UV-I 4 W/m 10,3 C 12,1 C 1,6 km/h (1 Bft) 97,56 %
07.11.2018 16:52 12,2 C 10,0 C 7,2 C 89 % 1011,4 hPa 0,0 l/m 1,1 km/h (1 Bft) O-SO 102 0 min 0,000 mm 0,0 UV-I 0 W/m 10,4 C 12,2 C 1,6 km/h (1 Bft) 94,34 %
07.11.2018 16:54 12,2 C 10,0 C 7,2 C 88 % 1011,4 hPa 0,0 l/m 1,5 km/h (1 Bft) O-SO 102 0 min 0,000 mm 0,0 UV-I 0 W/m 10,3 C 12,2 C 1,6 km/h (1 Bft) 95,74 %
07.11.2018 16:56 12,1 C 10,0 C 6,7 C 88 % 1011,4 hPa 0,0 l/m 0,9 km/h (0 Bft) O-SO 102 0 min 0,000 mm 0,0 UV-I 0 W/m 10,2 C 12,1 C 1,6 km/h (1 Bft) 97,37 %
07.11.2018 16:58 12,0 C 10,0 C 6,7 C 88 % 1011,4 hPa 0,0 l/m 1,1 km/h (1 Bft) O-SO 102 0 min 0,000 mm 0,0 UV-I 0 W/m 10,1 C 12,0 C 1,6 km/h (1 Bft) 97,14 %
07.11.2018 17:00 11,9 C 10,0 C 7,2 C 89 % 1011,4 hPa 0,0 l/m 1,6 km/h (1 Bft) O-SO 102 0 min 0,025 mm 0,0 UV-I 0 W/m 10,1 C 11,9 C 3,2 km/h (1 Bft) 95,38 %
07.11.2018 17:02 11,9 C 10,0 C 7,2 C 88 % 1011,5 hPa 0,0 l/m 3,2 km/h (1 Bft) O-SO 103 0 min 0,000 mm 0,0 UV-I 0 W/m 10,0 C 11,9 C 4,8 km/h (1 Bft) 97,87 %
07.11.2018 17:04 11,7 C 10,0 C 7,2 C 88 % 1011,5 hPa 0,0 l/m 2,8 km/h (1 Bft) O-SO 103 0 min 0,000 mm 0,0 UV-I 0 W/m 9,8 C 11,7 C 3,2 km/h (1 Bft) 97,87 %
07.11.2018 17:06 11,6 C 10,0 C 7,2 C 89 % 1011,5 hPa 0,0 l/m 2,0 km/h (1 Bft) O-SO 103 0 min 0,000 mm 0,0 UV-I 0 W/m 9,8 C 11,6 C 3,2 km/h (1 Bft) 97,37 %
07.11.2018 17:08 11,4 C 10,0 C 7,2 C 89 % 1011,5 hPa 0,0 l/m 2,0 km/h (1 Bft) O-SO 103 0 min 0,000 mm 0,0 UV-I 0 W/m 9,7 C 11,4 C 3,2 km/h (1 Bft) 100,00 %
07.11.2018 17:10 11,4 C 10,0 C 7,2 C 90 % 1011,5 hPa 0,0 l/m 2,0 km/h (1 Bft) O-SO 103 0 min 0,000 mm 0,0 UV-I 0 W/m 9,8 C 11,4 C 3,2 km/h (1 Bft) 100,00 %
07.11.2018 17:12 11,3 C 10,0 C 6,7 C 90 % 1011,5 hPa 0,0 l/m 1,3 km/h (1 Bft) O-SO 103 0 min 0,000 mm 0,0 UV-I 0 W/m 9,7 C 11,3 C 1,6 km/h (1 Bft) 100,00 %
07.11.2018 17:14 11,3 C 10,0 C 6,7 C 91 % 1011,5 hPa 0,0 l/m 1,1 km/h (1 Bft) O-SO 103 0 min 0,000 mm 0,0 UV-I 0 W/m 9,9 C 11,3 C 1,6 km/h (1 Bft) 100,00 %
07.11.2018 17:16 11,4 C 10,0 C 6,7 C 91 % 1011,5 hPa 0,0 l/m 1,3 km/h (1 Bft) O-SO 103 0 min 0,000 mm 0,0 UV-I 0 W/m 10,0 C 11,4 C 3,2 km/h (1 Bft) 100,00 %
07.11.2018 17:18 11,6 C 10,0 C 6,7 C 92 % 1011,6 hPa 0,0 l/m 0,2 km/h (0 Bft) O-SO 103 0 min 0,000 mm 0,0 UV-I 0 W/m 10,3 C 11,6 C 1,6 km/h (1 Bft) 100,00 %
07.11.2018 17:20 11,8 C 10,0 C 6,7 C 92 % 1011,6 hPa 0,0 l/m 0,0 km/h (0 Bft) O-SO 103 0 min 0,000 mm 0,0 UV-I 0 W/m 10,5 C 11,8 C 0,0 km/h (0 Bft) 100,00 %
07.11.2018 17:22 11,8 C 10,0 C 6,1 C 91 % 1011,6 hPa 0,0 l/m 0,0 km/h (0 Bft) O-SO 103 0 min 0,000 mm 0,0 UV-I 0 W/m 10,4 C 11,8 C 0,0 km/h (0 Bft) 98,00 %
07.11.2018 17:24 11,9 C 10,0 C 6,1 C 90 % 1011,6 hPa 0,0 l/m 0,0 km/h (0 Bft) O-SO 103 0 min 0,000 mm 0,0 UV-I 0 W/m 10,3 C 11,9 C 0,0 km/h (0 Bft) 94,00 %
07.11.2018 17:26 11,8 C 10,0 C 6,7 C 90 % 1011,6 hPa 0,0 l/m 0,0 km/h (0 Bft) O-SO 103 0 min 0,000 mm 0,0 UV-I 0 W/m 10,2 C 11,8 C 0,0 km/h (0 Bft) 98,00 %
07.11.2018 17:28 11,5 C 10,0 C 6,7 C 89 % 1011,7 hPa 0,0 l/m 0,9 km/h (0 Bft) O-SO 103 0 min 0,000 mm 0,0 UV-I 0 W/m 9,8 C 11,5 C 1,6 km/h (1 Bft) 97,87 %
07.11.2018 17:30 11,1 C 10,0 C 7,2 C 89 % 1011,7 hPa 0,0 l/m 2,1 km/h (1 Bft) O-SO 103 0 min 0,000 mm 0,0 UV-I 0 W/m 9,4 C 11,1 C 3,2 km/h (1 Bft) 95,74 %
07.11.2018 17:32 10,8 C 10,0 C 6,7 C 90 % 1011,7 hPa 0,0 l/m 1,8 km/h (1 Bft) O-SO 103 0 min 0,000 mm 0,0 UV-I 0 W/m 9,2 C 10,8 C 3,2 km/h (1 Bft) 100,00 %
07.11.2018 17:34 10,8 C 10,0 C 6,7 C 92 % 1011,6 hPa 0,0 l/m 1,6 km/h (1 Bft) O-SO 103 0 min 0,000 mm 0,0 UV-I 0 W/m 9,6 C 10,8 C 3,2 km/h (1 Bft) 96,43 %
07.11.2018 17:36 11,1 C 10,0 C 6,1 C 93 % 1011,6 hPa 0,0 l/m 2,2 km/h (1 Bft) O-SO 103 0 min 0,000 mm 0,0 UV-I 0 W/m 10,0 C 11,1 C 3,2 km/h (1 Bft) 95,74 %
07.11.2018 17:38 11,3 C 10,0 C 6,1 C 92 % 1011,7 hPa 0,0 l/m 1,7 km/h (1 Bft) O-SO 103 0 min 0,000 mm 0,0 UV-I 0 W/m 10,0 C 11,3 C 3,2 km/h (1 Bft) 97,37 %
07.11.2018 17:40 11,4 C 10,0 C 6,1 C 91 % 1011,7 hPa 0,0 l/m 1,8 km/h (1 Bft) O-SO 103 0 min 0,000 mm 0,0 UV-I 0 W/m 10,0 C 11,4 C 3,2 km/h (1 Bft) 98,31 %
07.11.2018 17:42 11,2 C 10,0 C 6,1 C 90 % 1011,7 hPa 0,0 l/m 1,8 km/h (1 Bft) O-SO 103 0 min 0,000 mm 0,0 UV-I 0 W/m 9,6 C 11,2 C 3,2 km/h (1 Bft) 97,37 %
07.11.2018 17:44 11,2 C 10,0 C 5,6 C 91 % 1011,8 hPa 0,0 l/m 0,4 km/h (0 Bft) O-SO 103 0 min 0,000 mm 0,0 UV-I 0 W/m 9,8 C 11,2 C 1,6 km/h (1 Bft) 96,23 %
07.11.2018 17:46 11,1 C 10,0 C 6,1 C 91 % 1011,8 hPa 0,0 l/m 0,0 km/h (0 Bft) O-SO 103 0 min 0,000 mm 0,0 UV-I 0 W/m 9,7 C 11,1 C 0,0 km/h (0 Bft) 97,87 %
07.11.2018 17:48 10,8 C 10,0 C 6,7 C 90 % 1011,8 hPa 0,0 l/m 0,8 km/h (0 Bft) O-SO 103 0 min 0,000 mm 0,0 UV-I 0 W/m 9,2 C 10,8 C 1,6 km/h (1 Bft) 94,00 %
07.11.2018 17:50 10,6 C 10,0 C 6,7 C 90 % 1011,8 hPa 0,0 l/m 1,2 km/h (1 Bft) O-SO 103 0 min 0,000 mm 0,0 UV-I 0 W/m 9,0 C 10,6 C 1,6 km/h (1 Bft) 95,74 %
07.11.2018 17:52 10,5 C 10,0 C 6,1 C 91 % 1011,9 hPa 0,0 l/m 1,4 km/h (1 Bft) O-SO 103 0 min 0,000 mm 0,0 UV-I 0 W/m 9,1 C 10,5 C 1,6 km/h (1 Bft) 97,37 %
07.11.2018 17:54 10,5 C 10,0 C 6,1 C 92 % 1011,9 hPa 0,0 l/m 1,2 km/h (1 Bft) O-SO 103 0 min 0,000 mm 0,0 UV-I 0 W/m 9,3 C 10,5 C 1,6 km/h (1 Bft) 98,11 %
07.11.2018 17:56 10,4 C 10,0 C 6,1 C 92 % 1011,8 hPa 0,0 l/m 2,4 km/h (1 Bft) O-SO 103 0 min 0,000 mm 0,0 UV-I 0 W/m 9,2 C 10,4 C 3,2 km/h (1 Bft) 97,62 %
07.11.2018 17:58 10,4 C 10,0 C 6,1 C 92 % 1011,9 hPa 0,0 l/m 2,2 km/h (1 Bft) O-SO 103 0 min 0,000 mm 0,0 UV-I 0 W/m 9,2 C 10,4 C 3,2 km/h (1 Bft) 97,87 %
07.11.2018 18:00 10,6 C 10,0 C 6,1 C 93 % 1011,8 hPa 0,0 l/m 2,1 km/h (1 Bft) O-SO 103 0 min 0,000 mm 0,0 UV-I 0 W/m 9,5 C 10,6 C 3,2 km/h (1 Bft) 98,00 %
07.11.2018 18:02 10,7 C 10,0 C 6,1 C 93 % 1011,9 hPa 0,0 l/m 2,1 km/h (1 Bft) O-SO 103 0 min 0,000 mm 0,0 UV-I 0 W/m 9,6 C 10,7 C 3,2 km/h (1 Bft) 100,00 %
07.11.2018 18:04 10,6 C 10,0 C 7,2 C 92 % 1012,0 hPa 0,0 l/m 2,1 km/h (1 Bft) O-SO 103 0 min 0,000 mm 0,0 UV-I 0 W/m 9,4 C 10,6 C 3,2 km/h (1 Bft) 100,00 %
07.11.2018 18:06 10,4 C 10,0 C 6,7 C 92 % 1012,0 hPa 0,0 l/m 1,4 km/h (1 Bft) O-SO 103 0 min 0,000 mm 0,0 UV-I 0 W/m 9,2 C 10,4 C 3,2 km/h (1 Bft) 97,37 %
07.11.2018 18:08 10,4 C 10,0 C 6,7 C 92 % 1012,0 hPa 0,0 l/m 0,0 km/h (0 Bft) O-SO 103 0 min 0,000 mm 0,0 UV-I 0 W/m 9,2 C 10,4 C 0,0 km/h (0 Bft) 98,11 %
07.11.2018 18:10 10,3 C 10,0 C 6,1 C 92 % 1012,0 hPa 0,0 l/m 0,5 km/h (0 Bft) O-SO 103 0 min 0,000 mm 0,0 UV-I 0 W/m 9,1 C 10,3 C 3,2 km/h (1 Bft) 97,37 %
07.11.2018 18:12 10,3 C 10,0 C 6,7 C 92 % 1012,1 hPa 0,0 l/m 2,3 km/h (1 Bft) S-SO 154 0 min 0,000 mm 0,0 UV-I 0 W/m 9,1 C 10,3 C 3,2 km/h (1 Bft) 97,56 %
07.11.2018 18:14 10,1 C 10,0 C 6,7 C 92 % 1012,0 hPa 0,0 l/m 1,8 km/h (1 Bft) S-SO 154 0 min 0,000 mm 0,0 UV-I 0 W/m 8,9 C 10,1 C 3,2 km/h (1 Bft) 96,92 %
07.11.2018 18:16 10,2 C 10,0 C 6,7 C 93 % 1012,0 hPa 0,0 l/m 0,1 km/h (0 Bft) S-SO 154 0 min 0,000 mm 0,0 UV-I 0 W/m 9,1 C 10,2 C 1,6 km/h (1 Bft) 97,37 %
07.11.2018 18:18 9,9 C 10,0 C 6,1 C 92 % 1012,0 hPa 0,0 l/m 2,1 km/h (1 Bft) S-SO 154 0 min 0,000 mm 0,0 UV-I 0 W/m 8,7 C 9,9 C 3,2 km/h (1 Bft) 96,00 %
07.11.2018 18:20 9,9 C 10,0 C 6,1 C 92 % 1012,0 hPa 0,0 l/m 2,4 km/h (1 Bft) S-SO 154 0 min 0,000 mm 0,0 UV-I 0 W/m 8,7 C 9,9 C 3,2 km/h (1 Bft) 98,11 %
07.11.2018 18:22 10,0 C 10,0 C 6,1 C 93 % 1012,1 hPa 0,0 l/m 2,2 km/h (1 Bft) S-SO 154 0 min 0,000 mm 0,0 UV-I 0 W/m 8,9 C 10,0 C 3,2 km/h (1 Bft) 97,56 %
07.11.2018 18:24 10,2 C 10,0 C 6,1 C 94 % 1012,1 hPa 0,0 l/m 2,0 km/h (1 Bft) S-SO 154 0 min 0,000 mm 0,0 UV-I 0 W/m 9,3 C 10,2 C 3,2 km/h (1 Bft) 96,00 %
07.11.2018 18:26 10,3 C 10,0 C 6,1 C 94 % 1012,1 hPa 0,0 l/m 1,6 km/h (1 Bft) S-SO 154 0 min 0,000 mm 0,0 UV-I 0 W/m 9,4 C 10,3 C 3,2 km/h (1 Bft) 100,00 %
07.11.2018 18:28 10,4 C 10,0 C 6,1 C 93 % 1012,1 hPa 0,0 l/m 0,2 km/h (0 Bft) S-SO 154 0 min 0,000 mm 0,0 UV-I 0 W/m 9,3 C 10,4 C 1,6 km/h (1 Bft) 100,00 %
07.11.2018 18:30 10,6 C 10,0 C 6,1 C 94 % 1012,1 hPa 0,0 l/m 1,3 km/h (1 Bft) S-SO 154 0 min 0,000 mm 0,0 UV-I 0 W/m 9,7 C 10,6 C 3,2 km/h (1 Bft) 97,87 %
07.11.2018 18:32 10,9 C 10,0 C 6,1 C 94 % 1012,1 hPa 0,0 l/m 2,9 km/h (1 Bft) S-SO 153 0 min 0,000 mm 0,0 UV-I 0 W/m 10,0 C 10,9 C 4,8 km/h (1 Bft) 100,00 %
07.11.2018 18:34 11,1 C 10,0 C 5,6 C 93 % 1012,1 hPa 0,0 l/m 3,4 km/h (1 Bft) S-SO 153 0 min 0,000 mm 0,0 UV-I 0 W/m 10,0 C 11,1 C 4,8 km/h (1 Bft) 100,00 %
07.11.2018 18:36 11,2 C 10,0 C 5,6 C 93 % 1012,1 hPa 0,0 l/m 2,5 km/h (1 Bft) S-SO 153 0 min 0,000 mm 0,0 UV-I 0 W/m 10,1 C 11,2 C 4,8 km/h (1 Bft) 100,00 %
07.11.2018 18:38 11,2 C 10,0 C 5,6 C 92 % 1012,1 hPa 0,0 l/m 2,5 km/h (1 Bft) S-SO 153 0 min 0,000 mm 0,0 UV-I 0 W/m 9,9 C 11,2 C 3,2 km/h (1 Bft) 100,00 %
07.11.2018 18:40 11,2 C 10,0 C 5,0 C 92 % 1012,1 hPa 0,0 l/m 3,4 km/h (1 Bft) O-NO 71 0 min 0,000 mm 0,0 UV-I 0 W/m 9,9 C 11,2 C 4,8 km/h (1 Bft) 100,00 %
07.11.2018 18:42 11,3 C 10,0 C 5,6 C 92 % 1012,1 hPa 0,0 l/m 4,0 km/h (1 Bft) O 90 0 min 0,000 mm 0,0 UV-I 0 W/m 10,0 C 11,3 C 6,4 km/h (2 Bft) 100,00 %
07.11.2018 18:44 11,2 C 10,0 C 5,6 C 91 % 1012,1 hPa 0,0 l/m 4,5 km/h (1 Bft) O 98 0 min 0,000 mm 0,0 UV-I 0 W/m 9,8 C 11,2 C 6,4 km/h (2 Bft) 100,00 %
07.11.2018 18:46 11,3 C 10,0 C 6,1 C 92 % 1012,2 hPa 0,0 l/m 5,2 km/h (1 Bft) O-SO 109 0 min 0,000 mm 0,0 UV-I 0 W/m 10,0 C 11,3 C 6,4 km/h (2 Bft) 100,00 %
07.11.2018 18:48 11,4 C 10,0 C 6,7 C 92 % 1012,2 hPa 0,0 l/m 5,3 km/h (1 Bft) O-SO 109 0 min 0,000 mm 0,0 UV-I 0 W/m 10,1 C 11,4 C 6,4 km/h (2 Bft) 100,00 %
07.11.2018 18:50 11,6 C 10,0 C 7,2 C 91 % 1012,2 hPa 0,0 l/m 5,4 km/h (1 Bft) O-SO 104 0 min 0,000 mm 0,0 UV-I 0 W/m 10,2 C 11,6 C 6,4 km/h (2 Bft) 100,00 %
07.11.2018 18:52 11,7 C 10,0 C 7,2 C 91 % 1012,2 hPa 0,0 l/m 6,7 km/h (2 Bft) O 97 0 min 0,000 mm 0,0 UV-I 0 W/m 10,3 C 11,5 C 9,7 km/h (2 Bft) 96,00 %
07.11.2018 18:54 11,9 C 10,0 C 7,8 C 91 % 1012,2 hPa 0,0 l/m 4,5 km/h (1 Bft) O 101 0 min 0,000 mm 0,0 UV-I 0 W/m 10,5 C 11,9 C 6,4 km/h (2 Bft) 97,37 %
07.11.2018 18:56 12,0 C 10,0 C 8,3 C 90 % 1012,2 hPa 0,0 l/m 5,9 km/h (2 Bft) O 90 0 min 0,000 mm 0,0 UV-I 0 W/m 10,4 C 12,0 C 9,7 km/h (2 Bft) 100,00 %
07.11.2018 18:58 12,1 C 10,0 C 8,3 C 90 % 1012,2 hPa 0,0 l/m 5,2 km/h (1 Bft) O 100 0 min 0,000 mm 0,0 UV-I 0 W/m 10,5 C 12,1 C 9,7 km/h (2 Bft) 97,87 %
07.11.2018 19:00 12,1 C 10,0 C 8,3 C 89 % 1012,2 hPa 0,0 l/m 4,2 km/h (1 Bft) O-SO 109 0 min 0,000 mm 0,0 UV-I 0 W/m 10,3 C 12,1 C 9,7 km/h (2 Bft) 100,00 %
07.11.2018 19:02 12,1 C 10,0 C 8,3 C 89 % 1012,2 hPa 0,0 l/m 6,2 km/h (2 Bft) O-SO 103 0 min 0,000 mm 0,0 UV-I 0 W/m 10,3 C 12,1 C 9,7 km/h (2 Bft) 100,00 %
07.11.2018 19:04 12,1 C 10,0 C 7,8 C 89 % 1012,3 hPa 0,0 l/m 4,4 km/h (1 Bft) O 90 0 min 0,000 mm 0,0 UV-I 0 W/m 10,3 C 12,1 C 6,4 km/h (2 Bft) 97,87 %
07.11.2018 19:06 12,1 C 10,0 C 8,3 C 89 % 1012,3 hPa 0,0 l/m 4,8 km/h (1 Bft) O 91 0 min 0,000 mm 0,0 UV-I 0 W/m 10,3 C 12,1 C 8,0 km/h (2 Bft) 98,00 %
07.11.2018 19:09 12,2 C 10,0 C 8,3 C 88 % 1012,3 hPa 0,0 l/m 4,1 km/h (1 Bft) O-SO 116 0 min 0,000 mm 0,0 UV-I 0 W/m 10,3 C 12,2 C 6,4 km/h (2 Bft) 96,77 %
07.11.2018 19:10 12,2 C 10,0 C 8,3 C 88 % 1012,3 hPa 0,0 l/m 4,0 km/h (1 Bft) O-SO 116 0 min 0,000 mm 0,0 UV-I 0 W/m 10,3 C 12,2 C 4,8 km/h (1 Bft) 100,00 %
07.11.2018 19:12 12,1 C 10,0 C 8,3 C 88 % 1012,3 hPa 0,0 l/m 7,5 km/h (2 Bft) SO 126 0 min 0,000 mm 0,0 UV-I 0 W/m 10,2 C 11,4 C 11,3 km/h (2 Bft) 97,44 %
07.11.2018 19:14 12,0 C 10,0 C 8,9 C 88 % 1012,3 hPa 0,0 l/m 6,4 km/h (2 Bft) SO 132 0 min 0,000 mm 0,0 UV-I 0 W/m 10,1 C 12,0 C 12,9 km/h (3 Bft) 98,11 %
07.11.2018 19:16 11,9 C 10,0 C 8,9 C 88 % 1012,3 hPa 0,0 l/m 6,4 km/h (2 Bft) O-SO 119 0 min 0,000 mm 0,0 UV-I 0 W/m 10,0 C 11,9 C 9,7 km/h (2 Bft) 96,00 %
07.11.2018 19:19 11,7 C 10,0 C 8,3 C 88 % 1012,4 hPa 0,0 l/m 4,1 km/h (1 Bft) O-SO 120 0 min 0,000 mm 0,0 UV-I 0 W/m 9,8 C 11,7 C 11,3 km/h (2 Bft) 98,57 %
07.11.2018 19:20 11,7 C 10,0 C 8,3 C 89 % 1012,4 hPa 0,0 l/m 5,2 km/h (1 Bft) SO 128 0 min 0,000 mm 0,0 UV-I 0 W/m 9,9 C 11,7 C 6,4 km/h (2 Bft) 93,33 %
07.11.2018 19:22 11,7 C 10,0 C 8,3 C 89 % 1012,4 hPa 0,0 l/m 4,9 km/h (1 Bft) O-SO 121 0 min 0,000 mm 0,0 UV-I 0 W/m 9,9 C 11,7 C 9,7 km/h (2 Bft) 96,43 %
07.11.2018 19:24 11,8 C 10,0 C 8,3 C 89 % 1012,5 hPa 0,0 l/m 4,2 km/h (1 Bft) SO 128 0 min 0,000 mm 0,0 UV-I 0 W/m 10,0 C 11,8 C 6,4 km/h (2 Bft) 92,68 %
07.11.2018 19:26 11,8 C 10,0 C 8,3 C 89 % 1012,4 hPa 0,0 l/m 2,0 km/h (1 Bft) SO 130 0 min 0,000 mm 0,0 UV-I 0 W/m 10,0 C 11,8 C 4,8 km/h (1 Bft) 97,87 %
07.11.2018 19:28 11,7 C 10,0 C 7,8 C 89 % 1012,5 hPa 0,0 l/m 1,7 km/h (1 Bft) SO 130 0 min 0,000 mm 0,0 UV-I 0 W/m 9,9 C 11,7 C 4,8 km/h (1 Bft) 95,74 %
07.11.2018 19:30 11,4 C 10,0 C 7,8 C 88 % 1012,5 hPa 0,0 l/m 3,0 km/h (1 Bft) S-SO 161 0 min 0,000 mm 0,0 UV-I 0 W/m 9,5 C 11,4 C 8,0 km/h (2 Bft) 96,00 %
07.11.2018 19:32 11,0 C 10,0 C 7,2 C 88 % 1012,5 hPa 0,0 l/m 1,2 km/h (1 Bft) S-SO 161 0 min 0,000 mm 0,0 UV-I 0 W/m 9,1 C 11,0 C 3,2 km/h (1 Bft) 95,74 %
07.11.2018 19:34 10,8 C 10,0 C 7,2 C 89 % 1012,5 hPa 0,0 l/m 0,3 km/h (0 Bft) S-SO 161 0 min 0,000 mm 0,0 UV-I 0 W/m 9,1 C 10,8 C 1,6 km/h (1 Bft) 94,00 %
07.11.2018 19:36 10,7 C 10,0 C 6,7 C 90 % 1012,5 hPa 0,0 l/m 1,5 km/h (1 Bft) S-SO 161 0 min 0,000 mm 0,0 UV-I 0 W/m 9,1 C 10,7 C 3,2 km/h (1 Bft) 97,37 %
07.11.2018 19:38 10,8 C 10,0 C 6,7 C 91 % 1012,6 hPa 0,0 l/m 0,7 km/h (0 Bft) S-SO 161 0 min 0,000 mm 0,0 UV-I 0 W/m 9,4 C 10,8 C 1,6 km/h (1 Bft) 95,74 %
07.11.2018 19:40 10,8 C 10,0 C 6,7 C 91 % 1012,6 hPa 0,0 l/m 0,4 km/h (0 Bft) S-SO 161 0 min 0,000 mm 0,0 UV-I 0 W/m 9,4 C 10,8 C 1,6 km/h (1 Bft) 88,00 %
07.11.2018 19:42 10,8 C 10,0 C 6,1 C 91 % 1012,6 hPa 0,0 l/m 0,4 km/h (0 Bft) S-SO 161 0 min 0,000 mm 0,0 UV-I 0 W/m 9,4 C 10,8 C 1,6 km/h (1 Bft) 94,00 %
07.11.2018 19:44 10,8 C 10,0 C 6,1 C 91 % 1012,5 hPa 0,0 l/m 0,8 km/h (0 Bft) S-SO 161 0 min 0,000 mm 0,0 UV-I 0 W/m 9,4 C 10,8 C 3,2 km/h (1 Bft) 93,62 %
07.11.2018 19:46 10,7 C 10,0 C 6,1 C 91 % 1012,5 hPa 0,0 l/m 1,4 km/h (1 Bft) S-SO 161 0 min 0,000 mm 0,0 UV-I 0 W/m 9,3 C 10,7 C 3,2 km/h (1 Bft) 92,68 %
07.11.2018 19:48 10,7 C 10,0 C 6,1 C 91 % 1012,5 hPa 0,0 l/m 1,8 km/h (1 Bft) O-SO 115 0 min 0,000 mm 0,0 UV-I 0 W/m 9,3 C 10,7 C 4,8 km/h (1 Bft) 94,34 %
07.11.2018 19:50 10,6 C 10,0 C 6,1 C 90 % 1012,6 hPa 0,0 l/m 2,5 km/h (1 Bft) O-SO 115 0 min 0,000 mm 0,0 UV-I 0 W/m 9,0 C 10,6 C 4,8 km/h (1 Bft) 97,22 %
07.11.2018 19:52 10,6 C 10,0 C 6,1 C 92 % 1012,6 hPa 0,0 l/m 2,9 km/h (1 Bft) O-SO 122 0 min 0,000 mm 0,0 UV-I 0 W/m 9,4 C 10,6 C 6,4 km/h (2 Bft) 94,64 %
07.11.2018 19:54 10,7 C 10,0 C 6,1 C 91 % 1012,6 hPa 0,0 l/m 2,0 km/h (1 Bft) O-SO 122 0 min 0,000 mm 0,0 UV-I 0 W/m 9,3 C 10,7 C 4,8 km/h (1 Bft) 92,68 %
07.11.2018 19:56 10,8 C 10,0 C 5,6 C 91 % 1012,6 hPa 0,0 l/m 2,0 km/h (1 Bft) O-SO 122 0 min 0,000 mm 0,0 UV-I 0 W/m 9,4 C 10,8 C 4,8 km/h (1 Bft) 96,00 %
07.11.2018 19:58 11,0 C 10,0 C 6,1 C 92 % 1012,6 hPa 0,0 l/m 2,5 km/h (1 Bft) O-SO 122 0 min 0,000 mm 0,0 UV-I 0 W/m 9,8 C 11,0 C 4,8 km/h (1 Bft) 94,00 %
07.11.2018 20:00 11,1 C 10,0 C 6,1 C 91 % 1012,6 hPa 0,0 l/m 2,0 km/h (1 Bft) O-SO 122 0 min 0,000 mm 0,0 UV-I 0 W/m 9,7 C 11,1 C 4,8 km/h (1 Bft) 95,74 %
07.11.2018 20:02 10,9 C 10,0 C 6,1 C 90 % 1012,7 hPa 0,0 l/m 0,8 km/h (0 Bft) O-SO 122 0 min 0,000 mm 0,0 UV-I 0 W/m 9,3 C 10,9 C 1,6 km/h (1 Bft) 91,49 %
07.11.2018 20:04 10,7 C 10,0 C 6,1 C 90 % 1012,7 hPa 0,0 l/m 1,1 km/h (1 Bft) O-SO 122 0 min 0,000 mm 0,0 UV-I 0 W/m 9,1 C 10,7 C 3,2 km/h (1 Bft) 95,12 %
07.11.2018 20:06 10,4 C 10,0 C 6,1 C 90 % 1012,7 hPa 0,0 l/m 0,2 km/h (0 Bft) O-SO 122 0 min 0,000 mm 0,0 UV-I 0 W/m 8,8 C 10,4 C 1,6 km/h (1 Bft) 94,00 %
07.11.2018 20:08 10,3 C 10,0 C 5,6 C 91 % 1012,8 hPa 0,0 l/m 0,3 km/h (0 Bft) O-SO 122 0 min 0,000 mm 0,0 UV-I 0 W/m 8,9 C 10,3 C 1,6 km/h (1 Bft) 96,00 %
07.11.2018 20:10 10,2 C 10,0 C 5,6 C 91 % 1012,8 hPa 0,0 l/m 0,1 km/h (0 Bft) O-SO 122 0 min 0,000 mm 0,0 UV-I 0 W/m 8,8 C 10,2 C 1,6 km/h (1 Bft) 95,12 %
07.11.2018 20:12 10,2 C 10,0 C 5,6 C 92 % 1012,7 hPa 0,0 l/m 0,8 km/h (0 Bft) O-SO 122 0 min 0,000 mm 0,0 UV-I 0 W/m 9,0 C 10,2 C 1,6 km/h (1 Bft) 95,45 %
07.11.2018 20:14 10,2 C 10,0 C 5,6 C 92 % 1012,8 hPa 0,0 l/m 0,9 km/h (0 Bft) O-SO 122 0 min 0,000 mm 0,0 UV-I 0 W/m 9,0 C 10,2 C 1,6 km/h (1 Bft) 96,23 %
07.11.2018 20:16 10,1 C 10,0 C 5,6 C 92 % 1012,7 hPa 0,0 l/m 0,5 km/h (0 Bft) O-SO 122 0 min 0,000 mm 0,0 UV-I 0 W/m 8,9 C 10,1 C 1,6 km/h (1 Bft) 96,00 %
07.11.2018 20:18 9,8 C 10,0 C 5,6 C 91 % 1012,7 hPa 0,0 l/m 0,8 km/h (0 Bft) O-SO 122 0 min 0,000 mm 0,0 UV-I 0 W/m 8,4 C 9,8 C 1,6 km/h (1 Bft) 97,56 %
07.11.2018 20:20 9,6 C 10,0 C 5,6 C 92 % 1012,7 hPa 0,0 l/m 0,8 km/h (0 Bft) O-SO 122 0 min 0,000 mm 0,0 UV-I 0 W/m 8,4 C 9,6 C 1,6 km/h (1 Bft) 97,56 %
07.11.2018 20:22 9,5 C 10,0 C 5,6 C 93 % 1012,8 hPa 0,0 l/m 1,2 km/h (1 Bft) O-SO 122 0 min 0,000 mm 0,0 UV-I 0 W/m 8,4 C 9,5 C 1,6 km/h (1 Bft) 97,62 %
07.11.2018 20:24 9,6 C 10,0 C 5,6 C 93 % 1012,8 hPa 0,0 l/m 1,4 km/h (1 Bft) O-SO 122 0 min 0,000 mm 0,0 UV-I 0 W/m 8,5 C 9,6 C 1,6 km/h (1 Bft) 100,00 %
07.11.2018 20:26 9,7 C 10,0 C 5,6 C 94 % 1012,8 hPa 0,0 l/m 1,8 km/h (1 Bft) O-SO 122 0 min 0,000 mm 0,0 UV-I 0 W/m 8,8 C 9,7 C 3,2 km/h (1 Bft) 98,08 %
07.11.2018 20:28 9,8 C 10,0 C 5,6 C 94 % 1012,7 hPa 0,0 l/m 3,2 km/h (1 Bft) O-SO 122 0 min 0,000 mm 0,0 UV-I 0 W/m 8,9 C 9,8 C 4,8 km/h (1 Bft) 100,00 %
07.11.2018 20:30 9,7 C 10,0 C 5,6 C 94 % 1012,7 hPa 0,0 l/m 2,7 km/h (1 Bft) O-SO 122 0 min 0,000 mm 0,0 UV-I 0 W/m 8,8 C 9,7 C 4,8 km/h (1 Bft) 100,00 %
07.11.2018 20:32 9,7 C 10,0 C 5,6 C 94 % 1012,7 hPa 0,0 l/m 3,1 km/h (1 Bft) O-SO 122 0 min 0,000 mm 0,0 UV-I 0 W/m 8,8 C 9,7 C 4,8 km/h (1 Bft) 100,00 %
07.11.2018 20:34 9,8 C 10,0 C 5,0 C 94 % 1012,7 hPa 0,0 l/m 2,6 km/h (1 Bft) O-SO 122 0 min 0,000 mm 0,0 UV-I 0 W/m 8,9 C 9,8 C 4,8 km/h (1 Bft) 100,00 %
07.11.2018 20:36 9,9 C 10,0 C 5,0 C 94 % 1012,8 hPa 0,0 l/m 2,7 km/h (1 Bft) O-SO 122 0 min 0,000 mm 0,0 UV-I 0 W/m 9,0 C 9,9 C 3,2 km/h (1 Bft) 97,87 %
07.11.2018 20:38 9,9 C 10,0 C 5,6 C 94 % 1012,8 hPa 0,0 l/m 2,0 km/h (1 Bft) O-SO 122 0 min 0,000 mm 0,0 UV-I 0 W/m 9,0 C 9,9 C 3,2 km/h (1 Bft) 100,00 %
07.11.2018 20:40 9,9 C 10,0 C 5,6 C 94 % 1012,9 hPa 0,0 l/m 0,9 km/h (0 Bft) O-SO 122 0 min 0,000 mm 0,0 UV-I 0 W/m 9,0 C 9,9 C 1,6 km/h (1 Bft) 100,00 %
07.11.2018 20:42 9,9 C 10,0 C 5,6 C 94 % 1013,0 hPa 0,0 l/m 1,5 km/h (1 Bft) O-SO 122 0 min 0,000 mm 0,0 UV-I 0 W/m 9,0 C 9,9 C 3,2 km/h (1 Bft) 98,21 %
07.11.2018 20:44 9,9 C 10,0 C 5,6 C 94 % 1013,0 hPa 0,0 l/m 0,8 km/h (0 Bft) O-SO 122 0 min 0,000 mm 0,0 UV-I 0 W/m 9,0 C 9,9 C 1,6 km/h (1 Bft) 98,00 %
07.11.2018 20:46 9,8 C 10,0 C 5,6 C 94 % 1013,0 hPa 0,0 l/m 0,4 km/h (0 Bft) O-SO 122 0 min 0,000 mm 0,0 UV-I 0 W/m 8,9 C 9,8 C 1,6 km/h (1 Bft) 97,37 %
07.11.2018 20:49 9,2 C 10,0 C 6,1 C 93 % 1013,0 hPa 0,0 l/m 0,0 km/h (0 Bft) O-SO 122 0 min 0,000 mm 0,0 UV-I 0 W/m 8,1 C 9,2 C 0,0 km/h (0 Bft) 97,56 %
07.11.2018 20:50 9,1 C 10,0 C 5,6 C 93 % 1013,0 hPa 0,0 l/m 0,0 km/h (0 Bft) O-SO 122 0 min 0,000 mm 0,0 UV-I 0 W/m 8,0 C 9,1 C 0,0 km/h (0 Bft) 100,00 %
07.11.2018 20:52 8,9 C 10,0 C 5,6 C 93 % 1013,1 hPa 0,0 l/m 0,0 km/h (0 Bft) O-SO 122 0 min 0,000 mm 0,0 UV-I 0 W/m 7,8 C 8,9 C 0,0 km/h (0 Bft) 97,87 %
07.11.2018 20:54 8,9 C 10,0 C 5,6 C 93 % 1013,1 hPa 0,0 l/m 0,5 km/h (0 Bft) O-SO 122 0 min 0,000 mm 0,0 UV-I 0 W/m 7,8 C 8,9 C 3,2 km/h (1 Bft) 97,87 %
07.11.2018 20:56 8,9 C 10,0 C 5,6 C 94 % 1013,2 hPa 0,0 l/m 1,8 km/h (1 Bft) O-SO 122 0 min 0,000 mm 0,0 UV-I 0 W/m 8,0 C 8,9 C 3,2 km/h (1 Bft) 98,11 %
07.11.2018 20:58 8,8 C 10,0 C 5,6 C 94 % 1013,1 hPa 0,0 l/m 1,6 km/h (1 Bft) O-SO 122 0 min 0,000 mm 0,0 UV-I 0 W/m 7,9 C 8,8 C 3,2 km/h (1 Bft) 95,74 %
07.11.2018 21:00 8,8 C 10,0 C 6,1 C 94 % 1013,2 hPa 0,0 l/m 1,3 km/h (1 Bft) O-SO 122 0 min 0,000 mm 0,0 UV-I 0 W/m 7,9 C 8,8 C 1,6 km/h (1 Bft) 97,87 %
07.11.2018 21:02 8,8 C 10,0 C 6,1 C 94 % 1013,2 hPa 0,0 l/m 1,1 km/h (1 Bft) O-SO 122 0 min 0,000 mm 0,0 UV-I 0 W/m 7,9 C 8,8 C 1,6 km/h (1 Bft) 97,87 %
07.11.2018 21:04 8,6 C 10,0 C 6,1 C 94 % 1013,3 hPa 0,0 l/m 2,0 km/h (1 Bft) O-SO 122 0 min 0,000 mm 0,0 UV-I 0 W/m 7,7 C 8,6 C 3,2 km/h (1 Bft) 100,00 %
07.11.2018 21:06 8,5 C 10,0 C 6,1 C 94 % 1013,3 hPa 0,0 l/m 3,1 km/h (1 Bft) SO 124 0 min 0,000 mm 0,0 UV-I 0 W/m 7,6 C 8,5 C 3,2 km/h (1 Bft) 100,00 %
07.11.2018 21:08 8,7 C 10,0 C 6,1 C 95 % 1013,3 hPa 0,0 l/m 3,1 km/h (1 Bft) SO 124 0 min 0,000 mm 0,0 UV-I 0 W/m 7,9 C 8,7 C 3,2 km/h (1 Bft) 97,87 %
07.11.2018 21:10 9,0 C 10,0 C 6,1 C 95 % 1013,3 hPa 0,0 l/m 3,4 km/h (1 Bft) S-SW 211 0 min 0,000 mm 0,0 UV-I 0 W/m 8,2 C 9,0 C 4,8 km/h (1 Bft) 100,00 %
07.11.2018 21:12 9,1 C 10,0 C 6,7 C 95 % 1013,4 hPa 0,0 l/m 4,2 km/h (1 Bft) S-SW 211 0 min 0,000 mm 0,0 UV-I 0 W/m 8,3 C 9,1 C 4,8 km/h (1 Bft) 100,00 %
07.11.2018 21:14 9,0 C 10,0 C 6,7 C 95 % 1013,4 hPa 0,0 l/m 3,6 km/h (1 Bft) S-SW 211 0 min 0,000 mm 0,0 UV-I 0 W/m 8,2 C 9,0 C 4,8 km/h (1 Bft) 100,00 %
07.11.2018 21:16 8,9 C 10,0 C 6,7 C 95 % 1013,4 hPa 0,0 l/m 2,7 km/h (1 Bft) S-SW 211 0 min 0,000 mm 0,0 UV-I 0 W/m 8,1 C 8,9 C 3,2 km/h (1 Bft) 100,00 %
07.11.2018 21:18 8,7 C 10,0 C 6,7 C 94 % 1013,4 hPa 0,0 l/m 2,9 km/h (1 Bft) S-SW 211 0 min 0,000 mm 0,0 UV-I 0 W/m 7,8 C 8,7 C 4,8 km/h (1 Bft) 98,21 %
07.11.2018 21:20 8,6 C 10,0 C 6,1 C 94 % 1013,5 hPa 0,0 l/m 3,5 km/h (1 Bft) S-SW 211 0 min 0,000 mm 0,0 UV-I 0 W/m 7,7 C 8,6 C 4,8 km/h (1 Bft) 100,00 %
07.11.2018 21:22 8,7 C 10,0 C 6,1 C 95 % 1013,5 hPa 0,0 l/m 3,1 km/h (1 Bft) S-SW 211 0 min 0,000 mm 0,0 UV-I 0 W/m 7,9 C 8,7 C 3,2 km/h (1 Bft) 98,00 %
07.11.2018 21:24 8,8 C 10,0 C 6,1 C 95 % 1013,5 hPa 0,0 l/m 4,3 km/h (1 Bft) S-SW 211 0 min 0,000 mm 0,0 UV-I 0 W/m 8,0 C 8,8 C 4,8 km/h (1 Bft) 97,73 %
07.11.2018 21:26 8,8 C 10,0 C 6,1 C 95 % 1013,5 hPa 0,0 l/m 4,3 km/h (1 Bft) S-SW 211 0 min 0,000 mm 0,0 UV-I 0 W/m 8,0 C 8,8 C 4,8 km/h (1 Bft) 97,87 %
07.11.2018 21:28 8,8 C 10,0 C 6,1 C 95 % 1013,6 hPa 0,0 l/m 3,7 km/h (1 Bft) S-SW 211 0 min 0,000 mm 0,0 UV-I 0 W/m 8,0 C 8,8 C 4,8 km/h (1 Bft) 100,00 %
07.11.2018 21:30 8,8 C 10,0 C 6,1 C 95 % 1013,6 hPa 0,0 l/m 4,4 km/h (1 Bft) S-SW 211 0 min 0,000 mm 0,0 UV-I 0 W/m 8,0 C 8,8 C 4,8 km/h (1 Bft) 97,14 %
07.11.2018 21:32 8,6 C 10,0 C 5,6 C 95 % 1013,6 hPa 0,0 l/m 3,5 km/h (1 Bft) S-SW 211 0 min 0,000 mm 0,0 UV-I 0 W/m 7,8 C 8,6 C 4,8 km/h (1 Bft) 100,00 %
07.11.2018 21:34 8,4 C 10,0 C 5,6 C 95 % 1013,6 hPa 0,0 l/m 3,1 km/h (1 Bft) S-SW 211 0 min 0,000 mm 0,0 UV-I 0 W/m 7,6 C 8,4 C 4,8 km/h (1 Bft) 100,00 %
07.11.2018 21:36 8,5 C 10,0 C 5,6 C 95 % 1013,6 hPa 0,0 l/m 3,6 km/h (1 Bft) S-SW 211 0 min 0,000 mm 0,0 UV-I 0 W/m 7,7 C 8,5 C 4,8 km/h (1 Bft) 100,00 %
07.11.2018 21:38 8,7 C 10,0 C 5,6 C 95 % 1013,7 hPa 0,0 l/m 3,5 km/h (1 Bft) S-SW 211 0 min 0,000 mm 0,0 UV-I 0 W/m 7,9 C 8,7 C 4,8 km/h (1 Bft) 100,00 %
07.11.2018 21:40 8,7 C 10,0 C 6,1 C 95 % 1013,7 hPa 0,0 l/m 4,4 km/h (1 Bft) S-SW 211 0 min 0,000 mm 0,0 UV-I 0 W/m 7,9 C 8,7 C 6,4 km/h (2 Bft) 98,08 %
07.11.2018 21:42 8,6 C 10,0 C 6,1 C 95 % 1013,7 hPa 0,0 l/m 5,1 km/h (1 Bft) S-SW 211 0 min 0,000 mm 0,0 UV-I 0 W/m 7,8 C 8,6 C 6,4 km/h (2 Bft) 100,00 %
07.11.2018 21:44 8,4 C 10,0 C 6,1 C 95 % 1013,7 hPa 0,0 l/m 4,6 km/h (1 Bft) S-SW 211 0 min 0,000 mm 0,0 UV-I 0 W/m 7,6 C 8,4 C 6,4 km/h (2 Bft) 100,00 %
07.11.2018 21:46 8,1 C 10,0 C 5,6 C 95 % 1013,8 hPa 0,0 l/m 3,0 km/h (1 Bft) S-SW 211 0 min 0,000 mm 0,0 UV-I 0 W/m 7,3 C 8,1 C 4,8 km/h (1 Bft) 100,00 %
07.11.2018 21:49 8,1 C 10,0 C 5,6 C 95 % 1013,8 hPa 0,0 l/m 2,6 km/h (1 Bft) S-SW 211 0 min 0,000 mm 0,0 UV-I 0 W/m 7,3 C 8,1 C 3,2 km/h (1 Bft) 98,57 %
07.11.2018 21:50 8,2 C 10,0 C 5,0 C 95 % 1013,8 hPa 0,0 l/m 3,7 km/h (1 Bft) S-SW 211 0 min 0,000 mm 0,0 UV-I 0 W/m 7,4 C 8,2 C 4,8 km/h (1 Bft) 100,00 %
07.11.2018 21:52 8,4 C 10,0 C 5,0 C 96 % 1013,8 hPa 0,0 l/m 4,5 km/h (1 Bft) S-SW 211 0 min 0,000 mm 0,0 UV-I 0 W/m 7,8 C 8,4 C 4,8 km/h (1 Bft) 97,87 %
07.11.2018 21:54 8,6 C 10,0 C 5,0 C 96 % 1013,8 hPa 0,0 l/m 4,5 km/h (1 Bft) S-SW 211 0 min 0,000 mm 0,0 UV-I 0 W/m 8,0 C 8,6 C 4,8 km/h (1 Bft) 97,87 %
07.11.2018 21:56 8,6 C 10,0 C 5,6 C 96 % 1013,9 hPa 0,0 l/m 3,4 km/h (1 Bft) S-SW 211 0 min 0,000 mm 0,0 UV-I 0 W/m 8,0 C 8,6 C 4,8 km/h (1 Bft) 97,37 %
07.11.2018 21:58 8,7 C 10,0 C 5,0 C 96 % 1014,0 hPa 0,0 l/m 1,8 km/h (1 Bft) S-SW 211 0 min 0,000 mm 0,0 UV-I 0 W/m 8,1 C 8,7 C 3,2 km/h (1 Bft) 97,87 %
07.11.2018 22:00 8,7 C 10,0 C 5,0 C 96 % 1014,0 hPa 0,0 l/m 1,5 km/h (1 Bft) S-SW 211 0 min 0,000 mm 0,0 UV-I 0 W/m 8,1 C 8,7 C 3,2 km/h (1 Bft) 94,00 %
07.11.2018 22:02 8,5 C 10,0 C 5,6 C 96 % 1014,0 hPa 0,0 l/m 3,8 km/h (1 Bft) S-SW 211 0 min 0,000 mm 0,0 UV-I 0 W/m 7,9 C 8,5 C 4,8 km/h (1 Bft) 95,74 %
07.11.2018 22:04 8,2 C 10,0 C 6,1 C 95 % 1014,0 hPa 0,0 l/m 4,9 km/h (1 Bft) S-SW 211 0 min 0,000 mm 0,0 UV-I 0 W/m 7,4 C 8,2 C 6,4 km/h (2 Bft) 95,74 %
07.11.2018 22:06 7,9 C 10,0 C 6,1 C 95 % 1014,0 hPa 0,0 l/m 4,5 km/h (1 Bft) S-SW 211 0 min 0,000 mm 0,0 UV-I 0 W/m 7,1 C 7,9 C 6,4 km/h (2 Bft) 95,74 %
07.11.2018 22:08 7,8 C 10,0 C 5,6 C 95 % 1014,0 hPa 0,0 l/m 4,1 km/h (1 Bft) S-SW 211 0 min 0,000 mm 0,0 UV-I 0 W/m 7,0 C 7,8 C 4,8 km/h (1 Bft) 94,00 %
07.11.2018 22:10 7,9 C 10,0 C 5,0 C 95 % 1014,0 hPa 0,0 l/m 3,6 km/h (1 Bft) S-SW 211 0 min 0,000 mm 0,0 UV-I 0 W/m 7,1 C 7,9 C 4,8 km/h (1 Bft) 95,74 %
07.11.2018 22:12 8,4 C 10,0 C 5,0 C 96 % 1014,1 hPa 0,0 l/m 3,1 km/h (1 Bft) S-SW 211 0 min 0,000 mm 0,0 UV-I 0 W/m 7,8 C 8,4 C 3,2 km/h (1 Bft) 93,62 %
07.11.2018 22:14 8,6 C 10,0 C 5,0 C 96 % 1014,1 hPa 0,0 l/m 3,8 km/h (1 Bft) S-SW 211 0 min 0,000 mm 0,0 UV-I 0 W/m 8,0 C 8,6 C 4,8 km/h (1 Bft) 95,12 %
07.11.2018 22:16 8,4 C 10,0 C 5,6 C 96 % 1014,1 hPa 0,0 l/m 3,6 km/h (1 Bft) S-SW 211 0 min 0,000 mm 0,0 UV-I 0 W/m 7,8 C 8,4 C 4,8 km/h (1 Bft) 95,74 %
07.11.2018 22:18 8,3 C 10,0 C 5,0 C 96 % 1014,1 hPa 0,0 l/m 2,6 km/h (1 Bft) S-SW 211 0 min 0,000 mm 0,0 UV-I 0 W/m 7,7 C 8,3 C 3,2 km/h (1 Bft) 95,83 %
07.11.2018 22:20 8,3 C 10,0 C 5,6 C 96 % 1014,1 hPa 0,0 l/m 2,9 km/h (1 Bft) S-SW 211 0 min 0,000 mm 0,0 UV-I 0 W/m 7,7 C 8,3 C 3,2 km/h (1 Bft) 92,31 %
07.11.2018 22:22 8,1 C 10,0 C 5,6 C 96 % 1014,1 hPa 0,0 l/m 3,6 km/h (1 Bft) S-SW 211 0 min 0,000 mm 0,0 UV-I 0 W/m 7,5 C 8,1 C 4,8 km/h (1 Bft) 97,87 %
07.11.2018 22:24 8,1 C 10,0 C 5,6 C 95 % 1014,1 hPa 0,0 l/m 4,3 km/h (1 Bft) S-SW 211 0 min 0,000 mm 0,0 UV-I 0 W/m 7,3 C 8,1 C 4,8 km/h (1 Bft) 97,44 %
07.11.2018 22:26 8,1 C 10,0 C 6,1 C 96 % 1014,2 hPa 0,0 l/m 3,6 km/h (1 Bft) S-SW 211 0 min 0,000 mm 0,0 UV-I 0 W/m 7,5 C 8,1 C 4,8 km/h (1 Bft) 96,00 %
07.11.2018 22:28 8,1 C 10,0 C 5,6 C 96 % 1014,2 hPa 0,0 l/m 2,3 km/h (1 Bft) S-SW 211 0 min 0,000 mm 0,0 UV-I 0 W/m 7,5 C 8,1 C 3,2 km/h (1 Bft) 98,11 %
07.11.2018 22:30 8,1 C 10,0 C 5,0 C 96 % 1014,2 hPa 0,0 l/m 1,0 km/h (0 Bft) S-SW 211 0 min 0,000 mm 0,0 UV-I 0 W/m 7,5 C 8,1 C 1,6 km/h (1 Bft) 97,37 %
07.11.2018 22:32 7,9 C 10,0 C 5,0 C 96 % 1014,2 hPa 0,0 l/m 1,8 km/h (1 Bft) S-SW 211 0 min 0,000 mm 0,0 UV-I 0 W/m 7,3 C 7,9 C 3,2 km/h (1 Bft) 97,14 %
07.11.2018 22:34 7,9 C 10,0 C 5,0 C 96 % 1014,2 hPa 0,0 l/m 2,9 km/h (1 Bft) S-SW 211 0 min 0,000 mm 0,0 UV-I 0 W/m 7,3 C 7,9 C 4,8 km/h (1 Bft) 95,16 %
07.11.2018 22:36 8,1 C 10,0 C 5,6 C 96 % 1014,2 hPa 0,0 l/m 3,3 km/h (1 Bft) S-SW 211 0 min 0,000 mm 0,0 UV-I 0 W/m 7,5 C 8,1 C 4,8 km/h (1 Bft) 97,87 %
07.11.2018 22:38 8,1 C 10,0 C 5,0 C 96 % 1014,2 hPa 0,0 l/m 2,2 km/h (1 Bft) S-SW 211 0 min 0,000 mm 0,0 UV-I 0 W/m 7,5 C 8,1 C 3,2 km/h (1 Bft) 100,00 %
07.11.2018 22:40 8,1 C 10,0 C 5,0 C 96 % 1014,3 hPa 0,0 l/m 2,2 km/h (1 Bft) S-SW 211 0 min 0,000 mm 0,0 UV-I 0 W/m 7,5 C 8,1 C 4,8 km/h (1 Bft) 97,73 %
07.11.2018 22:42 7,8 C 10,0 C 5,6 C 96 % 1014,4 hPa 0,0 l/m 1,1 km/h (1 Bft) S-SW 211 0 min 0,000 mm 0,0 UV-I 0 W/m 7,2 C 7,8 C 3,2 km/h (1 Bft) 100,00 %
07.11.2018 22:44 7,7 C 10,0 C 5,6 C 96 % 1014,4 hPa 0,0 l/m 3,4 km/h (1 Bft) S-SW 211 0 min 0,000 mm 0,0 UV-I 0 W/m 7,1 C 7,7 C 4,8 km/h (1 Bft) 97,37 %
07.11.2018 22:46 7,7 C 10,0 C 5,6 C 96 % 1014,4 hPa 0,0 l/m 4,5 km/h (1 Bft) S-SW 211 0 min 0,000 mm 0,0 UV-I 0 W/m 7,1 C 7,7 C 4,8 km/h (1 Bft) 100,00 %
07.11.2018 22:48 7,4 C 10,0 C 5,6 C 95 % 1014,4 hPa 0,0 l/m 4,8 km/h (1 Bft) S-SW 211 0 min 0,000 mm 0,0 UV-I 0 W/m 6,7 C 7,4 C 6,4 km/h (2 Bft) 100,00 %
07.11.2018 22:50 7,3 C 10,0 C 5,6 C 95 % 1014,5 hPa 0,0 l/m 4,8 km/h (1 Bft) S-SW 211 0 min 0,000 mm 0,0 UV-I 0 W/m 6,6 C 7,3 C 6,4 km/h (2 Bft) 100,00 %
07.11.2018 22:52 7,3 C 10,0 C 5,0 C 96 % 1014,5 hPa 0,0 l/m 4,0 km/h (1 Bft) S-SW 211 0 min 0,000 mm 0,0 UV-I 0 W/m 6,7 C 7,3 C 4,8 km/h (1 Bft) 98,11 %
07.11.2018 22:54 7,4 C 10,0 C 5,0 C 96 % 1014,5 hPa 0,0 l/m 4,8 km/h (1 Bft) S-SW 211 0 min 0,000 mm 0,0 UV-I 0 W/m 6,8 C 7,4 C 6,4 km/h (2 Bft) 100,00 %
07.11.2018 22:56 7,5 C 10,0 C 5,6 C 96 % 1014,5 hPa 0,0 l/m 4,5 km/h (1 Bft) S-SW 211 0 min 0,000 mm 0,0 UV-I 0 W/m 6,9 C 7,5 C 6,4 km/h (2 Bft) 100,00 %
07.11.2018 22:59 7,4 C 10,0 C 5,0 C 96 % 1014,5 hPa 0,0 l/m 4,9 km/h (1 Bft) S-SW 211 0 min 0,000 mm 0,0 UV-I 0 W/m 6,8 C 7,4 C 6,4 km/h (2 Bft) 100,00 %
07.11.2018 23:00 7,4 C 10,0 C 5,0 C 96 % 1014,5 hPa 0,0 l/m 4,7 km/h (1 Bft) S-SW 211 0 min 0,000 mm 0,0 UV-I 0 W/m 6,8 C 7,4 C 4,8 km/h (1 Bft) 100,00 %
07.11.2018 23:02 7,3 C 10,0 C 4,4 C 96 % 1014,5 hPa 0,0 l/m 4,3 km/h (1 Bft) S-SW 211 0 min 0,000 mm 0,0 UV-I 0 W/m 6,7 C 7,3 C 4,8 km/h (1 Bft) 96,15 %
07.11.2018 23:04 7,5 C 10,0 C 4,4 C 96 % 1014,6 hPa 0,0 l/m 4,5 km/h (1 Bft) S-SW 211 0 min 0,000 mm 0,0 UV-I 0 W/m 6,9 C 7,5 C 6,4 km/h (2 Bft) 100,00 %
07.11.2018 23:06 7,7 C 10,0 C 4,4 C 96 % 1014,6 hPa 0,0 l/m 4,2 km/h (1 Bft) S-SW 211 0 min 0,000 mm 0,0 UV-I 0 W/m 7,1 C 7,7 C 4,8 km/h (1 Bft) 100,00 %
07.11.2018 23:08 7,7 C 10,0 C 5,0 C 96 % 1014,6 hPa 0,0 l/m 4,4 km/h (1 Bft) S-SW 211 0 min 0,000 mm 0,0 UV-I 0 W/m 7,1 C 7,7 C 6,4 km/h (2 Bft) 100,00 %
07.11.2018 23:10 7,7 C 10,0 C 4,4 C 96 % 1014,6 hPa 0,0 l/m 4,1 km/h (1 Bft) S-SW 211 0 min 0,000 mm 0,0 UV-I 0 W/m 7,1 C 7,7 C 4,8 km/h (1 Bft) 98,46 %
07.11.2018 23:12 7,4 C 10,0 C 4,4 C 96 % 1014,6 hPa 0,0 l/m 3,5 km/h (1 Bft) S-SW 211 0 min 0,000 mm 0,0 UV-I 0 W/m 6,8 C 7,4 C 4,8 km/h (1 Bft) 100,00 %
07.11.2018 23:14 7,4 C 10,0 C 4,4 C 96 % 1014,6 hPa 0,0 l/m 4,1 km/h (1 Bft) S-SW 211 0 min 0,000 mm 0,0 UV-I 0 W/m 6,8 C 7,4 C 4,8 km/h (1 Bft) 97,37 %
07.11.2018 23:16 7,6 C 10,0 C 4,4 C 96 % 1014,7 hPa 0,0 l/m 5,3 km/h (1 Bft) S-SW 211 0 min 0,000 mm 0,0 UV-I 0 W/m 7,0 C 7,6 C 6,4 km/h (2 Bft) 98,00 %
07.11.2018 23:18 7,6 C 10,0 C 5,0 C 96 % 1014,7 hPa 0,0 l/m 5,7 km/h (1 Bft) S-SW 211 0 min 0,000 mm 0,0 UV-I 0 W/m 7,0 C 7,6 C 8,0 km/h (2 Bft) 95,74 %
07.11.2018 23:20 7,5 C 10,0 C 5,6 C 96 % 1014,8 hPa 0,0 l/m 6,4 km/h (2 Bft) S-SW 211 0 min 0,000 mm 0,0 UV-I 0 W/m 6,9 C 7,5 C 8,0 km/h (2 Bft) 94,00 %
07.11.2018 23:22 7,4 C 10,0 C 5,6 C 96 % 1014,8 hPa 0,0 l/m 5,9 km/h (2 Bft) S-SW 204 0 min 0,000 mm 0,0 UV-I 0 W/m 6,8 C 7,4 C 6,4 km/h (2 Bft) 96,00 %
07.11.2018 23:24 7,3 C 10,0 C 5,6 C 96 % 1014,8 hPa 0,0 l/m 5,5 km/h (1 Bft) S-SW 202 0 min 0,000 mm 0,0 UV-I 0 W/m 6,7 C 7,3 C 6,4 km/h (2 Bft) 93,62 %
07.11.2018 23:26 7,2 C 10,0 C 5,6 C 96 % 1014,8 hPa 0,0 l/m 4,8 km/h (1 Bft) S-SW 209 0 min 0,000 mm 0,0 UV-I 0 W/m 6,6 C 7,2 C 6,4 km/h (2 Bft) 95,74 %
07.11.2018 23:28 7,2 C 10,0 C 5,0 C 96 % 1014,8 hPa 0,0 l/m 4,0 km/h (1 Bft) S-SW 209 0 min 0,000 mm 0,0 UV-I 0 W/m 6,6 C 7,2 C 4,8 km/h (1 Bft) 94,74 %
07.11.2018 23:30 7,4 C 10,0 C 4,4 C 96 % 1014,9 hPa 0,0 l/m 4,3 km/h (1 Bft) S-SW 209 0 min 0,000 mm 0,0 UV-I 0 W/m 6,8 C 7,4 C 4,8 km/h (1 Bft) 96,23 %
07.11.2018 23:32 7,7 C 10,0 C 4,4 C 97 % 1014,9 hPa 0,0 l/m 4,2 km/h (1 Bft) S-SW 209 0 min 0,000 mm 0,0 UV-I 0 W/m 7,3 C 7,7 C 4,8 km/h (1 Bft) 94,00 %
07.11.2018 23:34 7,7 C 10,0 C 5,0 C 97 % 1015,0 hPa 0,0 l/m 6,3 km/h (2 Bft) W-SW 244 0 min 0,000 mm 0,0 UV-I 0 W/m 7,3 C 7,7 C 11,3 km/h (2 Bft) 91,49 %
07.11.2018 23:36 7,3 C 10,0 C 5,6 C 96 % 1015,1 hPa 0,0 l/m 10,7 km/h (2 Bft) W-SW 238 0 min 0,000 mm 0,0 UV-I 0 W/m 6,7 C 4,2 C 12,9 km/h (3 Bft) 95,74 %
07.11.2018 23:38 7,1 C 10,0 C 5,6 C 96 % 1015,2 hPa 0,0 l/m 8,4 km/h (2 Bft) SW 232 0 min 0,000 mm 0,0 UV-I 0 W/m 6,5 C 5,5 C 12,9 km/h (3 Bft) 94,87 %
07.11.2018 23:40 7,1 C 10,0 C 5,6 C 96 % 1015,4 hPa 0,0 l/m 8,2 km/h (2 Bft) S-SW 213 0 min 0,000 mm 0,0 UV-I 0 W/m 6,5 C 5,7 C 11,3 km/h (2 Bft) 96,00 %
07.11.2018 23:42 7,2 C 10,0 C 6,1 C 96 % 1015,5 hPa 0,0 l/m 9,5 km/h (2 Bft) SW 224 0 min 0,000 mm 0,0 UV-I 0 W/m 6,6 C 4,8 C 12,9 km/h (3 Bft) 96,15 %
07.11.2018 23:44 7,5 C 10,0 C 6,1 C 96 % 1015,4 hPa 0,0 l/m 8,1 km/h (2 Bft) S 188 0 min 0,000 mm 0,0 UV-I 0 W/m 6,9 C 6,2 C 11,3 km/h (2 Bft) 97,06 %
07.11.2018 23:46 7,4 C 10,0 C 6,1 C 96 % 1015,4 hPa 0,0 l/m 4,0 km/h (1 Bft) S 190 0 min 0,000 mm 0,0 UV-I 0 W/m 6,8 C 7,4 C 6,4 km/h (2 Bft) 96,00 %
07.11.2018 23:48 7,5 C 10,0 C 6,1 C 96 % 1015,4 hPa 0,0 l/m 6,5 km/h (2 Bft) S-SW 205 0 min 0,000 mm 0,0 UV-I 0 W/m 6,9 C 7,4 C 8,0 km/h (2 Bft) 94,74 %
07.11.2018 23:50 7,6 C 10,0 C 6,1 C 96 % 1015,4 hPa 0,0 l/m 5,7 km/h (1 Bft) S-SW 198 0 min 0,000 mm 0,0 UV-I 0 W/m 7,0 C 7,6 C 8,0 km/h (2 Bft) 96,00 %
07.11.2018 23:52 7,7 C 10,0 C 6,1 C 96 % 1015,4 hPa 0,0 l/m 4,6 km/h (1 Bft) S-SW 208 0 min 0,000 mm 0,0 UV-I 0 W/m 7,1 C 7,7 C 6,4 km/h (2 Bft) 96,23 %
07.11.2018 23:54 7,7 C 10,0 C 6,7 C 97 % 1015,4 hPa 0,0 l/m 5,5 km/h (1 Bft) S-SW 192 0 min 0,000 mm 0,0 UV-I 0 W/m 7,3 C 7,7 C 6,4 km/h (2 Bft) 97,37 %
07.11.2018 23:56 7,7 C 10,0 C 6,7 C 97 % 1015,4 hPa 0,0 l/m 5,1 km/h (1 Bft) S 182 0 min 0,000 mm 0,0 UV-I 0 W/m 7,3 C 7,7 C 8,0 km/h (2 Bft) 97,87 %
07.11.2018 23:58 7,7 C 10,0 C 6,1 C 97 % 1015,4 hPa 0,0 l/m 3,4 km/h (1 Bft) S 182 0 min 0,000 mm 0,0 UV-I 0 W/m 7,3 C 7,7 C 4,8 km/h (1 Bft) 97,87 %
_ Min-Zeit 06:40 00:16 06:28 13:16 00:00 - 00:30 - - - - - - 06:40 03:08 00:32 01:20
Minimum _ 5,5 C 10,0 C 2,2 C 73 % 1009,5 hPa - 0,0 km/h (0 Bft) - - - - - - 4,8 C 2,6 C 0,0 km/h (0 Bft) 88,00 %
_ Max-Zeit 13:46 00:00 13:08 23:32 23:42 00:00 10:38 - - 08:45 12:00 11:34 11:34 15:36 13:46 10:34 00:16
Maximum _ 15,7 C 10,6 C 17,2 C 97 % 1015,5 hPa 0,0 l/m 18,6 km/h
O-NO (3 Bft)
- - 3 min 0,204 mm 1,0 UV-I 429 W/m 11,5 C 15,7 C 24,1 km/h
O-NO (4 Bft)
100,00 %
Durchschnitt _ 10,1 C 10,0 C 8,1 C 89 % 1011,6 hPa #0,0 l/m 3,9 km/h (1 Bft) S-SW - #8:04 h #1,143 mm 0,7 UV-I 202 W/m 8,3 C 9,8 C 5,8 km/h (2 Bft) 97,53 %